<?xml version="1.0" encoding="UTF-8" standalone="no" ?>
<gpx xmlns="http://www.topografix.com/GPX/1/1" xmlns:xsi="http://www.w3.org/2001/XMLSchema-instance" xsi:schemaLocation="http://www.topografix.com/GPX/1/1 http://www.topografix.com/GPX/1/1/gpx.xsd" version="1.1" creator="VisuGPX - https://www.visugpx.com">
  <metadata>
    <name>Problème technique </name>
  </metadata>
  <trk>
    <name><![CDATA[Enregistré le 1 juin 2023 10:58:01]]></name>
    <trkseg>
      <trkpt lat="46.18727" lon="-1.32529">
        <ele>4.63622</ele>
        <time>2023-06-01T13:20:30.000Z</time>
      </trkpt>
      <trkpt lat="46.18728" lon="-1.3253">
        <ele>6.72374</ele>
        <time>2023-06-01T13:20:32.599Z</time>
      </trkpt>
      <trkpt lat="46.18727" lon="-1.32531">
        <ele>6.51162</ele>
        <time>2023-06-01T13:21:00.000Z</time>
      </trkpt>
      <trkpt lat="46.18727" lon="-1.32528">
        <ele>5.96793</ele>
        <time>2023-06-01T13:23:09.000Z</time>
      </trkpt>
      <trkpt lat="46.18726" lon="-1.32526">
        <ele>5.72764</ele>
        <time>2023-06-01T13:23:14.000Z</time>
      </trkpt>
      <trkpt lat="46.18724" lon="-1.32528">
        <ele>5.69339</ele>
        <time>2023-06-01T13:24:39.000Z</time>
      </trkpt>
      <trkpt lat="46.18723" lon="-1.32532">
        <ele>5.59716</ele>
        <time>2023-06-01T13:24:41.000Z</time>
      </trkpt>
      <trkpt lat="46.18724" lon="-1.32535">
        <ele>5.54615</ele>
        <time>2023-06-01T13:24:45.000Z</time>
      </trkpt>
      <trkpt lat="46.18722" lon="-1.32537">
        <ele>5.49713</ele>
        <time>2023-06-01T13:24:49.000Z</time>
      </trkpt>
      <trkpt lat="46.18721" lon="-1.32539">
        <ele>5.45096</ele>
        <time>2023-06-01T13:24:51.000Z</time>
      </trkpt>
      <trkpt lat="46.1872" lon="-1.32541">
        <ele>5.34666</ele>
        <time>2023-06-01T13:24:54.000Z</time>
      </trkpt>
      <trkpt lat="46.1872" lon="-1.32544">
        <ele>5.29569</ele>
        <time>2023-06-01T13:24:59.000Z</time>
      </trkpt>
      <trkpt lat="46.1872" lon="-1.32547">
        <ele>5.10659</ele>
        <time>2023-06-01T13:25:04.000Z</time>
      </trkpt>
      <trkpt lat="46.18718" lon="-1.32548">
        <ele>5.10461</ele>
        <time>2023-06-01T13:25:09.000Z</time>
      </trkpt>
      <trkpt lat="46.18716" lon="-1.32549">
        <ele>5.12699</ele>
        <time>2023-06-01T13:25:13.000Z</time>
      </trkpt>
      <trkpt lat="46.18714" lon="-1.3255">
        <ele>5.0583</ele>
        <time>2023-06-01T13:25:17.000Z</time>
      </trkpt>
      <trkpt lat="46.18713" lon="-1.32553">
        <ele>4.9153</ele>
        <time>2023-06-01T13:25:21.000Z</time>
      </trkpt>
      <trkpt lat="46.18712" lon="-1.32557">
        <ele>4.74605</ele>
        <time>2023-06-01T13:25:32.000Z</time>
      </trkpt>
      <trkpt lat="46.1871" lon="-1.32559">
        <ele>4.58262</ele>
        <time>2023-06-01T13:25:35.000Z</time>
      </trkpt>
      <trkpt lat="46.1871" lon="-1.32562">
        <ele>4.49763</ele>
        <time>2023-06-01T13:25:39.000Z</time>
      </trkpt>
      <trkpt lat="46.18711" lon="-1.32564">
        <ele>4.48939</ele>
        <time>2023-06-01T13:25:48.000Z</time>
      </trkpt>
      <trkpt lat="46.18711" lon="-1.32567">
        <ele>4.27806</ele>
        <time>2023-06-01T13:25:53.000Z</time>
      </trkpt>
      <trkpt lat="46.18711" lon="-1.3257">
        <ele>4.32801</ele>
        <time>2023-06-01T13:26:02.000Z</time>
      </trkpt>
      <trkpt lat="46.18712" lon="-1.32572">
        <ele>4.50421</ele>
        <time>2023-06-01T13:26:08.000Z</time>
      </trkpt>
      <trkpt lat="46.18712" lon="-1.32576">
        <ele>4.55347</ele>
        <time>2023-06-01T13:26:11.000Z</time>
      </trkpt>
      <trkpt lat="46.18712" lon="-1.32579">
        <ele>4.53408</ele>
        <time>2023-06-01T13:26:14.000Z</time>
      </trkpt>
      <trkpt lat="46.18713" lon="-1.32582">
        <ele>4.4944</ele>
        <time>2023-06-01T13:26:18.000Z</time>
      </trkpt>
      <trkpt lat="46.18713" lon="-1.32585">
        <ele>4.38547</ele>
        <time>2023-06-01T13:26:35.000Z</time>
      </trkpt>
      <trkpt lat="46.18714" lon="-1.32587">
        <ele>4.26394</ele>
        <time>2023-06-01T13:26:38.000Z</time>
      </trkpt>
      <trkpt lat="46.18715" lon="-1.32589">
        <ele>4.12306</ele>
        <time>2023-06-01T13:26:47.000Z</time>
      </trkpt>
      <trkpt lat="46.18716" lon="-1.32591">
        <ele>3.99706</ele>
        <time>2023-06-01T13:27:15.000Z</time>
      </trkpt>
      <trkpt lat="46.18717" lon="-1.32595">
        <ele>3.81446</ele>
        <time>2023-06-01T13:27:17.000Z</time>
      </trkpt>
      <trkpt lat="46.18718" lon="-1.32597">
        <ele>3.65281</ele>
        <time>2023-06-01T13:27:20.000Z</time>
      </trkpt>
      <trkpt lat="46.1872" lon="-1.32599">
        <ele>3.37528</ele>
        <time>2023-06-01T13:27:23.000Z</time>
      </trkpt>
      <trkpt lat="46.18721" lon="-1.32601">
        <ele>3.12107</ele>
        <time>2023-06-01T13:27:26.000Z</time>
      </trkpt>
      <trkpt lat="46.18721" lon="-1.32604">
        <ele>2.95432</ele>
        <time>2023-06-01T13:27:34.000Z</time>
      </trkpt>
      <trkpt lat="46.18723" lon="-1.32604">
        <ele>3.02046</ele>
        <time>2023-06-01T13:27:42.000Z</time>
      </trkpt>
      <trkpt lat="46.18723" lon="-1.32602">
        <ele>2.99978</ele>
        <time>2023-06-01T13:29:06.000Z</time>
      </trkpt>
      <trkpt lat="46.18722" lon="-1.32599">
        <ele>3.08029</ele>
        <time>2023-06-01T13:31:07.000Z</time>
      </trkpt>
      <trkpt lat="46.18721" lon="-1.32597">
        <ele>3.11711</ele>
        <time>2023-06-01T13:31:11.000Z</time>
      </trkpt>
      <trkpt lat="46.18721" lon="-1.32594">
        <ele>3.06274</ele>
        <time>2023-06-01T13:34:51.000Z</time>
      </trkpt>
      <trkpt lat="46.1872" lon="-1.32592">
        <ele>3.08072</ele>
        <time>2023-06-01T13:34:57.000Z</time>
      </trkpt>
      <trkpt lat="46.1872" lon="-1.32594">
        <ele>3.00148</ele>
        <time>2023-06-01T13:35:04.000Z</time>
      </trkpt>
      <trkpt lat="46.1872" lon="-1.32597">
        <ele>2.86029</ele>
        <time>2023-06-01T13:35:09.000Z</time>
      </trkpt>
      <trkpt lat="46.18718" lon="-1.32597">
        <ele>2.81984</ele>
        <time>2023-06-01T13:35:12.000Z</time>
      </trkpt>
      <trkpt lat="46.18721" lon="-1.32597">
        <ele>2.95731</ele>
        <time>2023-06-01T13:35:14.000Z</time>
      </trkpt>
      <trkpt lat="46.18724" lon="-1.32596">
        <ele>3.14761</ele>
        <time>2023-06-01T13:35:35.000Z</time>
      </trkpt>
      <trkpt lat="46.18726" lon="-1.32595">
        <ele>3.36251</ele>
        <time>2023-06-01T13:36:55.000Z</time>
      </trkpt>
      <trkpt lat="46.1873" lon="-1.32594">
        <ele>3.64258</ele>
        <time>2023-06-01T13:40:42.000Z</time>
      </trkpt>
      <trkpt lat="46.1873" lon="-1.32591">
        <ele>3.93474</ele>
        <time>2023-06-01T13:42:16.000Z</time>
      </trkpt>
      <trkpt lat="46.18728" lon="-1.3259">
        <ele>4.19406</ele>
        <time>2023-06-01T13:42:18.000Z</time>
      </trkpt>
      <trkpt lat="46.18726" lon="-1.3259">
        <ele>4.40155</ele>
        <time>2023-06-01T13:42:26.000Z</time>
      </trkpt>
      <trkpt lat="46.18724" lon="-1.32591">
        <ele>4.69518</ele>
        <time>2023-06-01T13:42:32.000Z</time>
      </trkpt>
      <trkpt lat="46.18722" lon="-1.32591">
        <ele>4.92433</ele>
        <time>2023-06-01T13:43:02.000Z</time>
      </trkpt>
      <trkpt lat="46.18723" lon="-1.32593">
        <ele>5.06198</ele>
        <time>2023-06-01T13:43:14.000Z</time>
      </trkpt>
      <trkpt lat="46.18723" lon="-1.32596">
        <ele>5.2028</ele>
        <time>2023-06-01T13:43:18.000Z</time>
      </trkpt>
      <trkpt lat="46.18724" lon="-1.32599">
        <ele>5.1697</ele>
        <time>2023-06-01T13:43:30.000Z</time>
      </trkpt>
      <trkpt lat="46.18725" lon="-1.32601">
        <ele>5.31347</ele>
        <time>2023-06-01T13:43:36.000Z</time>
      </trkpt>
      <trkpt lat="46.18726" lon="-1.32604">
        <ele>5.41146</ele>
        <time>2023-06-01T13:43:45.000Z</time>
      </trkpt>
      <trkpt lat="46.18726" lon="-1.32606">
        <ele>5.36955</ele>
        <time>2023-06-01T13:43:51.000Z</time>
      </trkpt>
      <trkpt lat="46.18726" lon="-1.32609">
        <ele>5.28425</ele>
        <time>2023-06-01T13:44:21.000Z</time>
      </trkpt>
      <trkpt lat="46.18727" lon="-1.32611">
        <ele>5.15062</ele>
        <time>2023-06-01T13:45:23.000Z</time>
      </trkpt>
      <trkpt lat="46.18727" lon="-1.32614">
        <ele>5.01032</ele>
        <time>2023-06-01T13:45:30.000Z</time>
      </trkpt>
      <trkpt lat="46.18727" lon="-1.32611">
        <ele>4.94741</ele>
        <time>2023-06-01T13:45:53.000Z</time>
      </trkpt>
      <trkpt lat="46.18726" lon="-1.32608">
        <ele>4.88701</ele>
        <time>2023-06-01T13:45:56.000Z</time>
      </trkpt>
      <trkpt lat="46.18726" lon="-1.32605">
        <ele>4.68201</ele>
        <time>2023-06-01T13:46:01.000Z</time>
      </trkpt>
      <trkpt lat="46.18725" lon="-1.32603">
        <ele>4.49536</ele>
        <time>2023-06-01T13:46:06.000Z</time>
      </trkpt>
      <trkpt lat="46.18723" lon="-1.32601">
        <ele>4.30764</ele>
        <time>2023-06-01T13:46:09.000Z</time>
      </trkpt>
      <trkpt lat="46.18722" lon="-1.32598">
        <ele>4.08691</ele>
        <time>2023-06-01T13:46:12.000Z</time>
      </trkpt>
      <trkpt lat="46.18721" lon="-1.32596">
        <ele>3.92664</ele>
        <time>2023-06-01T13:46:17.000Z</time>
      </trkpt>
      <trkpt lat="46.1872" lon="-1.32593">
        <ele>3.84104</ele>
        <time>2023-06-01T13:46:37.000Z</time>
      </trkpt>
      <trkpt lat="46.18719" lon="-1.32591">
        <ele>3.84451</ele>
        <time>2023-06-01T13:46:39.000Z</time>
      </trkpt>
      <trkpt lat="46.18718" lon="-1.32587">
        <ele>3.75937</ele>
        <time>2023-06-01T13:46:41.000Z</time>
      </trkpt>
      <trkpt lat="46.18716" lon="-1.32584">
        <ele>3.77092</ele>
        <time>2023-06-01T13:46:43.000Z</time>
      </trkpt>
      <trkpt lat="46.18715" lon="-1.32582">
        <ele>3.82319</ele>
        <time>2023-06-01T13:46:45.000Z</time>
      </trkpt>
      <trkpt lat="46.18714" lon="-1.32579">
        <ele>3.915</ele>
        <time>2023-06-01T13:46:47.000Z</time>
      </trkpt>
      <trkpt lat="46.18713" lon="-1.32576">
        <ele>4.04762</ele>
        <time>2023-06-01T13:46:49.000Z</time>
      </trkpt>
      <trkpt lat="46.18713" lon="-1.32572">
        <ele>4.10473</ele>
        <time>2023-06-01T13:46:51.000Z</time>
      </trkpt>
      <trkpt lat="46.18713" lon="-1.32568">
        <ele>4.09773</ele>
        <time>2023-06-01T13:46:53.000Z</time>
      </trkpt>
      <trkpt lat="46.18712" lon="-1.32565">
        <ele>4.26742</ele>
        <time>2023-06-01T13:46:55.000Z</time>
      </trkpt>
      <trkpt lat="46.18711" lon="-1.32562">
        <ele>4.52341</ele>
        <time>2023-06-01T13:46:57.000Z</time>
      </trkpt>
      <trkpt lat="46.1871" lon="-1.32559">
        <ele>4.81216</ele>
        <time>2023-06-01T13:47:00.000Z</time>
      </trkpt>
      <trkpt lat="46.18708" lon="-1.32557">
        <ele>5.15672</ele>
        <time>2023-06-01T13:47:04.000Z</time>
      </trkpt>
      <trkpt lat="46.18711" lon="-1.32556">
        <ele>5.48704</ele>
        <time>2023-06-01T13:47:07.000Z</time>
      </trkpt>
      <trkpt lat="46.18713" lon="-1.32555">
        <ele>5.85103</ele>
        <time>2023-06-01T13:47:09.000Z</time>
      </trkpt>
      <trkpt lat="46.18714" lon="-1.32551">
        <ele>6.27639</ele>
        <time>2023-06-01T13:47:13.000Z</time>
      </trkpt>
      <trkpt lat="46.18713" lon="-1.32549">
        <ele>6.69155</ele>
        <time>2023-06-01T13:47:15.000Z</time>
      </trkpt>
      <trkpt lat="46.18714" lon="-1.32545">
        <ele>7.09252</ele>
        <time>2023-06-01T13:47:17.000Z</time>
      </trkpt>
      <trkpt lat="46.18715" lon="-1.32542">
        <ele>7.52059</ele>
        <time>2023-06-01T13:47:19.000Z</time>
      </trkpt>
      <trkpt lat="46.18716" lon="-1.3254">
        <ele>7.86553</ele>
        <time>2023-06-01T13:47:21.000Z</time>
      </trkpt>
      <trkpt lat="46.18716" lon="-1.32537">
        <ele>8.15318</ele>
        <time>2023-06-01T13:47:23.000Z</time>
      </trkpt>
      <trkpt lat="46.18716" lon="-1.32534">
        <ele>8.44857</ele>
        <time>2023-06-01T13:47:25.000Z</time>
      </trkpt>
      <trkpt lat="46.18717" lon="-1.32532">
        <ele>8.95796</ele>
        <time>2023-06-01T13:47:32.000Z</time>
      </trkpt>
      <trkpt lat="46.18718" lon="-1.32529">
        <ele>9.40224</ele>
        <time>2023-06-01T13:47:34.000Z</time>
      </trkpt>
      <trkpt lat="46.18719" lon="-1.32526">
        <ele>9.78498</ele>
        <time>2023-06-01T13:47:36.000Z</time>
      </trkpt>
      <trkpt lat="46.18721" lon="-1.32524">
        <ele>10.11837</ele>
        <time>2023-06-01T13:47:39.000Z</time>
      </trkpt>
      <trkpt lat="46.18722" lon="-1.32521">
        <ele>10.38606</ele>
        <time>2023-06-01T13:47:41.000Z</time>
      </trkpt>
      <trkpt lat="46.18723" lon="-1.32519">
        <ele>10.65812</ele>
        <time>2023-06-01T13:47:43.000Z</time>
      </trkpt>
      <trkpt lat="46.18724" lon="-1.32517">
        <ele>10.96576</ele>
        <time>2023-06-01T13:47:45.000Z</time>
      </trkpt>
      <trkpt lat="46.18725" lon="-1.32514">
        <ele>11.23398</ele>
        <time>2023-06-01T13:47:47.000Z</time>
      </trkpt>
      <trkpt lat="46.18726" lon="-1.32511">
        <ele>11.499</ele>
        <time>2023-06-01T13:47:50.000Z</time>
      </trkpt>
      <trkpt lat="46.18728" lon="-1.32508">
        <ele>11.67561</ele>
        <time>2023-06-01T13:47:53.000Z</time>
      </trkpt>
      <trkpt lat="46.18729" lon="-1.32506">
        <ele>11.74257</ele>
        <time>2023-06-01T13:47:55.000Z</time>
      </trkpt>
      <trkpt lat="46.18731" lon="-1.32503">
        <ele>11.77159</ele>
        <time>2023-06-01T13:47:58.000Z</time>
      </trkpt>
      <trkpt lat="46.18733" lon="-1.32502">
        <ele>11.70124</ele>
        <time>2023-06-01T13:48:00.000Z</time>
      </trkpt>
      <trkpt lat="46.18735" lon="-1.32502">
        <ele>11.54533</ele>
        <time>2023-06-01T13:48:02.000Z</time>
      </trkpt>
      <trkpt lat="46.18737" lon="-1.325">
        <ele>11.33451</ele>
        <time>2023-06-01T13:48:05.000Z</time>
      </trkpt>
      <trkpt lat="46.18738" lon="-1.32498">
        <ele>11.14341</ele>
        <time>2023-06-01T13:48:07.000Z</time>
      </trkpt>
      <trkpt lat="46.1874" lon="-1.32496">
        <ele>10.84833</ele>
        <time>2023-06-01T13:48:11.000Z</time>
      </trkpt>
      <trkpt lat="46.18742" lon="-1.32493">
        <ele>10.61281</ele>
        <time>2023-06-01T13:48:14.000Z</time>
      </trkpt>
      <trkpt lat="46.18742" lon="-1.32491">
        <ele>10.4501</ele>
        <time>2023-06-01T13:48:17.000Z</time>
      </trkpt>
      <trkpt lat="46.18743" lon="-1.32488">
        <ele>10.29122</ele>
        <time>2023-06-01T13:48:19.000Z</time>
      </trkpt>
      <trkpt lat="46.18745" lon="-1.32484">
        <ele>9.96902</ele>
        <time>2023-06-01T13:48:22.000Z</time>
      </trkpt>
      <trkpt lat="46.18746" lon="-1.32482">
        <ele>9.66936</ele>
        <time>2023-06-01T13:48:24.000Z</time>
      </trkpt>
      <trkpt lat="46.18747" lon="-1.32479">
        <ele>9.36422</ele>
        <time>2023-06-01T13:48:27.000Z</time>
      </trkpt>
      <trkpt lat="46.18748" lon="-1.32476">
        <ele>9.10168</ele>
        <time>2023-06-01T13:48:30.000Z</time>
      </trkpt>
      <trkpt lat="46.1875" lon="-1.32475">
        <ele>8.86765</ele>
        <time>2023-06-01T13:48:33.000Z</time>
      </trkpt>
      <trkpt lat="46.18752" lon="-1.32474">
        <ele>8.67644</ele>
        <time>2023-06-01T13:48:35.000Z</time>
      </trkpt>
      <trkpt lat="46.18754" lon="-1.32473">
        <ele>8.44406</ele>
        <time>2023-06-01T13:48:37.000Z</time>
      </trkpt>
      <trkpt lat="46.18755" lon="-1.3247">
        <ele>8.15295</ele>
        <time>2023-06-01T13:48:40.000Z</time>
      </trkpt>
      <trkpt lat="46.18756" lon="-1.32467">
        <ele>7.82105</ele>
        <time>2023-06-01T13:48:42.000Z</time>
      </trkpt>
      <trkpt lat="46.18757" lon="-1.32465">
        <ele>7.51524</ele>
        <time>2023-06-01T13:48:44.000Z</time>
      </trkpt>
      <trkpt lat="46.18758" lon="-1.32462">
        <ele>7.33271</ele>
        <time>2023-06-01T13:48:47.000Z</time>
      </trkpt>
      <trkpt lat="46.1876" lon="-1.32459">
        <ele>7.2385</ele>
        <time>2023-06-01T13:48:50.000Z</time>
      </trkpt>
      <trkpt lat="46.18761" lon="-1.32457">
        <ele>7.2406</ele>
        <time>2023-06-01T13:48:52.000Z</time>
      </trkpt>
      <trkpt lat="46.18762" lon="-1.32454">
        <ele>7.25524</ele>
        <time>2023-06-01T13:48:55.000Z</time>
      </trkpt>
      <trkpt lat="46.18764" lon="-1.32451">
        <ele>7.30818</ele>
        <time>2023-06-01T13:48:58.000Z</time>
      </trkpt>
      <trkpt lat="46.18763" lon="-1.32448">
        <ele>7.38504</ele>
        <time>2023-06-01T13:49:01.000Z</time>
      </trkpt>
      <trkpt lat="46.18762" lon="-1.32446">
        <ele>7.49123</ele>
        <time>2023-06-01T13:49:03.000Z</time>
      </trkpt>
      <trkpt lat="46.1876" lon="-1.32443">
        <ele>7.55047</ele>
        <time>2023-06-01T13:49:05.000Z</time>
      </trkpt>
      <trkpt lat="46.18758" lon="-1.32441">
        <ele>7.59777</ele>
        <time>2023-06-01T13:49:07.000Z</time>
      </trkpt>
      <trkpt lat="46.18756" lon="-1.32439">
        <ele>7.62528</ele>
        <time>2023-06-01T13:49:09.000Z</time>
      </trkpt>
      <trkpt lat="46.18754" lon="-1.32438">
        <ele>7.63739</ele>
        <time>2023-06-01T13:49:11.000Z</time>
      </trkpt>
      <trkpt lat="46.18752" lon="-1.32438">
        <ele>7.66211</ele>
        <time>2023-06-01T13:49:13.000Z</time>
      </trkpt>
      <trkpt lat="46.1875" lon="-1.32438">
        <ele>7.74745</ele>
        <time>2023-06-01T13:49:15.000Z</time>
      </trkpt>
      <trkpt lat="46.18748" lon="-1.32437">
        <ele>7.80425</ele>
        <time>2023-06-01T13:49:17.000Z</time>
      </trkpt>
      <trkpt lat="46.18746" lon="-1.32436">
        <ele>7.83552</ele>
        <time>2023-06-01T13:49:19.000Z</time>
      </trkpt>
      <trkpt lat="46.18744" lon="-1.32435">
        <ele>7.82356</ele>
        <time>2023-06-01T13:49:22.000Z</time>
      </trkpt>
      <trkpt lat="46.18742" lon="-1.32435">
        <ele>7.82254</ele>
        <time>2023-06-01T13:49:37.000Z</time>
      </trkpt>
      <trkpt lat="46.1874" lon="-1.32435">
        <ele>7.84718</ele>
        <time>2023-06-01T13:49:39.000Z</time>
      </trkpt>
      <trkpt lat="46.18738" lon="-1.32434">
        <ele>7.85966</ele>
        <time>2023-06-01T13:50:15.000Z</time>
      </trkpt>
      <trkpt lat="46.18739" lon="-1.32436">
        <ele>7.87593</ele>
        <time>2023-06-01T13:50:44.000Z</time>
      </trkpt>
      <trkpt lat="46.18737" lon="-1.32436">
        <ele>7.81451</ele>
        <time>2023-06-01T13:53:15.000Z</time>
      </trkpt>
      <trkpt lat="46.18735" lon="-1.32437">
        <ele>7.62194</ele>
        <time>2023-06-01T13:53:48.000Z</time>
      </trkpt>
      <trkpt lat="46.18734" lon="-1.32435">
        <ele>7.31884</ele>
        <time>2023-06-01T13:54:36.000Z</time>
      </trkpt>
      <trkpt lat="46.18735" lon="-1.32433">
        <ele>7.0955</ele>
        <time>2023-06-01T13:55:49.000Z</time>
      </trkpt>
      <trkpt lat="46.18736" lon="-1.32431">
        <ele>6.85283</ele>
        <time>2023-06-01T13:56:38.000Z</time>
      </trkpt>
      <trkpt lat="46.18737" lon="-1.32429">
        <ele>6.57191</ele>
        <time>2023-06-01T13:59:05.000Z</time>
      </trkpt>
      <trkpt lat="46.18739" lon="-1.32427">
        <ele>6.29216</ele>
        <time>2023-06-01T13:59:58.000Z</time>
      </trkpt>
      <trkpt lat="46.18738" lon="-1.3243">
        <ele>6.04914</ele>
        <time>2023-06-01T14:00:04.000Z</time>
      </trkpt>
      <trkpt lat="46.18739" lon="-1.32432">
        <ele>5.77892</ele>
        <time>2023-06-01T14:00:07.000Z</time>
      </trkpt>
      <trkpt lat="46.18741" lon="-1.32432">
        <ele>5.50124</ele>
        <time>2023-06-01T14:00:09.000Z</time>
      </trkpt>
      <trkpt lat="46.18743" lon="-1.32433">
        <ele>5.3356</ele>
        <time>2023-06-01T14:00:13.000Z</time>
      </trkpt>
      <trkpt lat="46.18745" lon="-1.32433">
        <ele>5.17595</ele>
        <time>2023-06-01T14:00:16.000Z</time>
      </trkpt>
      <trkpt lat="46.18748" lon="-1.32433">
        <ele>5.04466</ele>
        <time>2023-06-01T14:00:19.000Z</time>
      </trkpt>
      <trkpt lat="46.1875" lon="-1.32433">
        <ele>4.91359</ele>
        <time>2023-06-01T14:00:22.000Z</time>
      </trkpt>
      <trkpt lat="46.18752" lon="-1.32432">
        <ele>4.83678</ele>
        <time>2023-06-01T14:00:26.000Z</time>
      </trkpt>
      <trkpt lat="46.18755" lon="-1.32431">
        <ele>4.80933</ele>
        <time>2023-06-01T14:00:29.000Z</time>
      </trkpt>
      <trkpt lat="46.18757" lon="-1.3243">
        <ele>4.86592</ele>
        <time>2023-06-01T14:00:33.000Z</time>
      </trkpt>
      <trkpt lat="46.18759" lon="-1.32429">
        <ele>4.96308</ele>
        <time>2023-06-01T14:00:36.000Z</time>
      </trkpt>
      <trkpt lat="46.18761" lon="-1.32427">
        <ele>5.05064</ele>
        <time>2023-06-01T14:00:39.000Z</time>
      </trkpt>
      <trkpt lat="46.18763" lon="-1.32426">
        <ele>5.12624</ele>
        <time>2023-06-01T14:00:41.000Z</time>
      </trkpt>
      <trkpt lat="46.18766" lon="-1.32425">
        <ele>5.14038</ele>
        <time>2023-06-01T14:00:44.000Z</time>
      </trkpt>
      <trkpt lat="46.18768" lon="-1.32424">
        <ele>5.21351</ele>
        <time>2023-06-01T14:00:47.000Z</time>
      </trkpt>
      <trkpt lat="46.1877" lon="-1.32423">
        <ele>5.35377</ele>
        <time>2023-06-01T14:00:50.000Z</time>
      </trkpt>
      <trkpt lat="46.18772" lon="-1.32422">
        <ele>5.42887</ele>
        <time>2023-06-01T14:00:53.000Z</time>
      </trkpt>
      <trkpt lat="46.18773" lon="-1.32421">
        <ele>5.49784</ele>
        <time>2023-06-01T14:00:55.000Z</time>
      </trkpt>
      <trkpt lat="46.18775" lon="-1.32419">
        <ele>5.63388</ele>
        <time>2023-06-01T14:00:58.000Z</time>
      </trkpt>
      <trkpt lat="46.18775" lon="-1.32416">
        <ele>5.77752</ele>
        <time>2023-06-01T14:01:13.000Z</time>
      </trkpt>
      <trkpt lat="46.18776" lon="-1.32419">
        <ele>5.88831</ele>
        <time>2023-06-01T14:01:27.000Z</time>
      </trkpt>
      <trkpt lat="46.18778" lon="-1.3242">
        <ele>6.03813</ele>
        <time>2023-06-01T14:03:57.000Z</time>
      </trkpt>
      <trkpt lat="46.18781" lon="-1.3242">
        <ele>6.09345</ele>
        <time>2023-06-01T14:04:00.000Z</time>
      </trkpt>
      <trkpt lat="46.18779" lon="-1.32419">
        <ele>6.08856</ele>
        <time>2023-06-01T14:04:05.000Z</time>
      </trkpt>
      <trkpt lat="46.18779" lon="-1.32416">
        <ele>6.02472</ele>
        <time>2023-06-01T14:04:15.000Z</time>
      </trkpt>
      <trkpt lat="46.18779" lon="-1.32419">
        <ele>5.87262</ele>
        <time>2023-06-01T14:04:32.000Z</time>
      </trkpt>
      <trkpt lat="46.1878" lon="-1.32417">
        <ele>5.69748</ele>
        <time>2023-06-01T14:07:47.000Z</time>
      </trkpt>
      <trkpt lat="46.1878" lon="-1.32415">
        <ele>5.49106</ele>
        <time>2023-06-01T14:10:06.000Z</time>
      </trkpt>
      <trkpt lat="46.18778" lon="-1.32413">
        <ele>5.23069</ele>
        <time>2023-06-01T14:12:47.000Z</time>
      </trkpt>
      <trkpt lat="46.18776" lon="-1.32413">
        <ele>4.95057</ele>
        <time>2023-06-01T14:12:50.000Z</time>
      </trkpt>
      <trkpt lat="46.18775" lon="-1.32413">
        <ele>4.6538</ele>
        <time>2023-06-01T14:12:56.000Z</time>
      </trkpt>
      <trkpt lat="46.18772" lon="-1.32414">
        <ele>4.45214</ele>
        <time>2023-06-01T14:13:32.000Z</time>
      </trkpt>
      <trkpt lat="46.1877" lon="-1.32416">
        <ele>4.25185</ele>
        <time>2023-06-01T14:13:36.000Z</time>
      </trkpt>
      <trkpt lat="46.18769" lon="-1.32418">
        <ele>4.10501</ele>
        <time>2023-06-01T14:13:39.000Z</time>
      </trkpt>
      <trkpt lat="46.18767" lon="-1.32418">
        <ele>3.95306</ele>
        <time>2023-06-01T14:13:42.000Z</time>
      </trkpt>
      <trkpt lat="46.18765" lon="-1.32419">
        <ele>3.81176</ele>
        <time>2023-06-01T14:13:45.000Z</time>
      </trkpt>
      <trkpt lat="46.18762" lon="-1.3242">
        <ele>3.66932</ele>
        <time>2023-06-01T14:13:48.000Z</time>
      </trkpt>
      <trkpt lat="46.1876" lon="-1.3242">
        <ele>3.51548</ele>
        <time>2023-06-01T14:13:50.000Z</time>
      </trkpt>
      <trkpt lat="46.18758" lon="-1.32422">
        <ele>3.3422</ele>
        <time>2023-06-01T14:13:52.000Z</time>
      </trkpt>
      <trkpt lat="46.18757" lon="-1.32423">
        <ele>3.21818</ele>
        <time>2023-06-01T14:13:54.000Z</time>
      </trkpt>
      <trkpt lat="46.18755" lon="-1.32426">
        <ele>3.12946</ele>
        <time>2023-06-01T14:13:56.000Z</time>
      </trkpt>
      <trkpt lat="46.18754" lon="-1.32427">
        <ele>2.94527</ele>
        <time>2023-06-01T14:13:58.000Z</time>
      </trkpt>
      <trkpt lat="46.18752" lon="-1.32429">
        <ele>2.90059</ele>
        <time>2023-06-01T14:14:01.000Z</time>
      </trkpt>
      <trkpt lat="46.18749" lon="-1.3243">
        <ele>2.8467</ele>
        <time>2023-06-01T14:14:04.000Z</time>
      </trkpt>
      <trkpt lat="46.18748" lon="-1.32431">
        <ele>2.84986</ele>
        <time>2023-06-01T14:14:06.000Z</time>
      </trkpt>
      <trkpt lat="46.18745" lon="-1.32432">
        <ele>2.92227</ele>
        <time>2023-06-01T14:14:09.000Z</time>
      </trkpt>
      <trkpt lat="46.18743" lon="-1.3243">
        <ele>3.05584</ele>
        <time>2023-06-01T14:14:13.000Z</time>
      </trkpt>
      <trkpt lat="46.18742" lon="-1.32427">
        <ele>3.22911</ele>
        <time>2023-06-01T14:14:16.000Z</time>
      </trkpt>
      <trkpt lat="46.18739" lon="-1.32426">
        <ele>3.46012</ele>
        <time>2023-06-01T14:14:19.000Z</time>
      </trkpt>
      <trkpt lat="46.18737" lon="-1.32424">
        <ele>3.64181</ele>
        <time>2023-06-01T14:14:22.000Z</time>
      </trkpt>
      <trkpt lat="46.18736" lon="-1.32422">
        <ele>3.83346</ele>
        <time>2023-06-01T14:14:24.000Z</time>
      </trkpt>
      <trkpt lat="46.18736" lon="-1.32419">
        <ele>4.02403</ele>
        <time>2023-06-01T14:14:27.000Z</time>
      </trkpt>
      <trkpt lat="46.18736" lon="-1.32416">
        <ele>4.21414</ele>
        <time>2023-06-01T14:14:29.000Z</time>
      </trkpt>
      <trkpt lat="46.18736" lon="-1.32413">
        <ele>4.36674</ele>
        <time>2023-06-01T14:14:31.000Z</time>
      </trkpt>
      <trkpt lat="46.18735" lon="-1.32409">
        <ele>4.48894</ele>
        <time>2023-06-01T14:14:33.000Z</time>
      </trkpt>
      <trkpt lat="46.18735" lon="-1.32406">
        <ele>4.59103</ele>
        <time>2023-06-01T14:14:35.000Z</time>
      </trkpt>
      <trkpt lat="46.18734" lon="-1.32403">
        <ele>4.68329</ele>
        <time>2023-06-01T14:14:37.000Z</time>
      </trkpt>
      <trkpt lat="46.18733" lon="-1.32401">
        <ele>4.77649</ele>
        <time>2023-06-01T14:14:39.000Z</time>
      </trkpt>
      <trkpt lat="46.18731" lon="-1.32398">
        <ele>4.88874</ele>
        <time>2023-06-01T14:14:41.000Z</time>
      </trkpt>
      <trkpt lat="46.1873" lon="-1.32396">
        <ele>4.97349</ele>
        <time>2023-06-01T14:14:43.000Z</time>
      </trkpt>
      <trkpt lat="46.18729" lon="-1.32393">
        <ele>5.02479</ele>
        <time>2023-06-01T14:14:45.000Z</time>
      </trkpt>
      <trkpt lat="46.18728" lon="-1.3239">
        <ele>5.13626</ele>
        <time>2023-06-01T14:14:47.000Z</time>
      </trkpt>
      <trkpt lat="46.18727" lon="-1.32386">
        <ele>5.1997</ele>
        <time>2023-06-01T14:14:50.000Z</time>
      </trkpt>
      <trkpt lat="46.18725" lon="-1.32384">
        <ele>5.2201</ele>
        <time>2023-06-01T14:14:52.000Z</time>
      </trkpt>
      <trkpt lat="46.18724" lon="-1.32382">
        <ele>5.24311</ele>
        <time>2023-06-01T14:14:54.000Z</time>
      </trkpt>
      <trkpt lat="46.18724" lon="-1.32379">
        <ele>5.27058</ele>
        <time>2023-06-01T14:14:56.000Z</time>
      </trkpt>
      <trkpt lat="46.18725" lon="-1.32377">
        <ele>5.23321</ele>
        <time>2023-06-01T14:14:58.000Z</time>
      </trkpt>
      <trkpt lat="46.18726" lon="-1.32374">
        <ele>5.16519</ele>
        <time>2023-06-01T14:15:00.000Z</time>
      </trkpt>
      <trkpt lat="46.18728" lon="-1.32372">
        <ele>5.05626</ele>
        <time>2023-06-01T14:15:02.000Z</time>
      </trkpt>
      <trkpt lat="46.1873" lon="-1.3237">
        <ele>4.93454</ele>
        <time>2023-06-01T14:15:04.000Z</time>
      </trkpt>
      <trkpt lat="46.18731" lon="-1.32368">
        <ele>4.81189</ele>
        <time>2023-06-01T14:15:06.000Z</time>
      </trkpt>
      <trkpt lat="46.18733" lon="-1.32367">
        <ele>4.65058</ele>
        <time>2023-06-01T14:15:08.000Z</time>
      </trkpt>
      <trkpt lat="46.18735" lon="-1.32365">
        <ele>4.49693</ele>
        <time>2023-06-01T14:15:11.000Z</time>
      </trkpt>
      <trkpt lat="46.18734" lon="-1.32363">
        <ele>4.33565</ele>
        <time>2023-06-01T14:15:14.000Z</time>
      </trkpt>
      <trkpt lat="46.18733" lon="-1.32361">
        <ele>4.16858</ele>
        <time>2023-06-01T14:16:07.000Z</time>
      </trkpt>
      <trkpt lat="46.18734" lon="-1.32363">
        <ele>4.06325</ele>
        <time>2023-06-01T14:16:24.000Z</time>
      </trkpt>
      <trkpt lat="46.18734" lon="-1.32363">
        <ele>4.06325</ele>
        <time>2023-06-01T14:16:24.000Z</time>
      </trkpt>
      <trkpt lat="46.18731" lon="-1.32364">
        <ele>3.99089</ele>
        <time>2023-06-01T14:17:57.000Z</time>
      </trkpt>
      <trkpt lat="46.18731" lon="-1.32364">
        <ele>3.99089</ele>
        <time>2023-06-01T14:17:57.000Z</time>
      </trkpt>
      <trkpt lat="46.18729" lon="-1.32365">
        <ele>3.93857</ele>
        <time>2023-06-01T14:17:59.000Z</time>
      </trkpt>
      <trkpt lat="46.18725" lon="-1.32366">
        <ele>3.85945</ele>
        <time>2023-06-01T14:18:01.000Z</time>
      </trkpt>
      <trkpt lat="46.18724" lon="-1.32367">
        <ele>3.77779</ele>
        <time>2023-06-01T14:18:02.000Z</time>
      </trkpt>
      <trkpt lat="46.18722" lon="-1.32368">
        <ele>3.65577</ele>
        <time>2023-06-01T14:18:03.000Z</time>
      </trkpt>
      <trkpt lat="46.18721" lon="-1.32371">
        <ele>3.5398</ele>
        <time>2023-06-01T14:18:04.000Z</time>
      </trkpt>
      <trkpt lat="46.18721" lon="-1.32374">
        <ele>3.44576</ele>
        <time>2023-06-01T14:18:05.000Z</time>
      </trkpt>
      <trkpt lat="46.18721" lon="-1.32376">
        <ele>3.40956</ele>
        <time>2023-06-01T14:18:06.000Z</time>
      </trkpt>
      <trkpt lat="46.18722" lon="-1.32379">
        <ele>3.38314</ele>
        <time>2023-06-01T14:18:07.000Z</time>
      </trkpt>
      <trkpt lat="46.18722" lon="-1.32382">
        <ele>3.35971</ele>
        <time>2023-06-01T14:18:08.000Z</time>
      </trkpt>
      <trkpt lat="46.18723" lon="-1.32385">
        <ele>3.33386</ele>
        <time>2023-06-01T14:18:09.000Z</time>
      </trkpt>
      <trkpt lat="46.18724" lon="-1.32387">
        <ele>3.32338</ele>
        <time>2023-06-01T14:18:10.000Z</time>
      </trkpt>
      <trkpt lat="46.18726" lon="-1.32391">
        <ele>3.30735</ele>
        <time>2023-06-01T14:18:12.000Z</time>
      </trkpt>
      <trkpt lat="46.18727" lon="-1.32395">
        <ele>3.28946</ele>
        <time>2023-06-01T14:18:14.000Z</time>
      </trkpt>
      <trkpt lat="46.18729" lon="-1.324">
        <ele>3.25505</ele>
        <time>2023-06-01T14:18:16.000Z</time>
      </trkpt>
      <trkpt lat="46.18729" lon="-1.32403">
        <ele>3.21095</ele>
        <time>2023-06-01T14:18:17.000Z</time>
      </trkpt>
      <trkpt lat="46.1873" lon="-1.32406">
        <ele>3.16648</ele>
        <time>2023-06-01T14:18:18.000Z</time>
      </trkpt>
      <trkpt lat="46.1873" lon="-1.32409">
        <ele>3.17955</ele>
        <time>2023-06-01T14:18:19.000Z</time>
      </trkpt>
      <trkpt lat="46.18731" lon="-1.32413">
        <ele>3.22404</ele>
        <time>2023-06-01T14:18:21.000Z</time>
      </trkpt>
      <trkpt lat="46.18732" lon="-1.32417">
        <ele>3.23587</ele>
        <time>2023-06-01T14:18:23.000Z</time>
      </trkpt>
      <trkpt lat="46.18733" lon="-1.32421">
        <ele>3.20906</ele>
        <time>2023-06-01T14:18:25.000Z</time>
      </trkpt>
      <trkpt lat="46.18735" lon="-1.32426">
        <ele>3.19653</ele>
        <time>2023-06-01T14:18:27.000Z</time>
      </trkpt>
      <trkpt lat="46.18736" lon="-1.32429">
        <ele>3.18436</ele>
        <time>2023-06-01T14:18:28.000Z</time>
      </trkpt>
      <trkpt lat="46.18737" lon="-1.32432">
        <ele>3.1944</ele>
        <time>2023-06-01T14:18:29.000Z</time>
      </trkpt>
      <trkpt lat="46.18738" lon="-1.32434">
        <ele>3.24356</ele>
        <time>2023-06-01T14:18:30.000Z</time>
      </trkpt>
      <trkpt lat="46.1874" lon="-1.32436">
        <ele>3.26896</ele>
        <time>2023-06-01T14:18:31.000Z</time>
      </trkpt>
      <trkpt lat="46.18742" lon="-1.32438">
        <ele>3.18291</ele>
        <time>2023-06-01T14:18:32.000Z</time>
      </trkpt>
      <trkpt lat="46.18744" lon="-1.32439">
        <ele>3.02518</ele>
        <time>2023-06-01T14:18:33.000Z</time>
      </trkpt>
      <trkpt lat="46.18747" lon="-1.3244">
        <ele>2.94246</ele>
        <time>2023-06-01T14:18:34.000Z</time>
      </trkpt>
      <trkpt lat="46.1875" lon="-1.3244">
        <ele>2.88399</ele>
        <time>2023-06-01T14:18:35.000Z</time>
      </trkpt>
      <trkpt lat="46.18752" lon="-1.3244">
        <ele>2.811</ele>
        <time>2023-06-01T14:18:36.000Z</time>
      </trkpt>
      <trkpt lat="46.18754" lon="-1.32439">
        <ele>2.73729</ele>
        <time>2023-06-01T14:18:37.000Z</time>
      </trkpt>
      <trkpt lat="46.18756" lon="-1.32438">
        <ele>2.68489</ele>
        <time>2023-06-01T14:18:38.000Z</time>
      </trkpt>
      <trkpt lat="46.18758" lon="-1.32436">
        <ele>2.65191</ele>
        <time>2023-06-01T14:18:39.000Z</time>
      </trkpt>
      <trkpt lat="46.1876" lon="-1.32434">
        <ele>2.62414</ele>
        <time>2023-06-01T14:18:40.000Z</time>
      </trkpt>
      <trkpt lat="46.18762" lon="-1.32433">
        <ele>2.60402</ele>
        <time>2023-06-01T14:18:41.000Z</time>
      </trkpt>
      <trkpt lat="46.18764" lon="-1.32433">
        <ele>2.57528</ele>
        <time>2023-06-01T14:18:42.000Z</time>
      </trkpt>
      <trkpt lat="46.18767" lon="-1.32432">
        <ele>2.56456</ele>
        <time>2023-06-01T14:18:43.000Z</time>
      </trkpt>
      <trkpt lat="46.18769" lon="-1.3243">
        <ele>2.54513</ele>
        <time>2023-06-01T14:18:44.000Z</time>
      </trkpt>
      <trkpt lat="46.18771" lon="-1.32429">
        <ele>2.50911</ele>
        <time>2023-06-01T14:18:45.000Z</time>
      </trkpt>
      <trkpt lat="46.18774" lon="-1.32428">
        <ele>2.48169</ele>
        <time>2023-06-01T14:18:46.000Z</time>
      </trkpt>
      <trkpt lat="46.18776" lon="-1.32427">
        <ele>2.45892</ele>
        <time>2023-06-01T14:18:47.000Z</time>
      </trkpt>
      <trkpt lat="46.18779" lon="-1.32425">
        <ele>2.41061</ele>
        <time>2023-06-01T14:18:48.000Z</time>
      </trkpt>
      <trkpt lat="46.18781" lon="-1.32424">
        <ele>2.35584</ele>
        <time>2023-06-01T14:18:49.000Z</time>
      </trkpt>
      <trkpt lat="46.18783" lon="-1.32423">
        <ele>2.31195</ele>
        <time>2023-06-01T14:18:50.000Z</time>
      </trkpt>
      <trkpt lat="46.18785" lon="-1.32423">
        <ele>2.27191</ele>
        <time>2023-06-01T14:18:51.000Z</time>
      </trkpt>
      <trkpt lat="46.18788" lon="-1.32423">
        <ele>2.33396</ele>
        <time>2023-06-01T14:18:53.000Z</time>
      </trkpt>
      <trkpt lat="46.18791" lon="-1.32423">
        <ele>2.46679</ele>
        <time>2023-06-01T14:18:54.000Z</time>
      </trkpt>
      <trkpt lat="46.18793" lon="-1.32423">
        <ele>2.49172</ele>
        <time>2023-06-01T14:18:55.000Z</time>
      </trkpt>
      <trkpt lat="46.18795" lon="-1.32423">
        <ele>2.50379</ele>
        <time>2023-06-01T14:18:56.000Z</time>
      </trkpt>
      <trkpt lat="46.18797" lon="-1.32424">
        <ele>2.53115</ele>
        <time>2023-06-01T14:18:57.000Z</time>
      </trkpt>
      <trkpt lat="46.18799" lon="-1.32423">
        <ele>2.54117</ele>
        <time>2023-06-01T14:18:58.000Z</time>
      </trkpt>
      <trkpt lat="46.18802" lon="-1.32423">
        <ele>2.54687</ele>
        <time>2023-06-01T14:18:59.000Z</time>
      </trkpt>
      <trkpt lat="46.18804" lon="-1.32423">
        <ele>2.53556</ele>
        <time>2023-06-01T14:19:00.000Z</time>
      </trkpt>
      <trkpt lat="46.18806" lon="-1.32423">
        <ele>2.51984</ele>
        <time>2023-06-01T14:19:01.000Z</time>
      </trkpt>
      <trkpt lat="46.18808" lon="-1.32424">
        <ele>2.49559</ele>
        <time>2023-06-01T14:19:02.000Z</time>
      </trkpt>
      <trkpt lat="46.1881" lon="-1.32426">
        <ele>2.4755</ele>
        <time>2023-06-01T14:19:03.000Z</time>
      </trkpt>
      <trkpt lat="46.18812" lon="-1.32428">
        <ele>2.4314</ele>
        <time>2023-06-01T14:19:04.000Z</time>
      </trkpt>
      <trkpt lat="46.18814" lon="-1.32432">
        <ele>2.40933</ele>
        <time>2023-06-01T14:19:05.000Z</time>
      </trkpt>
      <trkpt lat="46.18816" lon="-1.32435">
        <ele>2.41797</ele>
        <time>2023-06-01T14:19:06.000Z</time>
      </trkpt>
      <trkpt lat="46.18817" lon="-1.32439">
        <ele>2.42238</ele>
        <time>2023-06-01T14:19:07.000Z</time>
      </trkpt>
      <trkpt lat="46.18819" lon="-1.32442">
        <ele>2.44021</ele>
        <time>2023-06-01T14:19:08.000Z</time>
      </trkpt>
      <trkpt lat="46.18821" lon="-1.32446">
        <ele>2.47619</ele>
        <time>2023-06-01T14:19:09.000Z</time>
      </trkpt>
      <trkpt lat="46.18823" lon="-1.32451">
        <ele>2.50856</ele>
        <time>2023-06-01T14:19:10.000Z</time>
      </trkpt>
      <trkpt lat="46.18825" lon="-1.32455">
        <ele>2.54668</ele>
        <time>2023-06-01T14:19:11.000Z</time>
      </trkpt>
      <trkpt lat="46.18826" lon="-1.32459">
        <ele>2.59573</ele>
        <time>2023-06-01T14:19:12.000Z</time>
      </trkpt>
      <trkpt lat="46.18828" lon="-1.32464">
        <ele>2.64505</ele>
        <time>2023-06-01T14:19:13.000Z</time>
      </trkpt>
      <trkpt lat="46.1883" lon="-1.32468">
        <ele>2.67779</ele>
        <time>2023-06-01T14:19:14.000Z</time>
      </trkpt>
      <trkpt lat="46.18832" lon="-1.32472">
        <ele>2.7374</ele>
        <time>2023-06-01T14:19:15.000Z</time>
      </trkpt>
      <trkpt lat="46.18834" lon="-1.32477">
        <ele>2.77731</ele>
        <time>2023-06-01T14:19:16.000Z</time>
      </trkpt>
      <trkpt lat="46.18835" lon="-1.32481">
        <ele>2.82462</ele>
        <time>2023-06-01T14:19:17.000Z</time>
      </trkpt>
      <trkpt lat="46.18837" lon="-1.32486">
        <ele>2.90144</ele>
        <time>2023-06-01T14:19:18.000Z</time>
      </trkpt>
      <trkpt lat="46.18838" lon="-1.3249">
        <ele>2.96874</ele>
        <time>2023-06-01T14:19:19.000Z</time>
      </trkpt>
      <trkpt lat="46.1884" lon="-1.32494">
        <ele>3.0489</ele>
        <time>2023-06-01T14:19:20.000Z</time>
      </trkpt>
      <trkpt lat="46.18842" lon="-1.32497">
        <ele>3.12565</ele>
        <time>2023-06-01T14:19:21.000Z</time>
      </trkpt>
      <trkpt lat="46.18843" lon="-1.32501">
        <ele>3.18445</ele>
        <time>2023-06-01T14:19:22.000Z</time>
      </trkpt>
      <trkpt lat="46.18845" lon="-1.32504">
        <ele>3.23553</ele>
        <time>2023-06-01T14:19:23.000Z</time>
      </trkpt>
      <trkpt lat="46.18847" lon="-1.32507">
        <ele>3.29075</ele>
        <time>2023-06-01T14:19:24.000Z</time>
      </trkpt>
      <trkpt lat="46.18849" lon="-1.32511">
        <ele>3.32083</ele>
        <time>2023-06-01T14:19:25.000Z</time>
      </trkpt>
      <trkpt lat="46.1885" lon="-1.32515">
        <ele>3.31984</ele>
        <time>2023-06-01T14:19:26.000Z</time>
      </trkpt>
      <trkpt lat="46.18852" lon="-1.32518">
        <ele>3.34001</ele>
        <time>2023-06-01T14:19:27.000Z</time>
      </trkpt>
      <trkpt lat="46.18854" lon="-1.32522">
        <ele>3.34374</ele>
        <time>2023-06-01T14:19:28.000Z</time>
      </trkpt>
      <trkpt lat="46.18856" lon="-1.32526">
        <ele>3.34176</ele>
        <time>2023-06-01T14:19:29.000Z</time>
      </trkpt>
      <trkpt lat="46.18857" lon="-1.3253">
        <ele>3.33791</ele>
        <time>2023-06-01T14:19:30.000Z</time>
      </trkpt>
      <trkpt lat="46.18859" lon="-1.32534">
        <ele>3.35079</ele>
        <time>2023-06-01T14:19:31.000Z</time>
      </trkpt>
      <trkpt lat="46.1886" lon="-1.32538">
        <ele>3.38261</ele>
        <time>2023-06-01T14:19:32.000Z</time>
      </trkpt>
      <trkpt lat="46.18862" lon="-1.32541">
        <ele>3.4296</ele>
        <time>2023-06-01T14:19:33.000Z</time>
      </trkpt>
      <trkpt lat="46.18864" lon="-1.32544">
        <ele>3.48149</ele>
        <time>2023-06-01T14:19:34.000Z</time>
      </trkpt>
      <trkpt lat="46.18867" lon="-1.32547">
        <ele>3.54141</ele>
        <time>2023-06-01T14:19:35.000Z</time>
      </trkpt>
      <trkpt lat="46.18869" lon="-1.32551">
        <ele>3.6068</ele>
        <time>2023-06-01T14:19:36.000Z</time>
      </trkpt>
      <trkpt lat="46.1887" lon="-1.32555">
        <ele>3.67111</ele>
        <time>2023-06-01T14:19:37.000Z</time>
      </trkpt>
      <trkpt lat="46.18872" lon="-1.32559">
        <ele>3.71702</ele>
        <time>2023-06-01T14:19:38.000Z</time>
      </trkpt>
      <trkpt lat="46.18874" lon="-1.32563">
        <ele>3.74545</ele>
        <time>2023-06-01T14:19:39.000Z</time>
      </trkpt>
      <trkpt lat="46.18876" lon="-1.32566">
        <ele>3.80131</ele>
        <time>2023-06-01T14:19:40.000Z</time>
      </trkpt>
      <trkpt lat="46.18878" lon="-1.32569">
        <ele>3.85696</ele>
        <time>2023-06-01T14:19:41.000Z</time>
      </trkpt>
      <trkpt lat="46.1888" lon="-1.32573">
        <ele>3.91736</ele>
        <time>2023-06-01T14:19:42.000Z</time>
      </trkpt>
      <trkpt lat="46.18882" lon="-1.32577">
        <ele>3.98492</ele>
        <time>2023-06-01T14:19:43.000Z</time>
      </trkpt>
      <trkpt lat="46.18884" lon="-1.32582">
        <ele>4.03845</ele>
        <time>2023-06-01T14:19:44.000Z</time>
      </trkpt>
      <trkpt lat="46.18886" lon="-1.32586">
        <ele>4.1053</ele>
        <time>2023-06-01T14:19:45.000Z</time>
      </trkpt>
      <trkpt lat="46.18887" lon="-1.32591">
        <ele>4.21359</ele>
        <time>2023-06-01T14:19:46.000Z</time>
      </trkpt>
      <trkpt lat="46.18889" lon="-1.32595">
        <ele>4.31636</ele>
        <time>2023-06-01T14:19:47.000Z</time>
      </trkpt>
      <trkpt lat="46.18891" lon="-1.32599">
        <ele>4.40945</ele>
        <time>2023-06-01T14:19:48.000Z</time>
      </trkpt>
      <trkpt lat="46.18894" lon="-1.32604">
        <ele>4.5173</ele>
        <time>2023-06-01T14:19:49.000Z</time>
      </trkpt>
      <trkpt lat="46.18896" lon="-1.32608">
        <ele>4.63779</ele>
        <time>2023-06-01T14:19:50.000Z</time>
      </trkpt>
      <trkpt lat="46.18898" lon="-1.32613">
        <ele>4.74728</ele>
        <time>2023-06-01T14:19:51.000Z</time>
      </trkpt>
      <trkpt lat="46.189" lon="-1.32618">
        <ele>4.8324</ele>
        <time>2023-06-01T14:19:52.000Z</time>
      </trkpt>
      <trkpt lat="46.18903" lon="-1.32622">
        <ele>4.90994</ele>
        <time>2023-06-01T14:19:53.000Z</time>
      </trkpt>
      <trkpt lat="46.18905" lon="-1.32627">
        <ele>4.99391</ele>
        <time>2023-06-01T14:19:54.000Z</time>
      </trkpt>
      <trkpt lat="46.18907" lon="-1.32631">
        <ele>5.0581</ele>
        <time>2023-06-01T14:19:55.000Z</time>
      </trkpt>
      <trkpt lat="46.1891" lon="-1.32635">
        <ele>5.11297</ele>
        <time>2023-06-01T14:19:56.000Z</time>
      </trkpt>
      <trkpt lat="46.18913" lon="-1.3264">
        <ele>5.15197</ele>
        <time>2023-06-01T14:19:57.000Z</time>
      </trkpt>
      <trkpt lat="46.18915" lon="-1.32644">
        <ele>5.18808</ele>
        <time>2023-06-01T14:19:58.000Z</time>
      </trkpt>
      <trkpt lat="46.18918" lon="-1.32647">
        <ele>5.28867</ele>
        <time>2023-06-01T14:19:59.000Z</time>
      </trkpt>
      <trkpt lat="46.1892" lon="-1.3265">
        <ele>5.37704</ele>
        <time>2023-06-01T14:20:00.000Z</time>
      </trkpt>
      <trkpt lat="46.18922" lon="-1.32655">
        <ele>5.50109</ele>
        <time>2023-06-01T14:20:01.000Z</time>
      </trkpt>
      <trkpt lat="46.18924" lon="-1.32659">
        <ele>5.55541</ele>
        <time>2023-06-01T14:20:02.000Z</time>
      </trkpt>
      <trkpt lat="46.18927" lon="-1.32663">
        <ele>5.59753</ele>
        <time>2023-06-01T14:20:03.000Z</time>
      </trkpt>
      <trkpt lat="46.18929" lon="-1.32667">
        <ele>5.60547</ele>
        <time>2023-06-01T14:20:04.000Z</time>
      </trkpt>
      <trkpt lat="46.18932" lon="-1.32672">
        <ele>5.6062</ele>
        <time>2023-06-01T14:20:05.000Z</time>
      </trkpt>
      <trkpt lat="46.18935" lon="-1.32676">
        <ele>5.60418</ele>
        <time>2023-06-01T14:20:06.000Z</time>
      </trkpt>
      <trkpt lat="46.18937" lon="-1.3268">
        <ele>5.56801</ele>
        <time>2023-06-01T14:20:07.000Z</time>
      </trkpt>
      <trkpt lat="46.1894" lon="-1.32684">
        <ele>5.54243</ele>
        <time>2023-06-01T14:20:08.000Z</time>
      </trkpt>
      <trkpt lat="46.18943" lon="-1.32689">
        <ele>5.52539</ele>
        <time>2023-06-01T14:20:09.000Z</time>
      </trkpt>
      <trkpt lat="46.18946" lon="-1.32693">
        <ele>5.46803</ele>
        <time>2023-06-01T14:20:10.000Z</time>
      </trkpt>
      <trkpt lat="46.18948" lon="-1.32697">
        <ele>5.4129</ele>
        <time>2023-06-01T14:20:11.000Z</time>
      </trkpt>
      <trkpt lat="46.18951" lon="-1.32702">
        <ele>5.35568</ele>
        <time>2023-06-01T14:20:12.000Z</time>
      </trkpt>
      <trkpt lat="46.18954" lon="-1.32706">
        <ele>5.30376</ele>
        <time>2023-06-01T14:20:13.000Z</time>
      </trkpt>
      <trkpt lat="46.18957" lon="-1.32711">
        <ele>5.25522</ele>
        <time>2023-06-01T14:20:14.000Z</time>
      </trkpt>
      <trkpt lat="46.18959" lon="-1.32716">
        <ele>5.22906</ele>
        <time>2023-06-01T14:20:15.000Z</time>
      </trkpt>
      <trkpt lat="46.18962" lon="-1.32721">
        <ele>5.21112</ele>
        <time>2023-06-01T14:20:16.000Z</time>
      </trkpt>
      <trkpt lat="46.18965" lon="-1.32725">
        <ele>5.2171</ele>
        <time>2023-06-01T14:20:17.000Z</time>
      </trkpt>
      <trkpt lat="46.18967" lon="-1.3273">
        <ele>5.2342</ele>
        <time>2023-06-01T14:20:18.000Z</time>
      </trkpt>
      <trkpt lat="46.1897" lon="-1.32734">
        <ele>5.20016</ele>
        <time>2023-06-01T14:20:19.000Z</time>
      </trkpt>
      <trkpt lat="46.18973" lon="-1.32738">
        <ele>5.14977</ele>
        <time>2023-06-01T14:20:20.000Z</time>
      </trkpt>
      <trkpt lat="46.18976" lon="-1.32742">
        <ele>5.04819</ele>
        <time>2023-06-01T14:20:21.000Z</time>
      </trkpt>
      <trkpt lat="46.18979" lon="-1.32747">
        <ele>5.02837</ele>
        <time>2023-06-01T14:20:22.000Z</time>
      </trkpt>
      <trkpt lat="46.18982" lon="-1.32751">
        <ele>5.00999</ele>
        <time>2023-06-01T14:20:23.000Z</time>
      </trkpt>
      <trkpt lat="46.18985" lon="-1.32756">
        <ele>5.01766</ele>
        <time>2023-06-01T14:20:24.000Z</time>
      </trkpt>
      <trkpt lat="46.18988" lon="-1.3276">
        <ele>5.01686</ele>
        <time>2023-06-01T14:20:25.000Z</time>
      </trkpt>
      <trkpt lat="46.18992" lon="-1.32766">
        <ele>4.99597</ele>
        <time>2023-06-01T14:20:26.000Z</time>
      </trkpt>
      <trkpt lat="46.18995" lon="-1.32771">
        <ele>4.97732</ele>
        <time>2023-06-01T14:20:27.000Z</time>
      </trkpt>
      <trkpt lat="46.18998" lon="-1.32776">
        <ele>4.94383</ele>
        <time>2023-06-01T14:20:28.000Z</time>
      </trkpt>
      <trkpt lat="46.19001" lon="-1.32781">
        <ele>4.91628</ele>
        <time>2023-06-01T14:20:29.000Z</time>
      </trkpt>
      <trkpt lat="46.19004" lon="-1.32786">
        <ele>4.91094</ele>
        <time>2023-06-01T14:20:30.000Z</time>
      </trkpt>
      <trkpt lat="46.19007" lon="-1.3279">
        <ele>4.9038</ele>
        <time>2023-06-01T14:20:31.000Z</time>
      </trkpt>
      <trkpt lat="46.1901" lon="-1.32795">
        <ele>4.91582</ele>
        <time>2023-06-01T14:20:32.000Z</time>
      </trkpt>
      <trkpt lat="46.19013" lon="-1.32799">
        <ele>4.92195</ele>
        <time>2023-06-01T14:20:33.000Z</time>
      </trkpt>
      <trkpt lat="46.19016" lon="-1.32803">
        <ele>4.9108</ele>
        <time>2023-06-01T14:20:34.000Z</time>
      </trkpt>
      <trkpt lat="46.19018" lon="-1.32807">
        <ele>4.88114</ele>
        <time>2023-06-01T14:20:35.000Z</time>
      </trkpt>
      <trkpt lat="46.1902" lon="-1.3281">
        <ele>4.863</ele>
        <time>2023-06-01T14:20:36.000Z</time>
      </trkpt>
      <trkpt lat="46.19022" lon="-1.32813">
        <ele>4.7949</ele>
        <time>2023-06-01T14:20:37.000Z</time>
      </trkpt>
      <trkpt lat="46.19024" lon="-1.32816">
        <ele>4.69945</ele>
        <time>2023-06-01T14:20:38.000Z</time>
      </trkpt>
      <trkpt lat="46.19025" lon="-1.32818">
        <ele>4.64423</ele>
        <time>2023-06-01T14:20:39.000Z</time>
      </trkpt>
      <trkpt lat="46.19027" lon="-1.32821">
        <ele>4.60712</ele>
        <time>2023-06-01T14:20:40.000Z</time>
      </trkpt>
      <trkpt lat="46.19029" lon="-1.32825">
        <ele>4.58832</ele>
        <time>2023-06-01T14:20:41.000Z</time>
      </trkpt>
      <trkpt lat="46.1903" lon="-1.32827">
        <ele>4.64308</ele>
        <time>2023-06-01T14:20:42.000Z</time>
      </trkpt>
      <trkpt lat="46.19033" lon="-1.3283">
        <ele>4.7227</ele>
        <time>2023-06-01T14:20:43.000Z</time>
      </trkpt>
      <trkpt lat="46.19035" lon="-1.32834">
        <ele>4.8315</ele>
        <time>2023-06-01T14:20:44.000Z</time>
      </trkpt>
      <trkpt lat="46.19037" lon="-1.32837">
        <ele>4.89762</ele>
        <time>2023-06-01T14:20:45.000Z</time>
      </trkpt>
      <trkpt lat="46.1904" lon="-1.3284">
        <ele>4.97032</ele>
        <time>2023-06-01T14:20:46.000Z</time>
      </trkpt>
      <trkpt lat="46.19042" lon="-1.32844">
        <ele>5.04848</ele>
        <time>2023-06-01T14:20:47.000Z</time>
      </trkpt>
      <trkpt lat="46.19045" lon="-1.32848">
        <ele>5.14688</ele>
        <time>2023-06-01T14:20:48.000Z</time>
      </trkpt>
      <trkpt lat="46.19047" lon="-1.32851">
        <ele>5.18209</ele>
        <time>2023-06-01T14:20:49.000Z</time>
      </trkpt>
      <trkpt lat="46.1905" lon="-1.32854">
        <ele>5.22658</ele>
        <time>2023-06-01T14:20:50.000Z</time>
      </trkpt>
      <trkpt lat="46.19053" lon="-1.32858">
        <ele>5.24635</ele>
        <time>2023-06-01T14:20:51.000Z</time>
      </trkpt>
      <trkpt lat="46.19056" lon="-1.32863">
        <ele>5.23899</ele>
        <time>2023-06-01T14:20:52.000Z</time>
      </trkpt>
      <trkpt lat="46.19058" lon="-1.32867">
        <ele>5.26128</ele>
        <time>2023-06-01T14:20:53.000Z</time>
      </trkpt>
      <trkpt lat="46.1906" lon="-1.32871">
        <ele>5.29017</ele>
        <time>2023-06-01T14:20:54.000Z</time>
      </trkpt>
      <trkpt lat="46.19063" lon="-1.32875">
        <ele>5.30709</ele>
        <time>2023-06-01T14:20:55.000Z</time>
      </trkpt>
      <trkpt lat="46.19066" lon="-1.32878">
        <ele>5.37466</ele>
        <time>2023-06-01T14:20:56.000Z</time>
      </trkpt>
      <trkpt lat="46.19069" lon="-1.32882">
        <ele>5.50445</ele>
        <time>2023-06-01T14:20:57.000Z</time>
      </trkpt>
      <trkpt lat="46.19071" lon="-1.32886">
        <ele>5.55013</ele>
        <time>2023-06-01T14:20:58.000Z</time>
      </trkpt>
      <trkpt lat="46.19074" lon="-1.32891">
        <ele>5.55096</ele>
        <time>2023-06-01T14:20:59.000Z</time>
      </trkpt>
      <trkpt lat="46.19076" lon="-1.32894">
        <ele>5.54164</ele>
        <time>2023-06-01T14:21:00.000Z</time>
      </trkpt>
      <trkpt lat="46.19079" lon="-1.32899">
        <ele>5.51162</ele>
        <time>2023-06-01T14:21:01.000Z</time>
      </trkpt>
      <trkpt lat="46.19081" lon="-1.32903">
        <ele>5.40106</ele>
        <time>2023-06-01T14:21:02.000Z</time>
      </trkpt>
      <trkpt lat="46.19084" lon="-1.32907">
        <ele>5.28029</ele>
        <time>2023-06-01T14:21:03.000Z</time>
      </trkpt>
      <trkpt lat="46.19086" lon="-1.32911">
        <ele>5.13944</ele>
        <time>2023-06-01T14:21:04.000Z</time>
      </trkpt>
      <trkpt lat="46.19089" lon="-1.32915">
        <ele>5.04199</ele>
        <time>2023-06-01T14:21:05.000Z</time>
      </trkpt>
      <trkpt lat="46.19091" lon="-1.3292">
        <ele>4.93419</ele>
        <time>2023-06-01T14:21:06.000Z</time>
      </trkpt>
      <trkpt lat="46.19094" lon="-1.32924">
        <ele>4.84255</ele>
        <time>2023-06-01T14:21:07.000Z</time>
      </trkpt>
      <trkpt lat="46.19097" lon="-1.32928">
        <ele>4.74205</ele>
        <time>2023-06-01T14:21:08.000Z</time>
      </trkpt>
      <trkpt lat="46.19101" lon="-1.32931">
        <ele>4.69593</ele>
        <time>2023-06-01T14:21:09.000Z</time>
      </trkpt>
      <trkpt lat="46.19103" lon="-1.32935">
        <ele>4.63298</ele>
        <time>2023-06-01T14:21:10.000Z</time>
      </trkpt>
      <trkpt lat="46.19106" lon="-1.3294">
        <ele>4.58566</ele>
        <time>2023-06-01T14:21:11.000Z</time>
      </trkpt>
      <trkpt lat="46.19108" lon="-1.32944">
        <ele>4.51198</ele>
        <time>2023-06-01T14:21:12.000Z</time>
      </trkpt>
      <trkpt lat="46.1911" lon="-1.32949">
        <ele>4.5016</ele>
        <time>2023-06-01T14:21:13.000Z</time>
      </trkpt>
      <trkpt lat="46.19112" lon="-1.32954">
        <ele>4.47372</ele>
        <time>2023-06-01T14:21:14.000Z</time>
      </trkpt>
      <trkpt lat="46.19113" lon="-1.32959">
        <ele>4.45827</ele>
        <time>2023-06-01T14:21:15.000Z</time>
      </trkpt>
      <trkpt lat="46.19113" lon="-1.32964">
        <ele>4.39136</ele>
        <time>2023-06-01T14:21:16.000Z</time>
      </trkpt>
      <trkpt lat="46.19114" lon="-1.3297">
        <ele>4.29929</ele>
        <time>2023-06-01T14:21:17.000Z</time>
      </trkpt>
      <trkpt lat="46.19114" lon="-1.32976">
        <ele>4.30203</ele>
        <time>2023-06-01T14:21:18.000Z</time>
      </trkpt>
      <trkpt lat="46.19114" lon="-1.32982">
        <ele>4.31111</ele>
        <time>2023-06-01T14:21:19.000Z</time>
      </trkpt>
      <trkpt lat="46.19112" lon="-1.32988">
        <ele>4.29495</ele>
        <time>2023-06-01T14:21:20.000Z</time>
      </trkpt>
      <trkpt lat="46.19111" lon="-1.32994">
        <ele>4.29549</ele>
        <time>2023-06-01T14:21:21.000Z</time>
      </trkpt>
      <trkpt lat="46.19109" lon="-1.32999">
        <ele>4.28951</ele>
        <time>2023-06-01T14:21:22.000Z</time>
      </trkpt>
      <trkpt lat="46.19108" lon="-1.33006">
        <ele>4.3229</ele>
        <time>2023-06-01T14:21:23.000Z</time>
      </trkpt>
      <trkpt lat="46.19106" lon="-1.33012">
        <ele>4.35812</ele>
        <time>2023-06-01T14:21:24.000Z</time>
      </trkpt>
      <trkpt lat="46.19103" lon="-1.33016">
        <ele>4.40345</ele>
        <time>2023-06-01T14:21:25.000Z</time>
      </trkpt>
      <trkpt lat="46.191" lon="-1.33022">
        <ele>4.48861</ele>
        <time>2023-06-01T14:21:26.000Z</time>
      </trkpt>
      <trkpt lat="46.19099" lon="-1.33028">
        <ele>4.57244</ele>
        <time>2023-06-01T14:21:27.000Z</time>
      </trkpt>
      <trkpt lat="46.19097" lon="-1.33035">
        <ele>4.65919</ele>
        <time>2023-06-01T14:21:28.000Z</time>
      </trkpt>
      <trkpt lat="46.19095" lon="-1.3304">
        <ele>4.72843</ele>
        <time>2023-06-01T14:21:29.000Z</time>
      </trkpt>
      <trkpt lat="46.19093" lon="-1.33045">
        <ele>4.80888</ele>
        <time>2023-06-01T14:21:30.000Z</time>
      </trkpt>
      <trkpt lat="46.19091" lon="-1.33049">
        <ele>4.81807</ele>
        <time>2023-06-01T14:21:31.000Z</time>
      </trkpt>
      <trkpt lat="46.1909" lon="-1.33053">
        <ele>4.87531</ele>
        <time>2023-06-01T14:21:32.000Z</time>
      </trkpt>
      <trkpt lat="46.19088" lon="-1.33057">
        <ele>4.83633</ele>
        <time>2023-06-01T14:21:33.000Z</time>
      </trkpt>
      <trkpt lat="46.19087" lon="-1.33059">
        <ele>4.76741</ele>
        <time>2023-06-01T14:21:34.000Z</time>
      </trkpt>
      <trkpt lat="46.19087" lon="-1.33063">
        <ele>4.68604</ele>
        <time>2023-06-01T14:21:35.000Z</time>
      </trkpt>
      <trkpt lat="46.19087" lon="-1.33067">
        <ele>4.61389</ele>
        <time>2023-06-01T14:21:36.000Z</time>
      </trkpt>
      <trkpt lat="46.19086" lon="-1.33071">
        <ele>4.52758</ele>
        <time>2023-06-01T14:21:37.000Z</time>
      </trkpt>
      <trkpt lat="46.19084" lon="-1.33076">
        <ele>4.43494</ele>
        <time>2023-06-01T14:21:38.000Z</time>
      </trkpt>
      <trkpt lat="46.19083" lon="-1.33081">
        <ele>4.36085</ele>
        <time>2023-06-01T14:21:39.000Z</time>
      </trkpt>
      <trkpt lat="46.19082" lon="-1.33086">
        <ele>4.31012</ele>
        <time>2023-06-01T14:21:40.000Z</time>
      </trkpt>
      <trkpt lat="46.19081" lon="-1.33092">
        <ele>4.26456</ele>
        <time>2023-06-01T14:21:41.000Z</time>
      </trkpt>
      <trkpt lat="46.1908" lon="-1.33098">
        <ele>4.20063</ele>
        <time>2023-06-01T14:21:42.000Z</time>
      </trkpt>
      <trkpt lat="46.19079" lon="-1.33103">
        <ele>4.11151</ele>
        <time>2023-06-01T14:21:43.000Z</time>
      </trkpt>
      <trkpt lat="46.19078" lon="-1.33109">
        <ele>4.00563</ele>
        <time>2023-06-01T14:21:44.000Z</time>
      </trkpt>
      <trkpt lat="46.19077" lon="-1.33115">
        <ele>3.89553</ele>
        <time>2023-06-01T14:21:45.000Z</time>
      </trkpt>
      <trkpt lat="46.19076" lon="-1.3312">
        <ele>3.78954</ele>
        <time>2023-06-01T14:21:46.000Z</time>
      </trkpt>
      <trkpt lat="46.19075" lon="-1.33126">
        <ele>3.69734</ele>
        <time>2023-06-01T14:21:47.000Z</time>
      </trkpt>
      <trkpt lat="46.19074" lon="-1.33132">
        <ele>3.62094</ele>
        <time>2023-06-01T14:21:48.000Z</time>
      </trkpt>
      <trkpt lat="46.19073" lon="-1.33138">
        <ele>3.56639</ele>
        <time>2023-06-01T14:21:49.000Z</time>
      </trkpt>
      <trkpt lat="46.19072" lon="-1.33144">
        <ele>3.4892</ele>
        <time>2023-06-01T14:21:50.000Z</time>
      </trkpt>
      <trkpt lat="46.19072" lon="-1.3315">
        <ele>3.50068</ele>
        <time>2023-06-01T14:21:51.000Z</time>
      </trkpt>
      <trkpt lat="46.19071" lon="-1.33156">
        <ele>3.52308</ele>
        <time>2023-06-01T14:21:52.000Z</time>
      </trkpt>
      <trkpt lat="46.19071" lon="-1.33162">
        <ele>3.56384</ele>
        <time>2023-06-01T14:21:53.000Z</time>
      </trkpt>
      <trkpt lat="46.19072" lon="-1.33168">
        <ele>3.5531</ele>
        <time>2023-06-01T14:21:54.000Z</time>
      </trkpt>
      <trkpt lat="46.19072" lon="-1.33174">
        <ele>3.57906</ele>
        <time>2023-06-01T14:21:55.000Z</time>
      </trkpt>
      <trkpt lat="46.19073" lon="-1.3318">
        <ele>3.60345</ele>
        <time>2023-06-01T14:21:56.000Z</time>
      </trkpt>
      <trkpt lat="46.19074" lon="-1.33186">
        <ele>3.6592</ele>
        <time>2023-06-01T14:21:57.000Z</time>
      </trkpt>
      <trkpt lat="46.19076" lon="-1.33192">
        <ele>3.70879</ele>
        <time>2023-06-01T14:21:58.000Z</time>
      </trkpt>
      <trkpt lat="46.19077" lon="-1.33197">
        <ele>3.74858</ele>
        <time>2023-06-01T14:21:59.000Z</time>
      </trkpt>
      <trkpt lat="46.19079" lon="-1.33202">
        <ele>3.76043</ele>
        <time>2023-06-01T14:22:00.000Z</time>
      </trkpt>
      <trkpt lat="46.1908" lon="-1.33208">
        <ele>3.73737</ele>
        <time>2023-06-01T14:22:01.000Z</time>
      </trkpt>
      <trkpt lat="46.19082" lon="-1.33213">
        <ele>3.7396</ele>
        <time>2023-06-01T14:22:02.000Z</time>
      </trkpt>
      <trkpt lat="46.19083" lon="-1.33219">
        <ele>3.73903</ele>
        <time>2023-06-01T14:22:03.000Z</time>
      </trkpt>
      <trkpt lat="46.19084" lon="-1.33224">
        <ele>3.75897</ele>
        <time>2023-06-01T14:22:04.000Z</time>
      </trkpt>
      <trkpt lat="46.19086" lon="-1.33228">
        <ele>3.75159</ele>
        <time>2023-06-01T14:22:05.000Z</time>
      </trkpt>
      <trkpt lat="46.19087" lon="-1.33233">
        <ele>3.68558</ele>
        <time>2023-06-01T14:22:06.000Z</time>
      </trkpt>
      <trkpt lat="46.19088" lon="-1.33238">
        <ele>3.60234</ele>
        <time>2023-06-01T14:22:07.000Z</time>
      </trkpt>
      <trkpt lat="46.19089" lon="-1.33243">
        <ele>3.54938</ele>
        <time>2023-06-01T14:22:08.000Z</time>
      </trkpt>
      <trkpt lat="46.1909" lon="-1.33248">
        <ele>3.5006</ele>
        <time>2023-06-01T14:22:09.000Z</time>
      </trkpt>
      <trkpt lat="46.19091" lon="-1.33254">
        <ele>3.48586</ele>
        <time>2023-06-01T14:22:10.000Z</time>
      </trkpt>
      <trkpt lat="46.19091" lon="-1.33259">
        <ele>3.46137</ele>
        <time>2023-06-01T14:22:11.000Z</time>
      </trkpt>
      <trkpt lat="46.19092" lon="-1.33265">
        <ele>3.32588</ele>
        <time>2023-06-01T14:22:12.000Z</time>
      </trkpt>
      <trkpt lat="46.19092" lon="-1.3327">
        <ele>3.19656</ele>
        <time>2023-06-01T14:22:13.000Z</time>
      </trkpt>
      <trkpt lat="46.19092" lon="-1.33276">
        <ele>3.17735</ele>
        <time>2023-06-01T14:22:14.000Z</time>
      </trkpt>
      <trkpt lat="46.19092" lon="-1.33281">
        <ele>3.15139</ele>
        <time>2023-06-01T14:22:15.000Z</time>
      </trkpt>
      <trkpt lat="46.19091" lon="-1.33287">
        <ele>3.12226</ele>
        <time>2023-06-01T14:22:16.000Z</time>
      </trkpt>
      <trkpt lat="46.19091" lon="-1.33292">
        <ele>3.07318</ele>
        <time>2023-06-01T14:22:17.000Z</time>
      </trkpt>
      <trkpt lat="46.1909" lon="-1.33298">
        <ele>3.03123</ele>
        <time>2023-06-01T14:22:18.000Z</time>
      </trkpt>
      <trkpt lat="46.19089" lon="-1.33304">
        <ele>2.97463</ele>
        <time>2023-06-01T14:22:19.000Z</time>
      </trkpt>
      <trkpt lat="46.19088" lon="-1.3331">
        <ele>2.95505</ele>
        <time>2023-06-01T14:22:20.000Z</time>
      </trkpt>
      <trkpt lat="46.19087" lon="-1.33315">
        <ele>2.97598</ele>
        <time>2023-06-01T14:22:21.000Z</time>
      </trkpt>
      <trkpt lat="46.19086" lon="-1.3332">
        <ele>2.98892</ele>
        <time>2023-06-01T14:22:22.000Z</time>
      </trkpt>
      <trkpt lat="46.19084" lon="-1.33324">
        <ele>2.98839</ele>
        <time>2023-06-01T14:22:23.000Z</time>
      </trkpt>
      <trkpt lat="46.19083" lon="-1.33328">
        <ele>2.97851</ele>
        <time>2023-06-01T14:22:24.000Z</time>
      </trkpt>
      <trkpt lat="46.19082" lon="-1.33332">
        <ele>3.0134</ele>
        <time>2023-06-01T14:22:25.000Z</time>
      </trkpt>
      <trkpt lat="46.19081" lon="-1.33335">
        <ele>3.06406</ele>
        <time>2023-06-01T14:22:26.000Z</time>
      </trkpt>
      <trkpt lat="46.1908" lon="-1.33338">
        <ele>3.1194</ele>
        <time>2023-06-01T14:22:27.000Z</time>
      </trkpt>
      <trkpt lat="46.1908" lon="-1.33342">
        <ele>3.1292</ele>
        <time>2023-06-01T14:22:28.000Z</time>
      </trkpt>
      <trkpt lat="46.19082" lon="-1.33344">
        <ele>3.13284</ele>
        <time>2023-06-01T14:22:29.000Z</time>
      </trkpt>
      <trkpt lat="46.19084" lon="-1.33346">
        <ele>3.13811</ele>
        <time>2023-06-01T14:22:30.000Z</time>
      </trkpt>
      <trkpt lat="46.19086" lon="-1.33347">
        <ele>3.14107</ele>
        <time>2023-06-01T14:22:31.000Z</time>
      </trkpt>
      <trkpt lat="46.19089" lon="-1.33347">
        <ele>3.24319</ele>
        <time>2023-06-01T14:22:32.000Z</time>
      </trkpt>
      <trkpt lat="46.19091" lon="-1.33349">
        <ele>3.32786</ele>
        <time>2023-06-01T14:22:33.000Z</time>
      </trkpt>
      <trkpt lat="46.19094" lon="-1.33351">
        <ele>3.37358</ele>
        <time>2023-06-01T14:22:34.000Z</time>
      </trkpt>
      <trkpt lat="46.19095" lon="-1.33355">
        <ele>3.42829</ele>
        <time>2023-06-01T14:22:35.000Z</time>
      </trkpt>
      <trkpt lat="46.19095" lon="-1.33358">
        <ele>3.47123</ele>
        <time>2023-06-01T14:22:36.000Z</time>
      </trkpt>
      <trkpt lat="46.19095" lon="-1.33362">
        <ele>3.5158</ele>
        <time>2023-06-01T14:22:37.000Z</time>
      </trkpt>
      <trkpt lat="46.19095" lon="-1.33366">
        <ele>3.5789</ele>
        <time>2023-06-01T14:22:38.000Z</time>
      </trkpt>
      <trkpt lat="46.19095" lon="-1.33369">
        <ele>3.65857</ele>
        <time>2023-06-01T14:22:39.000Z</time>
      </trkpt>
      <trkpt lat="46.19096" lon="-1.33373">
        <ele>3.72246</ele>
        <time>2023-06-01T14:22:40.000Z</time>
      </trkpt>
      <trkpt lat="46.19096" lon="-1.33376">
        <ele>3.7632</ele>
        <time>2023-06-01T14:22:41.000Z</time>
      </trkpt>
      <trkpt lat="46.19097" lon="-1.33379">
        <ele>3.79965</ele>
        <time>2023-06-01T14:22:42.000Z</time>
      </trkpt>
      <trkpt lat="46.19098" lon="-1.33382">
        <ele>3.80727</ele>
        <time>2023-06-01T14:22:43.000Z</time>
      </trkpt>
      <trkpt lat="46.191" lon="-1.33385">
        <ele>3.81753</ele>
        <time>2023-06-01T14:22:44.000Z</time>
      </trkpt>
      <trkpt lat="46.19101" lon="-1.33388">
        <ele>3.80725</ele>
        <time>2023-06-01T14:22:45.000Z</time>
      </trkpt>
      <trkpt lat="46.19102" lon="-1.33391">
        <ele>3.79328</ele>
        <time>2023-06-01T14:22:46.000Z</time>
      </trkpt>
      <trkpt lat="46.19103" lon="-1.33393">
        <ele>3.77519</ele>
        <time>2023-06-01T14:22:47.000Z</time>
      </trkpt>
      <trkpt lat="46.19104" lon="-1.33396">
        <ele>3.76723</ele>
        <time>2023-06-01T14:22:48.000Z</time>
      </trkpt>
      <trkpt lat="46.19105" lon="-1.33398">
        <ele>3.73107</ele>
        <time>2023-06-01T14:22:49.000Z</time>
      </trkpt>
      <trkpt lat="46.19106" lon="-1.33401">
        <ele>3.72468</ele>
        <time>2023-06-01T14:22:50.000Z</time>
      </trkpt>
      <trkpt lat="46.19107" lon="-1.33404">
        <ele>3.70901</ele>
        <time>2023-06-01T14:22:51.000Z</time>
      </trkpt>
      <trkpt lat="46.19109" lon="-1.33407">
        <ele>3.70763</ele>
        <time>2023-06-01T14:22:52.000Z</time>
      </trkpt>
      <trkpt lat="46.1911" lon="-1.3341">
        <ele>3.6094</ele>
        <time>2023-06-01T14:22:53.000Z</time>
      </trkpt>
      <trkpt lat="46.19112" lon="-1.33414">
        <ele>3.5502</ele>
        <time>2023-06-01T14:22:54.000Z</time>
      </trkpt>
      <trkpt lat="46.19114" lon="-1.33417">
        <ele>3.4672</ele>
        <time>2023-06-01T14:22:55.000Z</time>
      </trkpt>
      <trkpt lat="46.19116" lon="-1.3342">
        <ele>3.39491</ele>
        <time>2023-06-01T14:22:56.000Z</time>
      </trkpt>
      <trkpt lat="46.19118" lon="-1.33423">
        <ele>3.33517</ele>
        <time>2023-06-01T14:22:57.000Z</time>
      </trkpt>
      <trkpt lat="46.19121" lon="-1.33425">
        <ele>3.27823</ele>
        <time>2023-06-01T14:22:58.000Z</time>
      </trkpt>
      <trkpt lat="46.19123" lon="-1.33428">
        <ele>3.22953</ele>
        <time>2023-06-01T14:22:59.000Z</time>
      </trkpt>
      <trkpt lat="46.19125" lon="-1.33432">
        <ele>3.20162</ele>
        <time>2023-06-01T14:23:00.000Z</time>
      </trkpt>
      <trkpt lat="46.19127" lon="-1.33436">
        <ele>3.2049</ele>
        <time>2023-06-01T14:23:01.000Z</time>
      </trkpt>
      <trkpt lat="46.19128" lon="-1.33439">
        <ele>3.21252</ele>
        <time>2023-06-01T14:23:02.000Z</time>
      </trkpt>
      <trkpt lat="46.19129" lon="-1.33443">
        <ele>3.2656</ele>
        <time>2023-06-01T14:23:03.000Z</time>
      </trkpt>
      <trkpt lat="46.19131" lon="-1.33447">
        <ele>3.35534</ele>
        <time>2023-06-01T14:23:04.000Z</time>
      </trkpt>
      <trkpt lat="46.19132" lon="-1.33451">
        <ele>3.46569</ele>
        <time>2023-06-01T14:23:05.000Z</time>
      </trkpt>
      <trkpt lat="46.19134" lon="-1.33455">
        <ele>3.59082</ele>
        <time>2023-06-01T14:23:06.000Z</time>
      </trkpt>
      <trkpt lat="46.19136" lon="-1.33459">
        <ele>3.71266</ele>
        <time>2023-06-01T14:23:07.000Z</time>
      </trkpt>
      <trkpt lat="46.19137" lon="-1.33464">
        <ele>3.81967</ele>
        <time>2023-06-01T14:23:08.000Z</time>
      </trkpt>
      <trkpt lat="46.19139" lon="-1.33469">
        <ele>3.86143</ele>
        <time>2023-06-01T14:23:09.000Z</time>
      </trkpt>
      <trkpt lat="46.1914" lon="-1.33474">
        <ele>3.87767</ele>
        <time>2023-06-01T14:23:10.000Z</time>
      </trkpt>
      <trkpt lat="46.19142" lon="-1.33478">
        <ele>3.88829</ele>
        <time>2023-06-01T14:23:11.000Z</time>
      </trkpt>
      <trkpt lat="46.19144" lon="-1.33483">
        <ele>3.8794</ele>
        <time>2023-06-01T14:23:12.000Z</time>
      </trkpt>
      <trkpt lat="46.19145" lon="-1.33488">
        <ele>3.96746</ele>
        <time>2023-06-01T14:23:13.000Z</time>
      </trkpt>
      <trkpt lat="46.19147" lon="-1.33492">
        <ele>4.03422</ele>
        <time>2023-06-01T14:23:14.000Z</time>
      </trkpt>
      <trkpt lat="46.19148" lon="-1.33497">
        <ele>4.09919</ele>
        <time>2023-06-01T14:23:15.000Z</time>
      </trkpt>
      <trkpt lat="46.1915" lon="-1.33502">
        <ele>4.1569</ele>
        <time>2023-06-01T14:23:16.000Z</time>
      </trkpt>
      <trkpt lat="46.19151" lon="-1.33508">
        <ele>4.20965</ele>
        <time>2023-06-01T14:23:17.000Z</time>
      </trkpt>
      <trkpt lat="46.19153" lon="-1.33513">
        <ele>4.26304</ele>
        <time>2023-06-01T14:23:18.000Z</time>
      </trkpt>
      <trkpt lat="46.19154" lon="-1.33518">
        <ele>4.3343</ele>
        <time>2023-06-01T14:23:19.000Z</time>
      </trkpt>
      <trkpt lat="46.19155" lon="-1.33524">
        <ele>4.39469</ele>
        <time>2023-06-01T14:23:20.000Z</time>
      </trkpt>
      <trkpt lat="46.19157" lon="-1.33529">
        <ele>4.44287</ele>
        <time>2023-06-01T14:23:21.000Z</time>
      </trkpt>
      <trkpt lat="46.19158" lon="-1.33535">
        <ele>4.50967</ele>
        <time>2023-06-01T14:23:22.000Z</time>
      </trkpt>
      <trkpt lat="46.19159" lon="-1.33541">
        <ele>4.47055</ele>
        <time>2023-06-01T14:23:23.000Z</time>
      </trkpt>
      <trkpt lat="46.19161" lon="-1.33547">
        <ele>4.41716</ele>
        <time>2023-06-01T14:23:24.000Z</time>
      </trkpt>
      <trkpt lat="46.19162" lon="-1.33552">
        <ele>4.35641</ele>
        <time>2023-06-01T14:23:25.000Z</time>
      </trkpt>
      <trkpt lat="46.19164" lon="-1.33558">
        <ele>4.29386</ele>
        <time>2023-06-01T14:23:26.000Z</time>
      </trkpt>
      <trkpt lat="46.19166" lon="-1.33563">
        <ele>4.2386</ele>
        <time>2023-06-01T14:23:27.000Z</time>
      </trkpt>
      <trkpt lat="46.19168" lon="-1.33567">
        <ele>4.19466</ele>
        <time>2023-06-01T14:23:28.000Z</time>
      </trkpt>
      <trkpt lat="46.19171" lon="-1.33571">
        <ele>4.24252</ele>
        <time>2023-06-01T14:23:29.000Z</time>
      </trkpt>
      <trkpt lat="46.19174" lon="-1.33574">
        <ele>4.24662</ele>
        <time>2023-06-01T14:23:30.000Z</time>
      </trkpt>
      <trkpt lat="46.19176" lon="-1.33578">
        <ele>4.23452</ele>
        <time>2023-06-01T14:23:31.000Z</time>
      </trkpt>
      <trkpt lat="46.19178" lon="-1.33582">
        <ele>4.2032</ele>
        <time>2023-06-01T14:23:32.000Z</time>
      </trkpt>
      <trkpt lat="46.19179" lon="-1.33588">
        <ele>4.16663</ele>
        <time>2023-06-01T14:23:33.000Z</time>
      </trkpt>
      <trkpt lat="46.19179" lon="-1.33593">
        <ele>4.12005</ele>
        <time>2023-06-01T14:23:34.000Z</time>
      </trkpt>
      <trkpt lat="46.19178" lon="-1.33599">
        <ele>4.07577</ele>
        <time>2023-06-01T14:23:35.000Z</time>
      </trkpt>
      <trkpt lat="46.19177" lon="-1.33605">
        <ele>4.04444</ele>
        <time>2023-06-01T14:23:36.000Z</time>
      </trkpt>
      <trkpt lat="46.19177" lon="-1.33611">
        <ele>4.03262</ele>
        <time>2023-06-01T14:23:37.000Z</time>
      </trkpt>
      <trkpt lat="46.19178" lon="-1.33617">
        <ele>4.01316</ele>
        <time>2023-06-01T14:23:38.000Z</time>
      </trkpt>
      <trkpt lat="46.19179" lon="-1.33623">
        <ele>3.9609</ele>
        <time>2023-06-01T14:23:39.000Z</time>
      </trkpt>
      <trkpt lat="46.19181" lon="-1.33629">
        <ele>3.92594</ele>
        <time>2023-06-01T14:23:40.000Z</time>
      </trkpt>
      <trkpt lat="46.19183" lon="-1.33635">
        <ele>3.90111</ele>
        <time>2023-06-01T14:23:41.000Z</time>
      </trkpt>
      <trkpt lat="46.19184" lon="-1.33641">
        <ele>3.87021</ele>
        <time>2023-06-01T14:23:42.000Z</time>
      </trkpt>
      <trkpt lat="46.19185" lon="-1.33646">
        <ele>3.92623</ele>
        <time>2023-06-01T14:23:43.000Z</time>
      </trkpt>
      <trkpt lat="46.19186" lon="-1.33652">
        <ele>3.95122</ele>
        <time>2023-06-01T14:23:44.000Z</time>
      </trkpt>
      <trkpt lat="46.19188" lon="-1.33658">
        <ele>3.96777</ele>
        <time>2023-06-01T14:23:45.000Z</time>
      </trkpt>
      <trkpt lat="46.19189" lon="-1.33663">
        <ele>3.96283</ele>
        <time>2023-06-01T14:23:46.000Z</time>
      </trkpt>
      <trkpt lat="46.1919" lon="-1.33668">
        <ele>3.94076</ele>
        <time>2023-06-01T14:23:47.000Z</time>
      </trkpt>
      <trkpt lat="46.19191" lon="-1.33674">
        <ele>3.916</ele>
        <time>2023-06-01T14:23:48.000Z</time>
      </trkpt>
      <trkpt lat="46.19193" lon="-1.33679">
        <ele>3.89495</ele>
        <time>2023-06-01T14:23:49.000Z</time>
      </trkpt>
      <trkpt lat="46.19194" lon="-1.33684">
        <ele>3.91991</ele>
        <time>2023-06-01T14:23:50.000Z</time>
      </trkpt>
      <trkpt lat="46.19195" lon="-1.3369">
        <ele>4.00189</ele>
        <time>2023-06-01T14:23:51.000Z</time>
      </trkpt>
      <trkpt lat="46.19196" lon="-1.33695">
        <ele>4.12661</ele>
        <time>2023-06-01T14:23:52.000Z</time>
      </trkpt>
      <trkpt lat="46.19197" lon="-1.33701">
        <ele>4.25582</ele>
        <time>2023-06-01T14:23:53.000Z</time>
      </trkpt>
      <trkpt lat="46.19198" lon="-1.33706">
        <ele>4.31896</ele>
        <time>2023-06-01T14:23:54.000Z</time>
      </trkpt>
      <trkpt lat="46.19199" lon="-1.33712">
        <ele>4.41078</ele>
        <time>2023-06-01T14:23:55.000Z</time>
      </trkpt>
      <trkpt lat="46.19201" lon="-1.33717">
        <ele>4.46269</ele>
        <time>2023-06-01T14:23:56.000Z</time>
      </trkpt>
      <trkpt lat="46.19202" lon="-1.33722">
        <ele>4.47532</ele>
        <time>2023-06-01T14:23:57.000Z</time>
      </trkpt>
      <trkpt lat="46.19203" lon="-1.33727">
        <ele>4.48741</ele>
        <time>2023-06-01T14:23:58.000Z</time>
      </trkpt>
      <trkpt lat="46.19205" lon="-1.33733">
        <ele>4.50774</ele>
        <time>2023-06-01T14:23:59.000Z</time>
      </trkpt>
      <trkpt lat="46.19206" lon="-1.33738">
        <ele>4.49434</ele>
        <time>2023-06-01T14:24:00.000Z</time>
      </trkpt>
      <trkpt lat="46.19207" lon="-1.33743">
        <ele>4.48376</ele>
        <time>2023-06-01T14:24:01.000Z</time>
      </trkpt>
      <trkpt lat="46.19208" lon="-1.33748">
        <ele>4.46905</ele>
        <time>2023-06-01T14:24:02.000Z</time>
      </trkpt>
      <trkpt lat="46.19209" lon="-1.33753">
        <ele>4.47176</ele>
        <time>2023-06-01T14:24:03.000Z</time>
      </trkpt>
      <trkpt lat="46.1921" lon="-1.33759">
        <ele>4.47015</ele>
        <time>2023-06-01T14:24:04.000Z</time>
      </trkpt>
      <trkpt lat="46.19211" lon="-1.33764">
        <ele>4.46011</ele>
        <time>2023-06-01T14:24:05.000Z</time>
      </trkpt>
      <trkpt lat="46.19212" lon="-1.33769">
        <ele>4.47227</ele>
        <time>2023-06-01T14:24:06.000Z</time>
      </trkpt>
      <trkpt lat="46.19213" lon="-1.33773">
        <ele>4.50693</ele>
        <time>2023-06-01T14:24:07.000Z</time>
      </trkpt>
      <trkpt lat="46.19214" lon="-1.33777">
        <ele>4.58036</ele>
        <time>2023-06-01T14:24:08.000Z</time>
      </trkpt>
      <trkpt lat="46.19215" lon="-1.33781">
        <ele>4.65226</ele>
        <time>2023-06-01T14:24:09.000Z</time>
      </trkpt>
      <trkpt lat="46.19216" lon="-1.33784">
        <ele>4.69624</ele>
        <time>2023-06-01T14:24:10.000Z</time>
      </trkpt>
      <trkpt lat="46.19217" lon="-1.33788">
        <ele>4.69904</ele>
        <time>2023-06-01T14:24:11.000Z</time>
      </trkpt>
      <trkpt lat="46.19218" lon="-1.33791">
        <ele>4.70605</ele>
        <time>2023-06-01T14:24:12.000Z</time>
      </trkpt>
      <trkpt lat="46.19218" lon="-1.33794">
        <ele>4.72189</ele>
        <time>2023-06-01T14:24:13.000Z</time>
      </trkpt>
      <trkpt lat="46.19219" lon="-1.33797">
        <ele>4.7598</ele>
        <time>2023-06-01T14:24:14.000Z</time>
      </trkpt>
      <trkpt lat="46.19219" lon="-1.338">
        <ele>4.79945</ele>
        <time>2023-06-01T14:24:15.000Z</time>
      </trkpt>
      <trkpt lat="46.19219" lon="-1.33803">
        <ele>4.84084</ele>
        <time>2023-06-01T14:24:16.000Z</time>
      </trkpt>
      <trkpt lat="46.1922" lon="-1.33806">
        <ele>4.90026</ele>
        <time>2023-06-01T14:24:17.000Z</time>
      </trkpt>
      <trkpt lat="46.19221" lon="-1.33809">
        <ele>4.96363</ele>
        <time>2023-06-01T14:24:18.000Z</time>
      </trkpt>
      <trkpt lat="46.19222" lon="-1.33813">
        <ele>4.98979</ele>
        <time>2023-06-01T14:24:19.000Z</time>
      </trkpt>
      <trkpt lat="46.19223" lon="-1.33817">
        <ele>5.06471</ele>
        <time>2023-06-01T14:24:20.000Z</time>
      </trkpt>
      <trkpt lat="46.19224" lon="-1.33822">
        <ele>5.14966</ele>
        <time>2023-06-01T14:24:21.000Z</time>
      </trkpt>
      <trkpt lat="46.19224" lon="-1.33826">
        <ele>5.16724</ele>
        <time>2023-06-01T14:24:22.000Z</time>
      </trkpt>
      <trkpt lat="46.19225" lon="-1.3383">
        <ele>5.18164</ele>
        <time>2023-06-01T14:24:23.000Z</time>
      </trkpt>
      <trkpt lat="46.19227" lon="-1.33835">
        <ele>5.21261</ele>
        <time>2023-06-01T14:24:24.000Z</time>
      </trkpt>
      <trkpt lat="46.19228" lon="-1.33839">
        <ele>5.24517</ele>
        <time>2023-06-01T14:24:25.000Z</time>
      </trkpt>
      <trkpt lat="46.1923" lon="-1.33844">
        <ele>5.2162</ele>
        <time>2023-06-01T14:24:26.000Z</time>
      </trkpt>
      <trkpt lat="46.19231" lon="-1.33849">
        <ele>5.18988</ele>
        <time>2023-06-01T14:24:27.000Z</time>
      </trkpt>
      <trkpt lat="46.19232" lon="-1.33854">
        <ele>5.13514</ele>
        <time>2023-06-01T14:24:28.000Z</time>
      </trkpt>
      <trkpt lat="46.19233" lon="-1.33858">
        <ele>5.08468</ele>
        <time>2023-06-01T14:24:29.000Z</time>
      </trkpt>
      <trkpt lat="46.19235" lon="-1.33864">
        <ele>5.04029</ele>
        <time>2023-06-01T14:24:30.000Z</time>
      </trkpt>
      <trkpt lat="46.19236" lon="-1.33869">
        <ele>5.00918</ele>
        <time>2023-06-01T14:24:31.000Z</time>
      </trkpt>
      <trkpt lat="46.19237" lon="-1.33874">
        <ele>4.92902</ele>
        <time>2023-06-01T14:24:32.000Z</time>
      </trkpt>
      <trkpt lat="46.19239" lon="-1.33879">
        <ele>4.79358</ele>
        <time>2023-06-01T14:24:33.000Z</time>
      </trkpt>
      <trkpt lat="46.1924" lon="-1.33883">
        <ele>4.71689</ele>
        <time>2023-06-01T14:24:34.000Z</time>
      </trkpt>
      <trkpt lat="46.19241" lon="-1.33888">
        <ele>4.61096</ele>
        <time>2023-06-01T14:24:35.000Z</time>
      </trkpt>
      <trkpt lat="46.19242" lon="-1.33894">
        <ele>4.53231</ele>
        <time>2023-06-01T14:24:36.000Z</time>
      </trkpt>
      <trkpt lat="46.19243" lon="-1.33899">
        <ele>4.45385</ele>
        <time>2023-06-01T14:24:37.000Z</time>
      </trkpt>
      <trkpt lat="46.19245" lon="-1.33905">
        <ele>4.38007</ele>
        <time>2023-06-01T14:24:38.000Z</time>
      </trkpt>
      <trkpt lat="46.19246" lon="-1.3391">
        <ele>4.34763</ele>
        <time>2023-06-01T14:24:39.000Z</time>
      </trkpt>
      <trkpt lat="46.19247" lon="-1.33916">
        <ele>4.29419</ele>
        <time>2023-06-01T14:24:40.000Z</time>
      </trkpt>
      <trkpt lat="46.19248" lon="-1.33921">
        <ele>4.23051</ele>
        <time>2023-06-01T14:24:41.000Z</time>
      </trkpt>
      <trkpt lat="46.1925" lon="-1.33927">
        <ele>4.23152</ele>
        <time>2023-06-01T14:24:42.000Z</time>
      </trkpt>
      <trkpt lat="46.19251" lon="-1.33932">
        <ele>4.2231</ele>
        <time>2023-06-01T14:24:43.000Z</time>
      </trkpt>
      <trkpt lat="46.19253" lon="-1.33938">
        <ele>4.24441</ele>
        <time>2023-06-01T14:24:44.000Z</time>
      </trkpt>
      <trkpt lat="46.19254" lon="-1.33943">
        <ele>4.29595</ele>
        <time>2023-06-01T14:24:45.000Z</time>
      </trkpt>
      <trkpt lat="46.19255" lon="-1.33949">
        <ele>4.31575</ele>
        <time>2023-06-01T14:24:46.000Z</time>
      </trkpt>
      <trkpt lat="46.19256" lon="-1.33954">
        <ele>4.35446</ele>
        <time>2023-06-01T14:24:47.000Z</time>
      </trkpt>
      <trkpt lat="46.19257" lon="-1.33959">
        <ele>4.38367</ele>
        <time>2023-06-01T14:24:48.000Z</time>
      </trkpt>
      <trkpt lat="46.19259" lon="-1.33965">
        <ele>4.3946</ele>
        <time>2023-06-01T14:24:49.000Z</time>
      </trkpt>
      <trkpt lat="46.1926" lon="-1.3397">
        <ele>4.4234</ele>
        <time>2023-06-01T14:24:50.000Z</time>
      </trkpt>
      <trkpt lat="46.19261" lon="-1.33975">
        <ele>4.45771</ele>
        <time>2023-06-01T14:24:51.000Z</time>
      </trkpt>
      <trkpt lat="46.19262" lon="-1.3398">
        <ele>4.50428</ele>
        <time>2023-06-01T14:24:52.000Z</time>
      </trkpt>
      <trkpt lat="46.19263" lon="-1.33986">
        <ele>4.59048</ele>
        <time>2023-06-01T14:24:53.000Z</time>
      </trkpt>
      <trkpt lat="46.19265" lon="-1.33991">
        <ele>4.67957</ele>
        <time>2023-06-01T14:24:54.000Z</time>
      </trkpt>
      <trkpt lat="46.19266" lon="-1.33997">
        <ele>4.77179</ele>
        <time>2023-06-01T14:24:55.000Z</time>
      </trkpt>
      <trkpt lat="46.19267" lon="-1.34002">
        <ele>4.87614</ele>
        <time>2023-06-01T14:24:56.000Z</time>
      </trkpt>
      <trkpt lat="46.19268" lon="-1.34008">
        <ele>4.97726</ele>
        <time>2023-06-01T14:24:57.000Z</time>
      </trkpt>
      <trkpt lat="46.19269" lon="-1.34013">
        <ele>5.06473</ele>
        <time>2023-06-01T14:24:58.000Z</time>
      </trkpt>
      <trkpt lat="46.1927" lon="-1.34019">
        <ele>5.12961</ele>
        <time>2023-06-01T14:24:59.000Z</time>
      </trkpt>
      <trkpt lat="46.19272" lon="-1.34024">
        <ele>5.18332</ele>
        <time>2023-06-01T14:25:00.000Z</time>
      </trkpt>
      <trkpt lat="46.19273" lon="-1.34029">
        <ele>5.22808</ele>
        <time>2023-06-01T14:25:01.000Z</time>
      </trkpt>
      <trkpt lat="46.19274" lon="-1.34035">
        <ele>5.28663</ele>
        <time>2023-06-01T14:25:02.000Z</time>
      </trkpt>
      <trkpt lat="46.19275" lon="-1.3404">
        <ele>5.35017</ele>
        <time>2023-06-01T14:25:03.000Z</time>
      </trkpt>
      <trkpt lat="46.19277" lon="-1.34045">
        <ele>5.35829</ele>
        <time>2023-06-01T14:25:04.000Z</time>
      </trkpt>
      <trkpt lat="46.19278" lon="-1.3405">
        <ele>5.36227</ele>
        <time>2023-06-01T14:25:05.000Z</time>
      </trkpt>
      <trkpt lat="46.19279" lon="-1.34056">
        <ele>5.4716</ele>
        <time>2023-06-01T14:25:06.000Z</time>
      </trkpt>
      <trkpt lat="46.19281" lon="-1.34061">
        <ele>5.55225</ele>
        <time>2023-06-01T14:25:07.000Z</time>
      </trkpt>
      <trkpt lat="46.19282" lon="-1.34066">
        <ele>5.63006</ele>
        <time>2023-06-01T14:25:08.000Z</time>
      </trkpt>
      <trkpt lat="46.19283" lon="-1.34072">
        <ele>5.72642</ele>
        <time>2023-06-01T14:25:09.000Z</time>
      </trkpt>
      <trkpt lat="46.19284" lon="-1.34077">
        <ele>5.80294</ele>
        <time>2023-06-01T14:25:10.000Z</time>
      </trkpt>
      <trkpt lat="46.19286" lon="-1.34082">
        <ele>5.88276</ele>
        <time>2023-06-01T14:25:11.000Z</time>
      </trkpt>
      <trkpt lat="46.19287" lon="-1.34087">
        <ele>5.97044</ele>
        <time>2023-06-01T14:25:12.000Z</time>
      </trkpt>
      <trkpt lat="46.19288" lon="-1.34093">
        <ele>6.06624</ele>
        <time>2023-06-01T14:25:13.000Z</time>
      </trkpt>
      <trkpt lat="46.19289" lon="-1.34099">
        <ele>6.16638</ele>
        <time>2023-06-01T14:25:14.000Z</time>
      </trkpt>
      <trkpt lat="46.1929" lon="-1.34104">
        <ele>6.26102</ele>
        <time>2023-06-01T14:25:15.000Z</time>
      </trkpt>
      <trkpt lat="46.19291" lon="-1.3411">
        <ele>6.32356</ele>
        <time>2023-06-01T14:25:16.000Z</time>
      </trkpt>
      <trkpt lat="46.19292" lon="-1.34115">
        <ele>6.40567</ele>
        <time>2023-06-01T14:25:17.000Z</time>
      </trkpt>
      <trkpt lat="46.19293" lon="-1.3412">
        <ele>6.49046</ele>
        <time>2023-06-01T14:25:18.000Z</time>
      </trkpt>
      <trkpt lat="46.19294" lon="-1.34126">
        <ele>6.57309</ele>
        <time>2023-06-01T14:25:19.000Z</time>
      </trkpt>
      <trkpt lat="46.19296" lon="-1.34131">
        <ele>6.65429</ele>
        <time>2023-06-01T14:25:20.000Z</time>
      </trkpt>
      <trkpt lat="46.19297" lon="-1.34136">
        <ele>6.71421</ele>
        <time>2023-06-01T14:25:21.000Z</time>
      </trkpt>
      <trkpt lat="46.19298" lon="-1.34142">
        <ele>6.77048</ele>
        <time>2023-06-01T14:25:22.000Z</time>
      </trkpt>
      <trkpt lat="46.19299" lon="-1.34147">
        <ele>6.82292</ele>
        <time>2023-06-01T14:25:23.000Z</time>
      </trkpt>
      <trkpt lat="46.193" lon="-1.34152">
        <ele>6.89618</ele>
        <time>2023-06-01T14:25:24.000Z</time>
      </trkpt>
      <trkpt lat="46.19302" lon="-1.34157">
        <ele>6.96352</ele>
        <time>2023-06-01T14:25:25.000Z</time>
      </trkpt>
      <trkpt lat="46.19303" lon="-1.34161">
        <ele>7.00375</ele>
        <time>2023-06-01T14:25:26.000Z</time>
      </trkpt>
      <trkpt lat="46.19304" lon="-1.34166">
        <ele>7.04703</ele>
        <time>2023-06-01T14:25:27.000Z</time>
      </trkpt>
      <trkpt lat="46.19305" lon="-1.3417">
        <ele>7.10034</ele>
        <time>2023-06-01T14:25:28.000Z</time>
      </trkpt>
      <trkpt lat="46.19306" lon="-1.34174">
        <ele>7.14614</ele>
        <time>2023-06-01T14:25:29.000Z</time>
      </trkpt>
      <trkpt lat="46.19307" lon="-1.34179">
        <ele>7.19261</ele>
        <time>2023-06-01T14:25:30.000Z</time>
      </trkpt>
      <trkpt lat="46.19308" lon="-1.34184">
        <ele>7.21772</ele>
        <time>2023-06-01T14:25:31.000Z</time>
      </trkpt>
      <trkpt lat="46.19309" lon="-1.34188">
        <ele>7.26446</ele>
        <time>2023-06-01T14:25:32.000Z</time>
      </trkpt>
      <trkpt lat="46.19309" lon="-1.34193">
        <ele>7.30749</ele>
        <time>2023-06-01T14:25:33.000Z</time>
      </trkpt>
      <trkpt lat="46.19311" lon="-1.34198">
        <ele>7.38437</ele>
        <time>2023-06-01T14:25:34.000Z</time>
      </trkpt>
      <trkpt lat="46.19312" lon="-1.34203">
        <ele>7.46866</ele>
        <time>2023-06-01T14:25:35.000Z</time>
      </trkpt>
      <trkpt lat="46.19313" lon="-1.34208">
        <ele>7.56999</ele>
        <time>2023-06-01T14:25:36.000Z</time>
      </trkpt>
      <trkpt lat="46.19314" lon="-1.34213">
        <ele>7.65278</ele>
        <time>2023-06-01T14:25:37.000Z</time>
      </trkpt>
      <trkpt lat="46.19316" lon="-1.34218">
        <ele>7.72512</ele>
        <time>2023-06-01T14:25:38.000Z</time>
      </trkpt>
      <trkpt lat="46.19317" lon="-1.34222">
        <ele>7.76998</ele>
        <time>2023-06-01T14:25:39.000Z</time>
      </trkpt>
      <trkpt lat="46.19318" lon="-1.34226">
        <ele>7.81824</ele>
        <time>2023-06-01T14:25:40.000Z</time>
      </trkpt>
      <trkpt lat="46.19319" lon="-1.34231">
        <ele>7.88079</ele>
        <time>2023-06-01T14:25:41.000Z</time>
      </trkpt>
      <trkpt lat="46.1932" lon="-1.34236">
        <ele>7.91541</ele>
        <time>2023-06-01T14:25:42.000Z</time>
      </trkpt>
      <trkpt lat="46.19321" lon="-1.34241">
        <ele>7.95599</ele>
        <time>2023-06-01T14:25:43.000Z</time>
      </trkpt>
      <trkpt lat="46.19322" lon="-1.34246">
        <ele>8.00802</ele>
        <time>2023-06-01T14:25:44.000Z</time>
      </trkpt>
      <trkpt lat="46.19323" lon="-1.34251">
        <ele>8.0635</ele>
        <time>2023-06-01T14:25:45.000Z</time>
      </trkpt>
      <trkpt lat="46.19324" lon="-1.34257">
        <ele>8.1256</ele>
        <time>2023-06-01T14:25:46.000Z</time>
      </trkpt>
      <trkpt lat="46.19325" lon="-1.34262">
        <ele>8.21008</ele>
        <time>2023-06-01T14:25:47.000Z</time>
      </trkpt>
      <trkpt lat="46.19327" lon="-1.34267">
        <ele>8.29167</ele>
        <time>2023-06-01T14:25:48.000Z</time>
      </trkpt>
      <trkpt lat="46.19328" lon="-1.34272">
        <ele>8.35979</ele>
        <time>2023-06-01T14:25:49.000Z</time>
      </trkpt>
      <trkpt lat="46.19329" lon="-1.34278">
        <ele>8.41481</ele>
        <time>2023-06-01T14:25:50.000Z</time>
      </trkpt>
      <trkpt lat="46.19331" lon="-1.34283">
        <ele>8.49186</ele>
        <time>2023-06-01T14:25:51.000Z</time>
      </trkpt>
      <trkpt lat="46.19332" lon="-1.34288">
        <ele>8.5564</ele>
        <time>2023-06-01T14:25:52.000Z</time>
      </trkpt>
      <trkpt lat="46.19333" lon="-1.34294">
        <ele>8.6263</ele>
        <time>2023-06-01T14:25:53.000Z</time>
      </trkpt>
      <trkpt lat="46.19335" lon="-1.34299">
        <ele>8.63909</ele>
        <time>2023-06-01T14:25:54.000Z</time>
      </trkpt>
      <trkpt lat="46.19336" lon="-1.34305">
        <ele>8.66051</ele>
        <time>2023-06-01T14:25:55.000Z</time>
      </trkpt>
      <trkpt lat="46.19337" lon="-1.34311">
        <ele>8.66321</ele>
        <time>2023-06-01T14:25:56.000Z</time>
      </trkpt>
      <trkpt lat="46.19338" lon="-1.34316">
        <ele>8.66992</ele>
        <time>2023-06-01T14:25:57.000Z</time>
      </trkpt>
      <trkpt lat="46.19339" lon="-1.34322">
        <ele>8.68397</ele>
        <time>2023-06-01T14:25:58.000Z</time>
      </trkpt>
      <trkpt lat="46.19341" lon="-1.34327">
        <ele>8.75212</ele>
        <time>2023-06-01T14:25:59.000Z</time>
      </trkpt>
      <trkpt lat="46.19342" lon="-1.34332">
        <ele>8.79207</ele>
        <time>2023-06-01T14:26:00.000Z</time>
      </trkpt>
      <trkpt lat="46.19344" lon="-1.34338">
        <ele>8.845</ele>
        <time>2023-06-01T14:26:01.000Z</time>
      </trkpt>
      <trkpt lat="46.19345" lon="-1.34343">
        <ele>8.91391</ele>
        <time>2023-06-01T14:26:02.000Z</time>
      </trkpt>
      <trkpt lat="46.19348" lon="-1.34348">
        <ele>8.98113</ele>
        <time>2023-06-01T14:26:03.000Z</time>
      </trkpt>
      <trkpt lat="46.1935" lon="-1.34353">
        <ele>9.04056</ele>
        <time>2023-06-01T14:26:04.000Z</time>
      </trkpt>
      <trkpt lat="46.19352" lon="-1.34358">
        <ele>9.09173</ele>
        <time>2023-06-01T14:26:05.000Z</time>
      </trkpt>
      <trkpt lat="46.19354" lon="-1.34363">
        <ele>9.14018</ele>
        <time>2023-06-01T14:26:06.000Z</time>
      </trkpt>
      <trkpt lat="46.19356" lon="-1.34368">
        <ele>9.16141</ele>
        <time>2023-06-01T14:26:07.000Z</time>
      </trkpt>
      <trkpt lat="46.19358" lon="-1.34374">
        <ele>9.17562</ele>
        <time>2023-06-01T14:26:08.000Z</time>
      </trkpt>
      <trkpt lat="46.1936" lon="-1.34379">
        <ele>9.1982</ele>
        <time>2023-06-01T14:26:09.000Z</time>
      </trkpt>
      <trkpt lat="46.19361" lon="-1.34385">
        <ele>9.234</ele>
        <time>2023-06-01T14:26:10.000Z</time>
      </trkpt>
      <trkpt lat="46.19363" lon="-1.34391">
        <ele>9.22165</ele>
        <time>2023-06-01T14:26:11.000Z</time>
      </trkpt>
      <trkpt lat="46.19364" lon="-1.34396">
        <ele>9.1986</ele>
        <time>2023-06-01T14:26:12.000Z</time>
      </trkpt>
      <trkpt lat="46.19366" lon="-1.34402">
        <ele>9.17242</ele>
        <time>2023-06-01T14:26:13.000Z</time>
      </trkpt>
      <trkpt lat="46.19367" lon="-1.34408">
        <ele>9.16799</ele>
        <time>2023-06-01T14:26:14.000Z</time>
      </trkpt>
      <trkpt lat="46.19368" lon="-1.34414">
        <ele>9.12207</ele>
        <time>2023-06-01T14:26:15.000Z</time>
      </trkpt>
      <trkpt lat="46.1937" lon="-1.3442">
        <ele>9.09339</ele>
        <time>2023-06-01T14:26:16.000Z</time>
      </trkpt>
      <trkpt lat="46.19371" lon="-1.34426">
        <ele>9.06665</ele>
        <time>2023-06-01T14:26:17.000Z</time>
      </trkpt>
      <trkpt lat="46.19373" lon="-1.34432">
        <ele>9.03838</ele>
        <time>2023-06-01T14:26:18.000Z</time>
      </trkpt>
      <trkpt lat="46.19374" lon="-1.34438">
        <ele>9.01283</ele>
        <time>2023-06-01T14:26:19.000Z</time>
      </trkpt>
      <trkpt lat="46.19375" lon="-1.34444">
        <ele>9.0054</ele>
        <time>2023-06-01T14:26:20.000Z</time>
      </trkpt>
      <trkpt lat="46.19378" lon="-1.3445">
        <ele>8.98523</ele>
        <time>2023-06-01T14:26:21.000Z</time>
      </trkpt>
      <trkpt lat="46.1938" lon="-1.34456">
        <ele>8.9546</ele>
        <time>2023-06-01T14:26:22.000Z</time>
      </trkpt>
      <trkpt lat="46.19382" lon="-1.34462">
        <ele>8.93265</ele>
        <time>2023-06-01T14:26:23.000Z</time>
      </trkpt>
      <trkpt lat="46.19383" lon="-1.34469">
        <ele>8.90496</ele>
        <time>2023-06-01T14:26:24.000Z</time>
      </trkpt>
      <trkpt lat="46.19384" lon="-1.34475">
        <ele>8.86989</ele>
        <time>2023-06-01T14:26:25.000Z</time>
      </trkpt>
      <trkpt lat="46.19386" lon="-1.34481">
        <ele>8.83745</ele>
        <time>2023-06-01T14:26:26.000Z</time>
      </trkpt>
      <trkpt lat="46.19387" lon="-1.34487">
        <ele>8.82899</ele>
        <time>2023-06-01T14:26:27.000Z</time>
      </trkpt>
      <trkpt lat="46.19388" lon="-1.34492">
        <ele>8.83023</ele>
        <time>2023-06-01T14:26:28.000Z</time>
      </trkpt>
      <trkpt lat="46.1939" lon="-1.345">
        <ele>8.83218</ele>
        <time>2023-06-01T14:26:29.000Z</time>
      </trkpt>
      <trkpt lat="46.19392" lon="-1.34506">
        <ele>8.8477</ele>
        <time>2023-06-01T14:26:30.000Z</time>
      </trkpt>
      <trkpt lat="46.19394" lon="-1.34512">
        <ele>8.90113</ele>
        <time>2023-06-01T14:26:31.000Z</time>
      </trkpt>
      <trkpt lat="46.19396" lon="-1.34518">
        <ele>8.96714</ele>
        <time>2023-06-01T14:26:32.000Z</time>
      </trkpt>
      <trkpt lat="46.19398" lon="-1.34525">
        <ele>9.01655</ele>
        <time>2023-06-01T14:26:33.000Z</time>
      </trkpt>
      <trkpt lat="46.19399" lon="-1.34532">
        <ele>9.07686</ele>
        <time>2023-06-01T14:26:34.000Z</time>
      </trkpt>
      <trkpt lat="46.19402" lon="-1.34538">
        <ele>9.16161</ele>
        <time>2023-06-01T14:26:35.000Z</time>
      </trkpt>
      <trkpt lat="46.19403" lon="-1.34545">
        <ele>9.25098</ele>
        <time>2023-06-01T14:26:36.000Z</time>
      </trkpt>
      <trkpt lat="46.19405" lon="-1.34552">
        <ele>9.34276</ele>
        <time>2023-06-01T14:26:37.000Z</time>
      </trkpt>
      <trkpt lat="46.19407" lon="-1.34559">
        <ele>9.45353</ele>
        <time>2023-06-01T14:26:38.000Z</time>
      </trkpt>
      <trkpt lat="46.19409" lon="-1.34566">
        <ele>9.55031</ele>
        <time>2023-06-01T14:26:39.000Z</time>
      </trkpt>
      <trkpt lat="46.1941" lon="-1.34573">
        <ele>9.66</ele>
        <time>2023-06-01T14:26:40.000Z</time>
      </trkpt>
      <trkpt lat="46.19411" lon="-1.34579">
        <ele>9.77703</ele>
        <time>2023-06-01T14:26:41.000Z</time>
      </trkpt>
      <trkpt lat="46.19413" lon="-1.34586">
        <ele>9.91191</ele>
        <time>2023-06-01T14:26:42.000Z</time>
      </trkpt>
      <trkpt lat="46.19414" lon="-1.34593">
        <ele>10.01449</ele>
        <time>2023-06-01T14:26:43.000Z</time>
      </trkpt>
      <trkpt lat="46.19416" lon="-1.34601">
        <ele>10.13979</ele>
        <time>2023-06-01T14:26:44.000Z</time>
      </trkpt>
      <trkpt lat="46.19417" lon="-1.34608">
        <ele>10.24777</ele>
        <time>2023-06-01T14:26:45.000Z</time>
      </trkpt>
      <trkpt lat="46.19418" lon="-1.34615">
        <ele>10.32168</ele>
        <time>2023-06-01T14:26:46.000Z</time>
      </trkpt>
      <trkpt lat="46.1942" lon="-1.34623">
        <ele>10.36193</ele>
        <time>2023-06-01T14:26:47.000Z</time>
      </trkpt>
      <trkpt lat="46.19422" lon="-1.3463">
        <ele>10.41495</ele>
        <time>2023-06-01T14:26:48.000Z</time>
      </trkpt>
      <trkpt lat="46.19425" lon="-1.34636">
        <ele>10.44211</ele>
        <time>2023-06-01T14:26:49.000Z</time>
      </trkpt>
      <trkpt lat="46.19426" lon="-1.34643">
        <ele>10.48808</ele>
        <time>2023-06-01T14:26:50.000Z</time>
      </trkpt>
      <trkpt lat="46.19428" lon="-1.3465">
        <ele>10.54901</ele>
        <time>2023-06-01T14:26:51.000Z</time>
      </trkpt>
      <trkpt lat="46.19429" lon="-1.34656">
        <ele>10.6051</ele>
        <time>2023-06-01T14:26:52.000Z</time>
      </trkpt>
      <trkpt lat="46.1943" lon="-1.34663">
        <ele>10.63065</ele>
        <time>2023-06-01T14:26:53.000Z</time>
      </trkpt>
      <trkpt lat="46.19432" lon="-1.3467">
        <ele>10.64154</ele>
        <time>2023-06-01T14:26:54.000Z</time>
      </trkpt>
      <trkpt lat="46.19433" lon="-1.34676">
        <ele>10.66409</ele>
        <time>2023-06-01T14:26:55.000Z</time>
      </trkpt>
      <trkpt lat="46.19434" lon="-1.34682">
        <ele>10.69932</ele>
        <time>2023-06-01T14:26:56.000Z</time>
      </trkpt>
      <trkpt lat="46.19435" lon="-1.34688">
        <ele>10.68814</ele>
        <time>2023-06-01T14:26:57.000Z</time>
      </trkpt>
      <trkpt lat="46.19437" lon="-1.34694">
        <ele>10.64668</ele>
        <time>2023-06-01T14:26:58.000Z</time>
      </trkpt>
      <trkpt lat="46.19438" lon="-1.347">
        <ele>10.59126</ele>
        <time>2023-06-01T14:26:59.000Z</time>
      </trkpt>
      <trkpt lat="46.19439" lon="-1.34706">
        <ele>10.51048</ele>
        <time>2023-06-01T14:27:00.000Z</time>
      </trkpt>
      <trkpt lat="46.19439" lon="-1.34711">
        <ele>10.42554</ele>
        <time>2023-06-01T14:27:01.000Z</time>
      </trkpt>
      <trkpt lat="46.19437" lon="-1.34716">
        <ele>10.34394</ele>
        <time>2023-06-01T14:27:02.000Z</time>
      </trkpt>
      <trkpt lat="46.19435" lon="-1.34721">
        <ele>10.2964</ele>
        <time>2023-06-01T14:27:03.000Z</time>
      </trkpt>
      <trkpt lat="46.19434" lon="-1.34724">
        <ele>10.21686</ele>
        <time>2023-06-01T14:27:04.000Z</time>
      </trkpt>
      <trkpt lat="46.19432" lon="-1.34728">
        <ele>10.14141</ele>
        <time>2023-06-01T14:27:05.000Z</time>
      </trkpt>
      <trkpt lat="46.1943" lon="-1.34731">
        <ele>10.11127</ele>
        <time>2023-06-01T14:27:06.000Z</time>
      </trkpt>
      <trkpt lat="46.19428" lon="-1.34734">
        <ele>10.1083</ele>
        <time>2023-06-01T14:27:07.000Z</time>
      </trkpt>
      <trkpt lat="46.19425" lon="-1.34737">
        <ele>10.09472</ele>
        <time>2023-06-01T14:27:08.000Z</time>
      </trkpt>
      <trkpt lat="46.19422" lon="-1.34738">
        <ele>10.11359</ele>
        <time>2023-06-01T14:27:09.000Z</time>
      </trkpt>
      <trkpt lat="46.19418" lon="-1.34739">
        <ele>10.10486</ele>
        <time>2023-06-01T14:27:10.000Z</time>
      </trkpt>
      <trkpt lat="46.19415" lon="-1.34739">
        <ele>10.08128</ele>
        <time>2023-06-01T14:27:11.000Z</time>
      </trkpt>
      <trkpt lat="46.19412" lon="-1.34739">
        <ele>10.04464</ele>
        <time>2023-06-01T14:27:12.000Z</time>
      </trkpt>
      <trkpt lat="46.19409" lon="-1.34739">
        <ele>10.04296</ele>
        <time>2023-06-01T14:27:13.000Z</time>
      </trkpt>
      <trkpt lat="46.19406" lon="-1.3474">
        <ele>10.06181</ele>
        <time>2023-06-01T14:27:14.000Z</time>
      </trkpt>
      <trkpt lat="46.19403" lon="-1.3474">
        <ele>10.06874</ele>
        <time>2023-06-01T14:27:15.000Z</time>
      </trkpt>
      <trkpt lat="46.194" lon="-1.34741">
        <ele>10.068</ele>
        <time>2023-06-01T14:27:16.000Z</time>
      </trkpt>
      <trkpt lat="46.19397" lon="-1.34741">
        <ele>10.11676</ele>
        <time>2023-06-01T14:27:17.000Z</time>
      </trkpt>
      <trkpt lat="46.19394" lon="-1.3474">
        <ele>10.18514</ele>
        <time>2023-06-01T14:27:18.000Z</time>
      </trkpt>
      <trkpt lat="46.19391" lon="-1.34739">
        <ele>10.28149</ele>
        <time>2023-06-01T14:27:19.000Z</time>
      </trkpt>
      <trkpt lat="46.19389" lon="-1.34737">
        <ele>10.39346</ele>
        <time>2023-06-01T14:27:20.000Z</time>
      </trkpt>
      <trkpt lat="46.19388" lon="-1.34735">
        <ele>10.52203</ele>
        <time>2023-06-01T14:27:21.000Z</time>
      </trkpt>
      <trkpt lat="46.19386" lon="-1.34734">
        <ele>10.62831</ele>
        <time>2023-06-01T14:27:22.000Z</time>
      </trkpt>
      <trkpt lat="46.19384" lon="-1.34732">
        <ele>10.71169</ele>
        <time>2023-06-01T14:27:23.000Z</time>
      </trkpt>
      <trkpt lat="46.19381" lon="-1.3473">
        <ele>10.81726</ele>
        <time>2023-06-01T14:27:24.000Z</time>
      </trkpt>
      <trkpt lat="46.19378" lon="-1.34728">
        <ele>10.92532</ele>
        <time>2023-06-01T14:27:25.000Z</time>
      </trkpt>
      <trkpt lat="46.19375" lon="-1.34727">
        <ele>11.00052</ele>
        <time>2023-06-01T14:27:26.000Z</time>
      </trkpt>
      <trkpt lat="46.19371" lon="-1.3473">
        <ele>11.03858</ele>
        <time>2023-06-01T14:27:27.000Z</time>
      </trkpt>
      <trkpt lat="46.19369" lon="-1.34734">
        <ele>11.0555</ele>
        <time>2023-06-01T14:27:28.000Z</time>
      </trkpt>
      <trkpt lat="46.19368" lon="-1.3474">
        <ele>11.04735</ele>
        <time>2023-06-01T14:27:29.000Z</time>
      </trkpt>
      <trkpt lat="46.19366" lon="-1.34745">
        <ele>11.02762</ele>
        <time>2023-06-01T14:27:30.000Z</time>
      </trkpt>
      <trkpt lat="46.19365" lon="-1.3475">
        <ele>10.99762</ele>
        <time>2023-06-01T14:27:31.000Z</time>
      </trkpt>
      <trkpt lat="46.19363" lon="-1.34755">
        <ele>10.98456</ele>
        <time>2023-06-01T14:27:32.000Z</time>
      </trkpt>
      <trkpt lat="46.19362" lon="-1.3476">
        <ele>10.96249</ele>
        <time>2023-06-01T14:27:33.000Z</time>
      </trkpt>
      <trkpt lat="46.1936" lon="-1.34765">
        <ele>10.927</ele>
        <time>2023-06-01T14:27:34.000Z</time>
      </trkpt>
      <trkpt lat="46.19358" lon="-1.34769">
        <ele>10.87057</ele>
        <time>2023-06-01T14:27:35.000Z</time>
      </trkpt>
      <trkpt lat="46.19358" lon="-1.34775">
        <ele>10.81927</ele>
        <time>2023-06-01T14:27:36.000Z</time>
      </trkpt>
      <trkpt lat="46.19359" lon="-1.3478">
        <ele>10.75931</ele>
        <time>2023-06-01T14:27:37.000Z</time>
      </trkpt>
      <trkpt lat="46.1936" lon="-1.34786">
        <ele>10.70532</ele>
        <time>2023-06-01T14:27:38.000Z</time>
      </trkpt>
      <trkpt lat="46.19362" lon="-1.3479">
        <ele>10.64184</ele>
        <time>2023-06-01T14:27:39.000Z</time>
      </trkpt>
      <trkpt lat="46.19364" lon="-1.34795">
        <ele>10.57091</ele>
        <time>2023-06-01T14:27:40.000Z</time>
      </trkpt>
      <trkpt lat="46.19366" lon="-1.348">
        <ele>10.49821</ele>
        <time>2023-06-01T14:27:41.000Z</time>
      </trkpt>
      <trkpt lat="46.19368" lon="-1.34805">
        <ele>10.44495</ele>
        <time>2023-06-01T14:27:42.000Z</time>
      </trkpt>
      <trkpt lat="46.19371" lon="-1.3481">
        <ele>10.40648</ele>
        <time>2023-06-01T14:27:43.000Z</time>
      </trkpt>
      <trkpt lat="46.19373" lon="-1.34815">
        <ele>10.36404</ele>
        <time>2023-06-01T14:27:44.000Z</time>
      </trkpt>
      <trkpt lat="46.19376" lon="-1.34821">
        <ele>10.3209</ele>
        <time>2023-06-01T14:27:45.000Z</time>
      </trkpt>
      <trkpt lat="46.19378" lon="-1.34826">
        <ele>10.2927</ele>
        <time>2023-06-01T14:27:46.000Z</time>
      </trkpt>
      <trkpt lat="46.1938" lon="-1.3483">
        <ele>10.29214</ele>
        <time>2023-06-01T14:27:47.000Z</time>
      </trkpt>
      <trkpt lat="46.19382" lon="-1.34835">
        <ele>10.30207</ele>
        <time>2023-06-01T14:27:48.000Z</time>
      </trkpt>
      <trkpt lat="46.19385" lon="-1.3484">
        <ele>10.33718</ele>
        <time>2023-06-01T14:27:49.000Z</time>
      </trkpt>
      <trkpt lat="46.19387" lon="-1.34844">
        <ele>10.39079</ele>
        <time>2023-06-01T14:27:50.000Z</time>
      </trkpt>
      <trkpt lat="46.19389" lon="-1.34849">
        <ele>10.44109</ele>
        <time>2023-06-01T14:27:51.000Z</time>
      </trkpt>
      <trkpt lat="46.19391" lon="-1.34854">
        <ele>10.49148</ele>
        <time>2023-06-01T14:27:52.000Z</time>
      </trkpt>
      <trkpt lat="46.19393" lon="-1.34859">
        <ele>10.56307</ele>
        <time>2023-06-01T14:27:53.000Z</time>
      </trkpt>
      <trkpt lat="46.19395" lon="-1.34864">
        <ele>10.63129</ele>
        <time>2023-06-01T14:27:54.000Z</time>
      </trkpt>
      <trkpt lat="46.19396" lon="-1.3487">
        <ele>10.6996</ele>
        <time>2023-06-01T14:27:55.000Z</time>
      </trkpt>
      <trkpt lat="46.19397" lon="-1.34876">
        <ele>10.75722</ele>
        <time>2023-06-01T14:27:56.000Z</time>
      </trkpt>
      <trkpt lat="46.19398" lon="-1.34881">
        <ele>10.81643</ele>
        <time>2023-06-01T14:27:57.000Z</time>
      </trkpt>
      <trkpt lat="46.19398" lon="-1.34887">
        <ele>10.84148</ele>
        <time>2023-06-01T14:27:58.000Z</time>
      </trkpt>
      <trkpt lat="46.19399" lon="-1.34893">
        <ele>10.87873</ele>
        <time>2023-06-01T14:27:59.000Z</time>
      </trkpt>
      <trkpt lat="46.19399" lon="-1.34899">
        <ele>10.9073</ele>
        <time>2023-06-01T14:28:00.000Z</time>
      </trkpt>
      <trkpt lat="46.19399" lon="-1.34905">
        <ele>10.92302</ele>
        <time>2023-06-01T14:28:01.000Z</time>
      </trkpt>
      <trkpt lat="46.19399" lon="-1.34911">
        <ele>10.94604</ele>
        <time>2023-06-01T14:28:02.000Z</time>
      </trkpt>
      <trkpt lat="46.19398" lon="-1.34918">
        <ele>10.95796</ele>
        <time>2023-06-01T14:28:03.000Z</time>
      </trkpt>
      <trkpt lat="46.19398" lon="-1.34924">
        <ele>10.97881</ele>
        <time>2023-06-01T14:28:04.000Z</time>
      </trkpt>
      <trkpt lat="46.19397" lon="-1.34929">
        <ele>11.02403</ele>
        <time>2023-06-01T14:28:05.000Z</time>
      </trkpt>
      <trkpt lat="46.19397" lon="-1.34935">
        <ele>11.07568</ele>
        <time>2023-06-01T14:28:06.000Z</time>
      </trkpt>
      <trkpt lat="46.19397" lon="-1.34941">
        <ele>11.1345</ele>
        <time>2023-06-01T14:28:07.000Z</time>
      </trkpt>
      <trkpt lat="46.19396" lon="-1.34946">
        <ele>11.208</ele>
        <time>2023-06-01T14:28:08.000Z</time>
      </trkpt>
      <trkpt lat="46.19396" lon="-1.34952">
        <ele>11.28013</ele>
        <time>2023-06-01T14:28:09.000Z</time>
      </trkpt>
      <trkpt lat="46.19396" lon="-1.34957">
        <ele>11.34371</ele>
        <time>2023-06-01T14:28:10.000Z</time>
      </trkpt>
      <trkpt lat="46.19395" lon="-1.34962">
        <ele>11.41029</ele>
        <time>2023-06-01T14:28:11.000Z</time>
      </trkpt>
      <trkpt lat="46.19395" lon="-1.34966">
        <ele>11.47318</ele>
        <time>2023-06-01T14:28:12.000Z</time>
      </trkpt>
      <trkpt lat="46.19395" lon="-1.34971">
        <ele>11.52357</ele>
        <time>2023-06-01T14:28:13.000Z</time>
      </trkpt>
      <trkpt lat="46.19395" lon="-1.34976">
        <ele>11.60181</ele>
        <time>2023-06-01T14:28:14.000Z</time>
      </trkpt>
      <trkpt lat="46.19395" lon="-1.3498">
        <ele>11.69578</ele>
        <time>2023-06-01T14:28:15.000Z</time>
      </trkpt>
      <trkpt lat="46.19395" lon="-1.34984">
        <ele>11.77506</ele>
        <time>2023-06-01T14:28:16.000Z</time>
      </trkpt>
      <trkpt lat="46.19395" lon="-1.34988">
        <ele>11.84326</ele>
        <time>2023-06-01T14:28:17.000Z</time>
      </trkpt>
      <trkpt lat="46.19394" lon="-1.34991">
        <ele>11.90934</ele>
        <time>2023-06-01T14:28:18.000Z</time>
      </trkpt>
      <trkpt lat="46.19393" lon="-1.34995">
        <ele>11.93989</ele>
        <time>2023-06-01T14:28:19.000Z</time>
      </trkpt>
      <trkpt lat="46.19393" lon="-1.34999">
        <ele>11.97644</ele>
        <time>2023-06-01T14:28:20.000Z</time>
      </trkpt>
      <trkpt lat="46.19393" lon="-1.35004">
        <ele>12.01425</ele>
        <time>2023-06-01T14:28:21.000Z</time>
      </trkpt>
      <trkpt lat="46.19393" lon="-1.35008">
        <ele>12.03619</ele>
        <time>2023-06-01T14:28:22.000Z</time>
      </trkpt>
      <trkpt lat="46.19393" lon="-1.35012">
        <ele>12.07183</ele>
        <time>2023-06-01T14:28:23.000Z</time>
      </trkpt>
      <trkpt lat="46.19393" lon="-1.35017">
        <ele>12.10321</ele>
        <time>2023-06-01T14:28:24.000Z</time>
      </trkpt>
      <trkpt lat="46.19393" lon="-1.35021">
        <ele>12.11089</ele>
        <time>2023-06-01T14:28:25.000Z</time>
      </trkpt>
      <trkpt lat="46.19392" lon="-1.35025">
        <ele>12.11833</ele>
        <time>2023-06-01T14:28:26.000Z</time>
      </trkpt>
      <trkpt lat="46.19392" lon="-1.35029">
        <ele>12.10205</ele>
        <time>2023-06-01T14:28:27.000Z</time>
      </trkpt>
      <trkpt lat="46.19392" lon="-1.35034">
        <ele>12.06051</ele>
        <time>2023-06-01T14:28:28.000Z</time>
      </trkpt>
      <trkpt lat="46.19392" lon="-1.35038">
        <ele>12.01023</ele>
        <time>2023-06-01T14:28:29.000Z</time>
      </trkpt>
      <trkpt lat="46.19391" lon="-1.35042">
        <ele>11.95704</ele>
        <time>2023-06-01T14:28:30.000Z</time>
      </trkpt>
      <trkpt lat="46.19391" lon="-1.35047">
        <ele>11.91468</ele>
        <time>2023-06-01T14:28:31.000Z</time>
      </trkpt>
      <trkpt lat="46.19391" lon="-1.35051">
        <ele>11.86215</ele>
        <time>2023-06-01T14:28:32.000Z</time>
      </trkpt>
      <trkpt lat="46.1939" lon="-1.35056">
        <ele>11.8121</ele>
        <time>2023-06-01T14:28:33.000Z</time>
      </trkpt>
      <trkpt lat="46.1939" lon="-1.3506">
        <ele>11.73274</ele>
        <time>2023-06-01T14:28:34.000Z</time>
      </trkpt>
      <trkpt lat="46.1939" lon="-1.35065">
        <ele>11.63579</ele>
        <time>2023-06-01T14:28:35.000Z</time>
      </trkpt>
      <trkpt lat="46.19389" lon="-1.3507">
        <ele>11.55851</ele>
        <time>2023-06-01T14:28:36.000Z</time>
      </trkpt>
      <trkpt lat="46.19389" lon="-1.35075">
        <ele>11.50465</ele>
        <time>2023-06-01T14:28:37.000Z</time>
      </trkpt>
      <trkpt lat="46.19389" lon="-1.35079">
        <ele>11.48126</ele>
        <time>2023-06-01T14:28:38.000Z</time>
      </trkpt>
      <trkpt lat="46.19388" lon="-1.35084">
        <ele>11.48421</ele>
        <time>2023-06-01T14:28:39.000Z</time>
      </trkpt>
      <trkpt lat="46.19388" lon="-1.35089">
        <ele>11.49214</ele>
        <time>2023-06-01T14:28:40.000Z</time>
      </trkpt>
      <trkpt lat="46.19388" lon="-1.35094">
        <ele>11.5346</ele>
        <time>2023-06-01T14:28:41.000Z</time>
      </trkpt>
      <trkpt lat="46.19388" lon="-1.35099">
        <ele>11.57433</ele>
        <time>2023-06-01T14:28:42.000Z</time>
      </trkpt>
      <trkpt lat="46.19388" lon="-1.35104">
        <ele>11.59977</ele>
        <time>2023-06-01T14:28:43.000Z</time>
      </trkpt>
      <trkpt lat="46.19388" lon="-1.35109">
        <ele>11.60832</ele>
        <time>2023-06-01T14:28:44.000Z</time>
      </trkpt>
      <trkpt lat="46.19388" lon="-1.35113">
        <ele>11.61687</ele>
        <time>2023-06-01T14:28:45.000Z</time>
      </trkpt>
      <trkpt lat="46.19387" lon="-1.35118">
        <ele>11.60503</ele>
        <time>2023-06-01T14:28:46.000Z</time>
      </trkpt>
      <trkpt lat="46.19387" lon="-1.35122">
        <ele>11.60013</ele>
        <time>2023-06-01T14:28:47.000Z</time>
      </trkpt>
      <trkpt lat="46.19387" lon="-1.35127">
        <ele>11.60098</ele>
        <time>2023-06-01T14:28:48.000Z</time>
      </trkpt>
      <trkpt lat="46.19387" lon="-1.35132">
        <ele>11.63362</ele>
        <time>2023-06-01T14:28:49.000Z</time>
      </trkpt>
      <trkpt lat="46.19387" lon="-1.35136">
        <ele>11.65204</ele>
        <time>2023-06-01T14:28:50.000Z</time>
      </trkpt>
      <trkpt lat="46.19386" lon="-1.35141">
        <ele>11.68801</ele>
        <time>2023-06-01T14:28:51.000Z</time>
      </trkpt>
      <trkpt lat="46.19386" lon="-1.35145">
        <ele>11.72912</ele>
        <time>2023-06-01T14:28:52.000Z</time>
      </trkpt>
      <trkpt lat="46.19386" lon="-1.3515">
        <ele>11.77175</ele>
        <time>2023-06-01T14:28:53.000Z</time>
      </trkpt>
      <trkpt lat="46.19385" lon="-1.35154">
        <ele>11.80475</ele>
        <time>2023-06-01T14:28:54.000Z</time>
      </trkpt>
      <trkpt lat="46.19385" lon="-1.35158">
        <ele>11.84631</ele>
        <time>2023-06-01T14:28:55.000Z</time>
      </trkpt>
      <trkpt lat="46.19385" lon="-1.35162">
        <ele>11.89796</ele>
        <time>2023-06-01T14:28:56.000Z</time>
      </trkpt>
      <trkpt lat="46.19385" lon="-1.35165">
        <ele>11.92855</ele>
        <time>2023-06-01T14:28:57.000Z</time>
      </trkpt>
      <trkpt lat="46.19384" lon="-1.35168">
        <ele>11.8939</ele>
        <time>2023-06-01T14:28:58.000Z</time>
      </trkpt>
      <trkpt lat="46.19384" lon="-1.35172">
        <ele>11.83517</ele>
        <time>2023-06-01T14:28:59.000Z</time>
      </trkpt>
      <trkpt lat="46.19384" lon="-1.35175">
        <ele>11.78004</ele>
        <time>2023-06-01T14:29:00.000Z</time>
      </trkpt>
      <trkpt lat="46.19384" lon="-1.35177">
        <ele>11.67494</ele>
        <time>2023-06-01T14:29:01.000Z</time>
      </trkpt>
      <trkpt lat="46.19384" lon="-1.3518">
        <ele>11.58681</ele>
        <time>2023-06-01T14:29:02.000Z</time>
      </trkpt>
      <trkpt lat="46.19385" lon="-1.35185">
        <ele>11.53934</ele>
        <time>2023-06-01T14:29:04.000Z</time>
      </trkpt>
      <trkpt lat="46.19385" lon="-1.35188">
        <ele>11.47099</ele>
        <time>2023-06-01T14:29:05.000Z</time>
      </trkpt>
      <trkpt lat="46.19385" lon="-1.35191">
        <ele>11.41324</ele>
        <time>2023-06-01T14:29:06.000Z</time>
      </trkpt>
      <trkpt lat="46.19386" lon="-1.35194">
        <ele>11.37584</ele>
        <time>2023-06-01T14:29:07.000Z</time>
      </trkpt>
      <trkpt lat="46.19386" lon="-1.35197">
        <ele>11.29642</ele>
        <time>2023-06-01T14:29:08.000Z</time>
      </trkpt>
      <trkpt lat="46.19386" lon="-1.35199">
        <ele>11.2223</ele>
        <time>2023-06-01T14:29:09.000Z</time>
      </trkpt>
      <trkpt lat="46.19386" lon="-1.35204">
        <ele>11.13863</ele>
        <time>2023-06-01T14:29:11.000Z</time>
      </trkpt>
      <trkpt lat="46.19384" lon="-1.35207">
        <ele>11.06039</ele>
        <time>2023-06-01T14:29:13.000Z</time>
      </trkpt>
      <trkpt lat="46.19382" lon="-1.35206">
        <ele>10.95227</ele>
        <time>2023-06-01T14:29:14.000Z</time>
      </trkpt>
      <trkpt lat="46.1938" lon="-1.35203">
        <ele>10.87503</ele>
        <time>2023-06-01T14:29:15.000Z</time>
      </trkpt>
      <trkpt lat="46.19379" lon="-1.352">
        <ele>10.8035</ele>
        <time>2023-06-01T14:29:16.000Z</time>
      </trkpt>
      <trkpt lat="46.19379" lon="-1.35196">
        <ele>10.74365</ele>
        <time>2023-06-01T14:29:17.000Z</time>
      </trkpt>
      <trkpt lat="46.1938" lon="-1.35194">
        <ele>10.71963</ele>
        <time>2023-06-01T14:29:18.000Z</time>
      </trkpt>
      <trkpt lat="46.19381" lon="-1.3519">
        <ele>10.64069</ele>
        <time>2023-06-01T14:29:20.000Z</time>
      </trkpt>
      <trkpt lat="46.19382" lon="-1.35188">
        <ele>10.56185</ele>
        <time>2023-06-01T14:29:22.000Z</time>
      </trkpt>
      <trkpt lat="46.19385" lon="-1.35187">
        <ele>10.58593</ele>
        <time>2023-06-01T14:29:24.000Z</time>
      </trkpt>
      <trkpt lat="46.19386" lon="-1.35191">
        <ele>10.64685</ele>
        <time>2023-06-01T14:29:26.000Z</time>
      </trkpt>
      <trkpt lat="46.19387" lon="-1.35194">
        <ele>10.73842</ele>
        <time>2023-06-01T14:29:28.000Z</time>
      </trkpt>
      <trkpt lat="46.19388" lon="-1.35195">
        <ele>10.81382</ele>
        <time>2023-06-01T14:29:35.000Z</time>
      </trkpt>
      <trkpt lat="46.19387" lon="-1.35199">
        <ele>10.83134</ele>
        <time>2023-06-01T14:30:33.000Z</time>
      </trkpt>
      <trkpt lat="46.19385" lon="-1.35203">
        <ele>10.80113</ele>
        <time>2023-06-01T14:30:35.000Z</time>
      </trkpt>
      <trkpt lat="46.19383" lon="-1.35205">
        <ele>10.78471</ele>
        <time>2023-06-01T14:30:36.000Z</time>
      </trkpt>
      <trkpt lat="46.19383" lon="-1.35208">
        <ele>10.74129</ele>
        <time>2023-06-01T14:30:37.000Z</time>
      </trkpt>
      <trkpt lat="46.19382" lon="-1.35211">
        <ele>10.66806</ele>
        <time>2023-06-01T14:30:38.000Z</time>
      </trkpt>
      <trkpt lat="46.19382" lon="-1.35214">
        <ele>10.63807</ele>
        <time>2023-06-01T14:30:39.000Z</time>
      </trkpt>
      <trkpt lat="46.19382" lon="-1.35218">
        <ele>10.60111</ele>
        <time>2023-06-01T14:30:40.000Z</time>
      </trkpt>
      <trkpt lat="46.19382" lon="-1.35223">
        <ele>10.55419</ele>
        <time>2023-06-01T14:30:41.000Z</time>
      </trkpt>
      <trkpt lat="46.19383" lon="-1.35227">
        <ele>10.49719</ele>
        <time>2023-06-01T14:30:42.000Z</time>
      </trkpt>
      <trkpt lat="46.19383" lon="-1.35232">
        <ele>10.47573</ele>
        <time>2023-06-01T14:30:43.000Z</time>
      </trkpt>
      <trkpt lat="46.19384" lon="-1.35236">
        <ele>10.40546</ele>
        <time>2023-06-01T14:30:44.000Z</time>
      </trkpt>
      <trkpt lat="46.19384" lon="-1.35241">
        <ele>10.33342</ele>
        <time>2023-06-01T14:30:45.000Z</time>
      </trkpt>
      <trkpt lat="46.19384" lon="-1.35245">
        <ele>10.27663</ele>
        <time>2023-06-01T14:30:46.000Z</time>
      </trkpt>
      <trkpt lat="46.19385" lon="-1.3525">
        <ele>10.22111</ele>
        <time>2023-06-01T14:30:47.000Z</time>
      </trkpt>
      <trkpt lat="46.19385" lon="-1.35253">
        <ele>10.19019</ele>
        <time>2023-06-01T14:30:48.000Z</time>
      </trkpt>
      <trkpt lat="46.19385" lon="-1.35258">
        <ele>10.13766</ele>
        <time>2023-06-01T14:30:49.000Z</time>
      </trkpt>
      <trkpt lat="46.19386" lon="-1.35262">
        <ele>10.04328</ele>
        <time>2023-06-01T14:30:50.000Z</time>
      </trkpt>
      <trkpt lat="46.19386" lon="-1.35267">
        <ele>9.95373</ele>
        <time>2023-06-01T14:30:51.000Z</time>
      </trkpt>
      <trkpt lat="46.19386" lon="-1.35272">
        <ele>9.80206</ele>
        <time>2023-06-01T14:30:52.000Z</time>
      </trkpt>
      <trkpt lat="46.19386" lon="-1.35277">
        <ele>9.67553</ele>
        <time>2023-06-01T14:30:53.000Z</time>
      </trkpt>
      <trkpt lat="46.19386" lon="-1.35282">
        <ele>9.59249</ele>
        <time>2023-06-01T14:30:54.000Z</time>
      </trkpt>
      <trkpt lat="46.19386" lon="-1.35287">
        <ele>9.50808</ele>
        <time>2023-06-01T14:30:55.000Z</time>
      </trkpt>
      <trkpt lat="46.19387" lon="-1.35293">
        <ele>9.45872</ele>
        <time>2023-06-01T14:30:56.000Z</time>
      </trkpt>
      <trkpt lat="46.19387" lon="-1.35298">
        <ele>9.43017</ele>
        <time>2023-06-01T14:30:57.000Z</time>
      </trkpt>
      <trkpt lat="46.19387" lon="-1.35303">
        <ele>9.45614</ele>
        <time>2023-06-01T14:30:58.000Z</time>
      </trkpt>
      <trkpt lat="46.19387" lon="-1.35308">
        <ele>9.49865</ele>
        <time>2023-06-01T14:30:59.000Z</time>
      </trkpt>
      <trkpt lat="46.19387" lon="-1.35313">
        <ele>9.56232</ele>
        <time>2023-06-01T14:31:00.000Z</time>
      </trkpt>
      <trkpt lat="46.19387" lon="-1.35319">
        <ele>9.62556</ele>
        <time>2023-06-01T14:31:01.000Z</time>
      </trkpt>
      <trkpt lat="46.19387" lon="-1.35324">
        <ele>9.72624</ele>
        <time>2023-06-01T14:31:02.000Z</time>
      </trkpt>
      <trkpt lat="46.19387" lon="-1.35329">
        <ele>9.78235</ele>
        <time>2023-06-01T14:31:03.000Z</time>
      </trkpt>
      <trkpt lat="46.19387" lon="-1.35334">
        <ele>9.86365</ele>
        <time>2023-06-01T14:31:04.000Z</time>
      </trkpt>
      <trkpt lat="46.19388" lon="-1.35339">
        <ele>9.94839</ele>
        <time>2023-06-01T14:31:05.000Z</time>
      </trkpt>
      <trkpt lat="46.19388" lon="-1.35344">
        <ele>10.02153</ele>
        <time>2023-06-01T14:31:06.000Z</time>
      </trkpt>
      <trkpt lat="46.19388" lon="-1.35349">
        <ele>10.06894</ele>
        <time>2023-06-01T14:31:07.000Z</time>
      </trkpt>
      <trkpt lat="46.19388" lon="-1.35355">
        <ele>10.13993</ele>
        <time>2023-06-01T14:31:08.000Z</time>
      </trkpt>
      <trkpt lat="46.19389" lon="-1.35361">
        <ele>10.22953</ele>
        <time>2023-06-01T14:31:09.000Z</time>
      </trkpt>
      <trkpt lat="46.19389" lon="-1.35366">
        <ele>10.30591</ele>
        <time>2023-06-01T14:31:10.000Z</time>
      </trkpt>
      <trkpt lat="46.19389" lon="-1.35372">
        <ele>10.35005</ele>
        <time>2023-06-01T14:31:11.000Z</time>
      </trkpt>
      <trkpt lat="46.19389" lon="-1.35377">
        <ele>10.42232</ele>
        <time>2023-06-01T14:31:12.000Z</time>
      </trkpt>
      <trkpt lat="46.1939" lon="-1.35383">
        <ele>10.50613</ele>
        <time>2023-06-01T14:31:13.000Z</time>
      </trkpt>
      <trkpt lat="46.1939" lon="-1.35389">
        <ele>10.62208</ele>
        <time>2023-06-01T14:31:14.000Z</time>
      </trkpt>
      <trkpt lat="46.1939" lon="-1.35395">
        <ele>10.74858</ele>
        <time>2023-06-01T14:31:15.000Z</time>
      </trkpt>
      <trkpt lat="46.1939" lon="-1.35401">
        <ele>10.87353</ele>
        <time>2023-06-01T14:31:16.000Z</time>
      </trkpt>
      <trkpt lat="46.1939" lon="-1.35407">
        <ele>11.00617</ele>
        <time>2023-06-01T14:31:17.000Z</time>
      </trkpt>
      <trkpt lat="46.19391" lon="-1.35413">
        <ele>11.12363</ele>
        <time>2023-06-01T14:31:18.000Z</time>
      </trkpt>
      <trkpt lat="46.19391" lon="-1.35419">
        <ele>11.23489</ele>
        <time>2023-06-01T14:31:19.000Z</time>
      </trkpt>
      <trkpt lat="46.19391" lon="-1.35425">
        <ele>11.3505</ele>
        <time>2023-06-01T14:31:20.000Z</time>
      </trkpt>
      <trkpt lat="46.19392" lon="-1.35431">
        <ele>11.29009</ele>
        <time>2023-06-01T14:31:21.000Z</time>
      </trkpt>
      <trkpt lat="46.19392" lon="-1.35438">
        <ele>11.30506</ele>
        <time>2023-06-01T14:31:22.000Z</time>
      </trkpt>
      <trkpt lat="46.19393" lon="-1.35443">
        <ele>11.34454</ele>
        <time>2023-06-01T14:31:23.000Z</time>
      </trkpt>
      <trkpt lat="46.19393" lon="-1.35449">
        <ele>11.3947</ele>
        <time>2023-06-01T14:31:24.000Z</time>
      </trkpt>
      <trkpt lat="46.19393" lon="-1.35456">
        <ele>11.45297</ele>
        <time>2023-06-01T14:31:25.000Z</time>
      </trkpt>
      <trkpt lat="46.19394" lon="-1.35461">
        <ele>11.53287</ele>
        <time>2023-06-01T14:31:26.000Z</time>
      </trkpt>
      <trkpt lat="46.19394" lon="-1.35467">
        <ele>11.61424</ele>
        <time>2023-06-01T14:31:27.000Z</time>
      </trkpt>
      <trkpt lat="46.19395" lon="-1.35473">
        <ele>11.67369</ele>
        <time>2023-06-01T14:31:28.000Z</time>
      </trkpt>
      <trkpt lat="46.19395" lon="-1.35479">
        <ele>11.7481</ele>
        <time>2023-06-01T14:31:29.000Z</time>
      </trkpt>
      <trkpt lat="46.19396" lon="-1.35485">
        <ele>11.83593</ele>
        <time>2023-06-01T14:31:30.000Z</time>
      </trkpt>
      <trkpt lat="46.19396" lon="-1.35491">
        <ele>11.92297</ele>
        <time>2023-06-01T14:31:31.000Z</time>
      </trkpt>
      <trkpt lat="46.19397" lon="-1.35497">
        <ele>12.02708</ele>
        <time>2023-06-01T14:31:32.000Z</time>
      </trkpt>
      <trkpt lat="46.19397" lon="-1.35503">
        <ele>12.13824</ele>
        <time>2023-06-01T14:31:33.000Z</time>
      </trkpt>
      <trkpt lat="46.19397" lon="-1.35508">
        <ele>12.21586</ele>
        <time>2023-06-01T14:31:34.000Z</time>
      </trkpt>
      <trkpt lat="46.19398" lon="-1.35512">
        <ele>12.28032</ele>
        <time>2023-06-01T14:31:35.000Z</time>
      </trkpt>
      <trkpt lat="46.19399" lon="-1.35516">
        <ele>12.34019</ele>
        <time>2023-06-01T14:31:36.000Z</time>
      </trkpt>
      <trkpt lat="46.19399" lon="-1.35519">
        <ele>12.40478</ele>
        <time>2023-06-01T14:31:37.000Z</time>
      </trkpt>
      <trkpt lat="46.19399" lon="-1.35523">
        <ele>12.45257</ele>
        <time>2023-06-01T14:31:38.000Z</time>
      </trkpt>
      <trkpt lat="46.19399" lon="-1.35526">
        <ele>12.48905</ele>
        <time>2023-06-01T14:31:39.000Z</time>
      </trkpt>
      <trkpt lat="46.19398" lon="-1.3553">
        <ele>12.49411</ele>
        <time>2023-06-01T14:31:41.000Z</time>
      </trkpt>
      <trkpt lat="46.19399" lon="-1.35532">
        <ele>12.6696</ele>
        <time>2023-06-01T14:31:43.000Z</time>
      </trkpt>
      <trkpt lat="46.194" lon="-1.35538">
        <ele>12.73365</ele>
        <time>2023-06-01T14:31:45.000Z</time>
      </trkpt>
      <trkpt lat="46.194" lon="-1.35542">
        <ele>12.78565</ele>
        <time>2023-06-01T14:31:46.000Z</time>
      </trkpt>
      <trkpt lat="46.194" lon="-1.35547">
        <ele>12.8051</ele>
        <time>2023-06-01T14:31:47.000Z</time>
      </trkpt>
      <trkpt lat="46.194" lon="-1.35552">
        <ele>12.80988</ele>
        <time>2023-06-01T14:31:48.000Z</time>
      </trkpt>
      <trkpt lat="46.194" lon="-1.35556">
        <ele>12.77452</ele>
        <time>2023-06-01T14:31:49.000Z</time>
      </trkpt>
      <trkpt lat="46.19401" lon="-1.35561">
        <ele>12.7256</ele>
        <time>2023-06-01T14:31:50.000Z</time>
      </trkpt>
      <trkpt lat="46.19402" lon="-1.35565">
        <ele>12.6209</ele>
        <time>2023-06-01T14:31:51.000Z</time>
      </trkpt>
      <trkpt lat="46.19402" lon="-1.3557">
        <ele>12.47492</ele>
        <time>2023-06-01T14:31:52.000Z</time>
      </trkpt>
      <trkpt lat="46.19403" lon="-1.35574">
        <ele>12.3127</ele>
        <time>2023-06-01T14:31:53.000Z</time>
      </trkpt>
      <trkpt lat="46.19402" lon="-1.35578">
        <ele>12.1313</ele>
        <time>2023-06-01T14:31:54.000Z</time>
      </trkpt>
      <trkpt lat="46.19402" lon="-1.35583">
        <ele>11.9412</ele>
        <time>2023-06-01T14:31:55.000Z</time>
      </trkpt>
      <trkpt lat="46.19401" lon="-1.35587">
        <ele>11.85829</ele>
        <time>2023-06-01T14:31:56.000Z</time>
      </trkpt>
      <trkpt lat="46.19401" lon="-1.35591">
        <ele>11.74854</ele>
        <time>2023-06-01T14:31:57.000Z</time>
      </trkpt>
      <trkpt lat="46.194" lon="-1.35594">
        <ele>11.67347</ele>
        <time>2023-06-01T14:31:58.000Z</time>
      </trkpt>
      <trkpt lat="46.194" lon="-1.35598">
        <ele>11.5974</ele>
        <time>2023-06-01T14:31:59.000Z</time>
      </trkpt>
      <trkpt lat="46.19401" lon="-1.35602">
        <ele>11.49959</ele>
        <time>2023-06-01T14:32:00.000Z</time>
      </trkpt>
      <trkpt lat="46.19401" lon="-1.35606">
        <ele>11.37979</ele>
        <time>2023-06-01T14:32:01.000Z</time>
      </trkpt>
      <trkpt lat="46.19403" lon="-1.3561">
        <ele>11.31397</ele>
        <time>2023-06-01T14:32:02.000Z</time>
      </trkpt>
      <trkpt lat="46.19404" lon="-1.35613">
        <ele>11.25354</ele>
        <time>2023-06-01T14:32:03.000Z</time>
      </trkpt>
      <trkpt lat="46.19406" lon="-1.35617">
        <ele>11.22371</ele>
        <time>2023-06-01T14:32:04.000Z</time>
      </trkpt>
      <trkpt lat="46.19407" lon="-1.3562">
        <ele>11.20121</ele>
        <time>2023-06-01T14:32:05.000Z</time>
      </trkpt>
      <trkpt lat="46.19407" lon="-1.35624">
        <ele>11.21131</ele>
        <time>2023-06-01T14:32:06.000Z</time>
      </trkpt>
      <trkpt lat="46.19408" lon="-1.35628">
        <ele>11.23892</ele>
        <time>2023-06-01T14:32:07.000Z</time>
      </trkpt>
      <trkpt lat="46.19408" lon="-1.35633">
        <ele>11.26429</ele>
        <time>2023-06-01T14:32:08.000Z</time>
      </trkpt>
      <trkpt lat="46.19408" lon="-1.35637">
        <ele>11.30019</ele>
        <time>2023-06-01T14:32:09.000Z</time>
      </trkpt>
      <trkpt lat="46.19408" lon="-1.35642">
        <ele>11.31828</ele>
        <time>2023-06-01T14:32:10.000Z</time>
      </trkpt>
      <trkpt lat="46.19409" lon="-1.35646">
        <ele>11.37385</ele>
        <time>2023-06-01T14:32:11.000Z</time>
      </trkpt>
      <trkpt lat="46.19409" lon="-1.35651">
        <ele>11.48203</ele>
        <time>2023-06-01T14:32:12.000Z</time>
      </trkpt>
      <trkpt lat="46.19409" lon="-1.35656">
        <ele>11.56442</ele>
        <time>2023-06-01T14:32:13.000Z</time>
      </trkpt>
      <trkpt lat="46.19409" lon="-1.35661">
        <ele>11.69208</ele>
        <time>2023-06-01T14:32:14.000Z</time>
      </trkpt>
      <trkpt lat="46.19409" lon="-1.35665">
        <ele>11.803</ele>
        <time>2023-06-01T14:32:15.000Z</time>
      </trkpt>
      <trkpt lat="46.1941" lon="-1.3567">
        <ele>11.77199</ele>
        <time>2023-06-01T14:32:16.000Z</time>
      </trkpt>
      <trkpt lat="46.1941" lon="-1.35674">
        <ele>11.789</ele>
        <time>2023-06-01T14:32:17.000Z</time>
      </trkpt>
      <trkpt lat="46.19411" lon="-1.35679">
        <ele>11.69676</ele>
        <time>2023-06-01T14:32:18.000Z</time>
      </trkpt>
      <trkpt lat="46.19411" lon="-1.35683">
        <ele>11.57626</ele>
        <time>2023-06-01T14:32:19.000Z</time>
      </trkpt>
      <trkpt lat="46.19412" lon="-1.35688">
        <ele>11.49912</ele>
        <time>2023-06-01T14:32:20.000Z</time>
      </trkpt>
      <trkpt lat="46.19413" lon="-1.35692">
        <ele>11.46739</ele>
        <time>2023-06-01T14:32:21.000Z</time>
      </trkpt>
      <trkpt lat="46.19413" lon="-1.35696">
        <ele>11.35304</ele>
        <time>2023-06-01T14:32:22.000Z</time>
      </trkpt>
      <trkpt lat="46.19414" lon="-1.357">
        <ele>11.22415</ele>
        <time>2023-06-01T14:32:23.000Z</time>
      </trkpt>
      <trkpt lat="46.19414" lon="-1.35704">
        <ele>11.20334</ele>
        <time>2023-06-01T14:32:24.000Z</time>
      </trkpt>
      <trkpt lat="46.19414" lon="-1.35707">
        <ele>11.1804</ele>
        <time>2023-06-01T14:32:25.000Z</time>
      </trkpt>
      <trkpt lat="46.19414" lon="-1.3571">
        <ele>11.13376</ele>
        <time>2023-06-01T14:32:26.000Z</time>
      </trkpt>
      <trkpt lat="46.19414" lon="-1.35713">
        <ele>11.08148</ele>
        <time>2023-06-01T14:32:27.000Z</time>
      </trkpt>
      <trkpt lat="46.19414" lon="-1.35716">
        <ele>11.02059</ele>
        <time>2023-06-01T14:32:28.000Z</time>
      </trkpt>
      <trkpt lat="46.19415" lon="-1.35719">
        <ele>10.94246</ele>
        <time>2023-06-01T14:32:29.000Z</time>
      </trkpt>
      <trkpt lat="46.19415" lon="-1.35723">
        <ele>10.91239</ele>
        <time>2023-06-01T14:32:30.000Z</time>
      </trkpt>
      <trkpt lat="46.19415" lon="-1.35726">
        <ele>10.94953</ele>
        <time>2023-06-01T14:32:31.000Z</time>
      </trkpt>
      <trkpt lat="46.19415" lon="-1.3573">
        <ele>10.97954</ele>
        <time>2023-06-01T14:32:32.000Z</time>
      </trkpt>
      <trkpt lat="46.19416" lon="-1.35734">
        <ele>11.03177</ele>
        <time>2023-06-01T14:32:33.000Z</time>
      </trkpt>
      <trkpt lat="46.19416" lon="-1.35737">
        <ele>11.06649</ele>
        <time>2023-06-01T14:32:34.000Z</time>
      </trkpt>
      <trkpt lat="46.19417" lon="-1.35741">
        <ele>11.0897</ele>
        <time>2023-06-01T14:32:35.000Z</time>
      </trkpt>
      <trkpt lat="46.19417" lon="-1.35745">
        <ele>11.13391</ele>
        <time>2023-06-01T14:32:36.000Z</time>
      </trkpt>
      <trkpt lat="46.19417" lon="-1.35749">
        <ele>11.1634</ele>
        <time>2023-06-01T14:32:37.000Z</time>
      </trkpt>
      <trkpt lat="46.19418" lon="-1.35752">
        <ele>11.27369</ele>
        <time>2023-06-01T14:32:38.000Z</time>
      </trkpt>
      <trkpt lat="46.19418" lon="-1.35756">
        <ele>11.41568</ele>
        <time>2023-06-01T14:32:39.000Z</time>
      </trkpt>
      <trkpt lat="46.19418" lon="-1.3576">
        <ele>11.48621</ele>
        <time>2023-06-01T14:32:40.000Z</time>
      </trkpt>
      <trkpt lat="46.19418" lon="-1.35764">
        <ele>11.52728</ele>
        <time>2023-06-01T14:32:41.000Z</time>
      </trkpt>
      <trkpt lat="46.19418" lon="-1.35768">
        <ele>11.61764</ele>
        <time>2023-06-01T14:32:42.000Z</time>
      </trkpt>
      <trkpt lat="46.19419" lon="-1.35772">
        <ele>11.71904</ele>
        <time>2023-06-01T14:32:43.000Z</time>
      </trkpt>
      <trkpt lat="46.19419" lon="-1.35777">
        <ele>11.67117</ele>
        <time>2023-06-01T14:32:44.000Z</time>
      </trkpt>
      <trkpt lat="46.19419" lon="-1.35782">
        <ele>11.62972</ele>
        <time>2023-06-01T14:32:45.000Z</time>
      </trkpt>
      <trkpt lat="46.1942" lon="-1.35787">
        <ele>11.58177</ele>
        <time>2023-06-01T14:32:46.000Z</time>
      </trkpt>
      <trkpt lat="46.1942" lon="-1.35792">
        <ele>11.55268</ele>
        <time>2023-06-01T14:32:47.000Z</time>
      </trkpt>
      <trkpt lat="46.1942" lon="-1.35797">
        <ele>11.56898</ele>
        <time>2023-06-01T14:32:48.000Z</time>
      </trkpt>
      <trkpt lat="46.19419" lon="-1.35802">
        <ele>11.62471</ele>
        <time>2023-06-01T14:32:49.000Z</time>
      </trkpt>
      <trkpt lat="46.19419" lon="-1.35807">
        <ele>11.65396</ele>
        <time>2023-06-01T14:32:50.000Z</time>
      </trkpt>
      <trkpt lat="46.19419" lon="-1.35812">
        <ele>11.64199</ele>
        <time>2023-06-01T14:32:51.000Z</time>
      </trkpt>
      <trkpt lat="46.19419" lon="-1.35818">
        <ele>11.61865</ele>
        <time>2023-06-01T14:32:52.000Z</time>
      </trkpt>
      <trkpt lat="46.19418" lon="-1.35823">
        <ele>11.58772</ele>
        <time>2023-06-01T14:32:53.000Z</time>
      </trkpt>
      <trkpt lat="46.19418" lon="-1.35829">
        <ele>11.54953</ele>
        <time>2023-06-01T14:32:54.000Z</time>
      </trkpt>
      <trkpt lat="46.19418" lon="-1.35834">
        <ele>11.52711</ele>
        <time>2023-06-01T14:32:55.000Z</time>
      </trkpt>
      <trkpt lat="46.19418" lon="-1.3584">
        <ele>11.47086</ele>
        <time>2023-06-01T14:32:56.000Z</time>
      </trkpt>
      <trkpt lat="46.19418" lon="-1.35845">
        <ele>11.41229</ele>
        <time>2023-06-01T14:32:57.000Z</time>
      </trkpt>
      <trkpt lat="46.19418" lon="-1.3585">
        <ele>11.33676</ele>
        <time>2023-06-01T14:32:58.000Z</time>
      </trkpt>
      <trkpt lat="46.19418" lon="-1.35856">
        <ele>11.24034</ele>
        <time>2023-06-01T14:32:59.000Z</time>
      </trkpt>
      <trkpt lat="46.19418" lon="-1.35862">
        <ele>11.19798</ele>
        <time>2023-06-01T14:33:00.000Z</time>
      </trkpt>
      <trkpt lat="46.19417" lon="-1.35868">
        <ele>11.19584</ele>
        <time>2023-06-01T14:33:01.000Z</time>
      </trkpt>
      <trkpt lat="46.19417" lon="-1.35874">
        <ele>11.16011</ele>
        <time>2023-06-01T14:33:02.000Z</time>
      </trkpt>
      <trkpt lat="46.19417" lon="-1.3588">
        <ele>11.13033</ele>
        <time>2023-06-01T14:33:03.000Z</time>
      </trkpt>
      <trkpt lat="46.19417" lon="-1.35886">
        <ele>11.11486</ele>
        <time>2023-06-01T14:33:04.000Z</time>
      </trkpt>
      <trkpt lat="46.19416" lon="-1.35892">
        <ele>11.07353</ele>
        <time>2023-06-01T14:33:05.000Z</time>
      </trkpt>
      <trkpt lat="46.19416" lon="-1.35898">
        <ele>11.04381</ele>
        <time>2023-06-01T14:33:06.000Z</time>
      </trkpt>
      <trkpt lat="46.19415" lon="-1.35905">
        <ele>11.0053</ele>
        <time>2023-06-01T14:33:07.000Z</time>
      </trkpt>
      <trkpt lat="46.19416" lon="-1.35911">
        <ele>10.92628</ele>
        <time>2023-06-01T14:33:08.000Z</time>
      </trkpt>
      <trkpt lat="46.19416" lon="-1.35917">
        <ele>10.82555</ele>
        <time>2023-06-01T14:33:09.000Z</time>
      </trkpt>
      <trkpt lat="46.19416" lon="-1.35924">
        <ele>10.75547</ele>
        <time>2023-06-01T14:33:10.000Z</time>
      </trkpt>
      <trkpt lat="46.19416" lon="-1.3593">
        <ele>10.69209</ele>
        <time>2023-06-01T14:33:11.000Z</time>
      </trkpt>
      <trkpt lat="46.19417" lon="-1.35936">
        <ele>10.61107</ele>
        <time>2023-06-01T14:33:12.000Z</time>
      </trkpt>
      <trkpt lat="46.19417" lon="-1.35942">
        <ele>10.54112</ele>
        <time>2023-06-01T14:33:13.000Z</time>
      </trkpt>
      <trkpt lat="46.19417" lon="-1.35947">
        <ele>10.48379</ele>
        <time>2023-06-01T14:33:14.000Z</time>
      </trkpt>
      <trkpt lat="46.19417" lon="-1.35954">
        <ele>10.43941</ele>
        <time>2023-06-01T14:33:15.000Z</time>
      </trkpt>
      <trkpt lat="46.19417" lon="-1.35962">
        <ele>10.40331</ele>
        <time>2023-06-01T14:33:16.000Z</time>
      </trkpt>
      <trkpt lat="46.19417" lon="-1.35969">
        <ele>10.38546</ele>
        <time>2023-06-01T14:33:17.000Z</time>
      </trkpt>
      <trkpt lat="46.19417" lon="-1.35975">
        <ele>10.40383</ele>
        <time>2023-06-01T14:33:18.000Z</time>
      </trkpt>
      <trkpt lat="46.19417" lon="-1.35982">
        <ele>10.43387</ele>
        <time>2023-06-01T14:33:19.000Z</time>
      </trkpt>
      <trkpt lat="46.19418" lon="-1.35988">
        <ele>10.41722</ele>
        <time>2023-06-01T14:33:20.000Z</time>
      </trkpt>
      <trkpt lat="46.19418" lon="-1.35994">
        <ele>10.39291</ele>
        <time>2023-06-01T14:33:21.000Z</time>
      </trkpt>
      <trkpt lat="46.19418" lon="-1.36">
        <ele>10.40463</ele>
        <time>2023-06-01T14:33:22.000Z</time>
      </trkpt>
      <trkpt lat="46.19419" lon="-1.36006">
        <ele>10.4107</ele>
        <time>2023-06-01T14:33:23.000Z</time>
      </trkpt>
      <trkpt lat="46.19419" lon="-1.36014">
        <ele>10.42314</ele>
        <time>2023-06-01T14:33:24.000Z</time>
      </trkpt>
      <trkpt lat="46.19419" lon="-1.36022">
        <ele>10.42392</ele>
        <time>2023-06-01T14:33:25.000Z</time>
      </trkpt>
      <trkpt lat="46.19419" lon="-1.36029">
        <ele>10.42675</ele>
        <time>2023-06-01T14:33:26.000Z</time>
      </trkpt>
      <trkpt lat="46.1942" lon="-1.36035">
        <ele>10.42256</ele>
        <time>2023-06-01T14:33:27.000Z</time>
      </trkpt>
      <trkpt lat="46.19419" lon="-1.36043">
        <ele>10.39878</ele>
        <time>2023-06-01T14:33:28.000Z</time>
      </trkpt>
      <trkpt lat="46.1942" lon="-1.36049">
        <ele>10.38836</ele>
        <time>2023-06-01T14:33:29.000Z</time>
      </trkpt>
      <trkpt lat="46.1942" lon="-1.36057">
        <ele>10.34958</ele>
        <time>2023-06-01T14:33:30.000Z</time>
      </trkpt>
      <trkpt lat="46.1942" lon="-1.36064">
        <ele>10.34242</ele>
        <time>2023-06-01T14:33:31.000Z</time>
      </trkpt>
      <trkpt lat="46.19421" lon="-1.36071">
        <ele>10.34953</ele>
        <time>2023-06-01T14:33:32.000Z</time>
      </trkpt>
      <trkpt lat="46.19421" lon="-1.36078">
        <ele>10.3637</ele>
        <time>2023-06-01T14:33:33.000Z</time>
      </trkpt>
      <trkpt lat="46.19421" lon="-1.36085">
        <ele>10.37525</ele>
        <time>2023-06-01T14:33:34.000Z</time>
      </trkpt>
      <trkpt lat="46.19421" lon="-1.36092">
        <ele>10.38032</ele>
        <time>2023-06-01T14:33:35.000Z</time>
      </trkpt>
      <trkpt lat="46.19421" lon="-1.36099">
        <ele>10.41117</ele>
        <time>2023-06-01T14:33:36.000Z</time>
      </trkpt>
      <trkpt lat="46.19421" lon="-1.36106">
        <ele>10.42971</ele>
        <time>2023-06-01T14:33:37.000Z</time>
      </trkpt>
      <trkpt lat="46.19421" lon="-1.36113">
        <ele>10.44602</ele>
        <time>2023-06-01T14:33:38.000Z</time>
      </trkpt>
      <trkpt lat="46.19421" lon="-1.36121">
        <ele>10.44539</ele>
        <time>2023-06-01T14:33:39.000Z</time>
      </trkpt>
      <trkpt lat="46.1942" lon="-1.36128">
        <ele>10.48306</ele>
        <time>2023-06-01T14:33:40.000Z</time>
      </trkpt>
      <trkpt lat="46.1942" lon="-1.36136">
        <ele>10.49743</ele>
        <time>2023-06-01T14:33:41.000Z</time>
      </trkpt>
      <trkpt lat="46.1942" lon="-1.36143">
        <ele>10.5015</ele>
        <time>2023-06-01T14:33:42.000Z</time>
      </trkpt>
      <trkpt lat="46.19419" lon="-1.36151">
        <ele>10.50882</ele>
        <time>2023-06-01T14:33:43.000Z</time>
      </trkpt>
      <trkpt lat="46.19419" lon="-1.36159">
        <ele>10.50195</ele>
        <time>2023-06-01T14:33:44.000Z</time>
      </trkpt>
      <trkpt lat="46.19419" lon="-1.36166">
        <ele>10.54296</ele>
        <time>2023-06-01T14:33:45.000Z</time>
      </trkpt>
      <trkpt lat="46.19419" lon="-1.36174">
        <ele>10.57564</ele>
        <time>2023-06-01T14:33:46.000Z</time>
      </trkpt>
      <trkpt lat="46.19419" lon="-1.36182">
        <ele>10.61194</ele>
        <time>2023-06-01T14:33:47.000Z</time>
      </trkpt>
      <trkpt lat="46.1942" lon="-1.3619">
        <ele>10.67346</ele>
        <time>2023-06-01T14:33:48.000Z</time>
      </trkpt>
      <trkpt lat="46.1942" lon="-1.36197">
        <ele>10.72344</ele>
        <time>2023-06-01T14:33:49.000Z</time>
      </trkpt>
      <trkpt lat="46.1942" lon="-1.36205">
        <ele>10.78333</ele>
        <time>2023-06-01T14:33:50.000Z</time>
      </trkpt>
      <trkpt lat="46.1942" lon="-1.36214">
        <ele>10.79498</ele>
        <time>2023-06-01T14:33:51.000Z</time>
      </trkpt>
      <trkpt lat="46.1942" lon="-1.36221">
        <ele>10.80972</ele>
        <time>2023-06-01T14:33:52.000Z</time>
      </trkpt>
      <trkpt lat="46.1942" lon="-1.36229">
        <ele>10.81054</ele>
        <time>2023-06-01T14:33:53.000Z</time>
      </trkpt>
      <trkpt lat="46.1942" lon="-1.36238">
        <ele>10.76097</ele>
        <time>2023-06-01T14:33:54.000Z</time>
      </trkpt>
      <trkpt lat="46.1942" lon="-1.36245">
        <ele>10.72329</ele>
        <time>2023-06-01T14:33:55.000Z</time>
      </trkpt>
      <trkpt lat="46.1942" lon="-1.36254">
        <ele>10.6769</ele>
        <time>2023-06-01T14:33:56.000Z</time>
      </trkpt>
      <trkpt lat="46.1942" lon="-1.36262">
        <ele>10.52442</ele>
        <time>2023-06-01T14:33:57.000Z</time>
      </trkpt>
      <trkpt lat="46.1942" lon="-1.3627">
        <ele>10.35999</ele>
        <time>2023-06-01T14:33:58.000Z</time>
      </trkpt>
      <trkpt lat="46.19419" lon="-1.36278">
        <ele>10.31385</ele>
        <time>2023-06-01T14:33:59.000Z</time>
      </trkpt>
      <trkpt lat="46.19419" lon="-1.36286">
        <ele>10.25054</ele>
        <time>2023-06-01T14:34:00.000Z</time>
      </trkpt>
      <trkpt lat="46.19418" lon="-1.36295">
        <ele>10.17352</ele>
        <time>2023-06-01T14:34:01.000Z</time>
      </trkpt>
      <trkpt lat="46.19417" lon="-1.36303">
        <ele>10.08088</ele>
        <time>2023-06-01T14:34:02.000Z</time>
      </trkpt>
      <trkpt lat="46.19416" lon="-1.36311">
        <ele>9.97411</ele>
        <time>2023-06-01T14:34:03.000Z</time>
      </trkpt>
      <trkpt lat="46.19415" lon="-1.3632">
        <ele>9.85974</ele>
        <time>2023-06-01T14:34:04.000Z</time>
      </trkpt>
      <trkpt lat="46.19414" lon="-1.36328">
        <ele>9.74662</ele>
        <time>2023-06-01T14:34:05.000Z</time>
      </trkpt>
      <trkpt lat="46.19413" lon="-1.36336">
        <ele>9.64372</ele>
        <time>2023-06-01T14:34:06.000Z</time>
      </trkpt>
      <trkpt lat="46.19411" lon="-1.36345">
        <ele>9.54256</ele>
        <time>2023-06-01T14:34:07.000Z</time>
      </trkpt>
      <trkpt lat="46.1941" lon="-1.36353">
        <ele>9.4613</ele>
        <time>2023-06-01T14:34:08.000Z</time>
      </trkpt>
      <trkpt lat="46.19409" lon="-1.36362">
        <ele>9.37371</ele>
        <time>2023-06-01T14:34:09.000Z</time>
      </trkpt>
      <trkpt lat="46.19407" lon="-1.3637">
        <ele>9.2856</ele>
        <time>2023-06-01T14:34:10.000Z</time>
      </trkpt>
      <trkpt lat="46.19406" lon="-1.36379">
        <ele>9.20044</ele>
        <time>2023-06-01T14:34:11.000Z</time>
      </trkpt>
      <trkpt lat="46.19405" lon="-1.36387">
        <ele>9.09758</ele>
        <time>2023-06-01T14:34:12.000Z</time>
      </trkpt>
      <trkpt lat="46.19403" lon="-1.36395">
        <ele>9.0065</ele>
        <time>2023-06-01T14:34:13.000Z</time>
      </trkpt>
      <trkpt lat="46.19402" lon="-1.36402">
        <ele>8.95359</ele>
        <time>2023-06-01T14:34:14.000Z</time>
      </trkpt>
      <trkpt lat="46.194" lon="-1.3641">
        <ele>8.87205</ele>
        <time>2023-06-01T14:34:15.000Z</time>
      </trkpt>
      <trkpt lat="46.19399" lon="-1.36417">
        <ele>8.82166</ele>
        <time>2023-06-01T14:34:16.000Z</time>
      </trkpt>
      <trkpt lat="46.19399" lon="-1.36426">
        <ele>8.80511</ele>
        <time>2023-06-01T14:34:17.000Z</time>
      </trkpt>
      <trkpt lat="46.19397" lon="-1.36434">
        <ele>8.81203</ele>
        <time>2023-06-01T14:34:18.000Z</time>
      </trkpt>
      <trkpt lat="46.19396" lon="-1.36441">
        <ele>8.81336</ele>
        <time>2023-06-01T14:34:19.000Z</time>
      </trkpt>
      <trkpt lat="46.19395" lon="-1.36448">
        <ele>8.82782</ele>
        <time>2023-06-01T14:34:20.000Z</time>
      </trkpt>
      <trkpt lat="46.19395" lon="-1.36455">
        <ele>8.85903</ele>
        <time>2023-06-01T14:34:21.000Z</time>
      </trkpt>
      <trkpt lat="46.19394" lon="-1.36462">
        <ele>8.90532</ele>
        <time>2023-06-01T14:34:22.000Z</time>
      </trkpt>
      <trkpt lat="46.19394" lon="-1.36469">
        <ele>8.94584</ele>
        <time>2023-06-01T14:34:23.000Z</time>
      </trkpt>
      <trkpt lat="46.19394" lon="-1.36476">
        <ele>8.99199</ele>
        <time>2023-06-01T14:34:24.000Z</time>
      </trkpt>
      <trkpt lat="46.19394" lon="-1.36484">
        <ele>9.03167</ele>
        <time>2023-06-01T14:34:25.000Z</time>
      </trkpt>
      <trkpt lat="46.19395" lon="-1.36492">
        <ele>9.05099</ele>
        <time>2023-06-01T14:34:26.000Z</time>
      </trkpt>
      <trkpt lat="46.19394" lon="-1.36498">
        <ele>9.06519</ele>
        <time>2023-06-01T14:34:27.000Z</time>
      </trkpt>
      <trkpt lat="46.19393" lon="-1.36504">
        <ele>9.0714</ele>
        <time>2023-06-01T14:34:28.000Z</time>
      </trkpt>
      <trkpt lat="46.19393" lon="-1.3651">
        <ele>9.07961</ele>
        <time>2023-06-01T14:34:29.000Z</time>
      </trkpt>
      <trkpt lat="46.19392" lon="-1.36517">
        <ele>9.09155</ele>
        <time>2023-06-01T14:34:30.000Z</time>
      </trkpt>
      <trkpt lat="46.19391" lon="-1.36523">
        <ele>9.12614</ele>
        <time>2023-06-01T14:34:31.000Z</time>
      </trkpt>
      <trkpt lat="46.1939" lon="-1.36529">
        <ele>9.18036</ele>
        <time>2023-06-01T14:34:32.000Z</time>
      </trkpt>
      <trkpt lat="46.1939" lon="-1.36536">
        <ele>9.22702</ele>
        <time>2023-06-01T14:34:33.000Z</time>
      </trkpt>
      <trkpt lat="46.1939" lon="-1.36544">
        <ele>9.27332</ele>
        <time>2023-06-01T14:34:34.000Z</time>
      </trkpt>
      <trkpt lat="46.1939" lon="-1.3655">
        <ele>9.35132</ele>
        <time>2023-06-01T14:34:35.000Z</time>
      </trkpt>
      <trkpt lat="46.1939" lon="-1.36554">
        <ele>9.37816</ele>
        <time>2023-06-01T14:34:36.000Z</time>
      </trkpt>
      <trkpt lat="46.19391" lon="-1.36557">
        <ele>9.47138</ele>
        <time>2023-06-01T14:34:37.000Z</time>
      </trkpt>
      <trkpt lat="46.19391" lon="-1.3656">
        <ele>9.45686</ele>
        <time>2023-06-01T14:34:39.000Z</time>
      </trkpt>
      <trkpt lat="46.1939" lon="-1.36565">
        <ele>9.4485</ele>
        <time>2023-06-01T14:34:50.000Z</time>
      </trkpt>
      <trkpt lat="46.1939" lon="-1.36568">
        <ele>9.43048</ele>
        <time>2023-06-01T14:34:51.000Z</time>
      </trkpt>
      <trkpt lat="46.1939" lon="-1.3657">
        <ele>9.40225</ele>
        <time>2023-06-01T14:34:52.000Z</time>
      </trkpt>
      <trkpt lat="46.1939" lon="-1.36574">
        <ele>9.36671</ele>
        <time>2023-06-01T14:34:53.000Z</time>
      </trkpt>
      <trkpt lat="46.1939" lon="-1.36577">
        <ele>9.29452</ele>
        <time>2023-06-01T14:34:54.000Z</time>
      </trkpt>
      <trkpt lat="46.1939" lon="-1.36581">
        <ele>9.23651</ele>
        <time>2023-06-01T14:34:55.000Z</time>
      </trkpt>
      <trkpt lat="46.1939" lon="-1.36585">
        <ele>9.18207</ele>
        <time>2023-06-01T14:34:56.000Z</time>
      </trkpt>
      <trkpt lat="46.19391" lon="-1.3659">
        <ele>9.11904</ele>
        <time>2023-06-01T14:34:57.000Z</time>
      </trkpt>
      <trkpt lat="46.19391" lon="-1.36594">
        <ele>9.04848</ele>
        <time>2023-06-01T14:34:58.000Z</time>
      </trkpt>
      <trkpt lat="46.19392" lon="-1.36599">
        <ele>9.07991</ele>
        <time>2023-06-01T14:34:59.000Z</time>
      </trkpt>
      <trkpt lat="46.19392" lon="-1.36604">
        <ele>9.10884</ele>
        <time>2023-06-01T14:35:00.000Z</time>
      </trkpt>
      <trkpt lat="46.19392" lon="-1.3661">
        <ele>9.13933</ele>
        <time>2023-06-01T14:35:01.000Z</time>
      </trkpt>
      <trkpt lat="46.19391" lon="-1.36615">
        <ele>9.14975</ele>
        <time>2023-06-01T14:35:02.000Z</time>
      </trkpt>
      <trkpt lat="46.19391" lon="-1.36621">
        <ele>9.17544</ele>
        <time>2023-06-01T14:35:03.000Z</time>
      </trkpt>
      <trkpt lat="46.19391" lon="-1.36626">
        <ele>9.2204</ele>
        <time>2023-06-01T14:35:04.000Z</time>
      </trkpt>
      <trkpt lat="46.19391" lon="-1.36632">
        <ele>9.28383</ele>
        <time>2023-06-01T14:35:05.000Z</time>
      </trkpt>
      <trkpt lat="46.19391" lon="-1.36638">
        <ele>9.33778</ele>
        <time>2023-06-01T14:35:06.000Z</time>
      </trkpt>
      <trkpt lat="46.19391" lon="-1.36645">
        <ele>9.42071</ele>
        <time>2023-06-01T14:35:07.000Z</time>
      </trkpt>
      <trkpt lat="46.19391" lon="-1.36651">
        <ele>9.50243</ele>
        <time>2023-06-01T14:35:08.000Z</time>
      </trkpt>
      <trkpt lat="46.19391" lon="-1.36658">
        <ele>9.66253</ele>
        <time>2023-06-01T14:35:09.000Z</time>
      </trkpt>
      <trkpt lat="46.19391" lon="-1.36664">
        <ele>9.72199</ele>
        <time>2023-06-01T14:35:10.000Z</time>
      </trkpt>
      <trkpt lat="46.19391" lon="-1.36671">
        <ele>9.76304</ele>
        <time>2023-06-01T14:35:11.000Z</time>
      </trkpt>
      <trkpt lat="46.19391" lon="-1.36678">
        <ele>9.81022</ele>
        <time>2023-06-01T14:35:12.000Z</time>
      </trkpt>
      <trkpt lat="46.19392" lon="-1.36685">
        <ele>9.85956</ele>
        <time>2023-06-01T14:35:13.000Z</time>
      </trkpt>
      <trkpt lat="46.19392" lon="-1.36691">
        <ele>9.96446</ele>
        <time>2023-06-01T14:35:14.000Z</time>
      </trkpt>
      <trkpt lat="46.19391" lon="-1.36698">
        <ele>10.05919</ele>
        <time>2023-06-01T14:35:15.000Z</time>
      </trkpt>
      <trkpt lat="46.19391" lon="-1.36705">
        <ele>10.15837</ele>
        <time>2023-06-01T14:35:16.000Z</time>
      </trkpt>
      <trkpt lat="46.19391" lon="-1.36712">
        <ele>10.27726</ele>
        <time>2023-06-01T14:35:17.000Z</time>
      </trkpt>
      <trkpt lat="46.1939" lon="-1.36718">
        <ele>10.33005</ele>
        <time>2023-06-01T14:35:18.000Z</time>
      </trkpt>
      <trkpt lat="46.19389" lon="-1.36726">
        <ele>10.29147</ele>
        <time>2023-06-01T14:35:19.000Z</time>
      </trkpt>
      <trkpt lat="46.19389" lon="-1.36733">
        <ele>10.23967</ele>
        <time>2023-06-01T14:35:20.000Z</time>
      </trkpt>
      <trkpt lat="46.19389" lon="-1.3674">
        <ele>10.30119</ele>
        <time>2023-06-01T14:35:21.000Z</time>
      </trkpt>
      <trkpt lat="46.19389" lon="-1.36747">
        <ele>10.35295</ele>
        <time>2023-06-01T14:35:22.000Z</time>
      </trkpt>
      <trkpt lat="46.19388" lon="-1.36755">
        <ele>10.37357</ele>
        <time>2023-06-01T14:35:23.000Z</time>
      </trkpt>
      <trkpt lat="46.19387" lon="-1.36762">
        <ele>10.37128</ele>
        <time>2023-06-01T14:35:24.000Z</time>
      </trkpt>
      <trkpt lat="46.19387" lon="-1.3677">
        <ele>10.33584</ele>
        <time>2023-06-01T14:35:25.000Z</time>
      </trkpt>
      <trkpt lat="46.19387" lon="-1.36777">
        <ele>10.20634</ele>
        <time>2023-06-01T14:35:26.000Z</time>
      </trkpt>
      <trkpt lat="46.19387" lon="-1.36785">
        <ele>10.07871</ele>
        <time>2023-06-01T14:35:27.000Z</time>
      </trkpt>
      <trkpt lat="46.19387" lon="-1.36792">
        <ele>9.95333</ele>
        <time>2023-06-01T14:35:28.000Z</time>
      </trkpt>
      <trkpt lat="46.19386" lon="-1.36799">
        <ele>9.83853</ele>
        <time>2023-06-01T14:35:29.000Z</time>
      </trkpt>
      <trkpt lat="46.19386" lon="-1.36806">
        <ele>9.80215</ele>
        <time>2023-06-01T14:35:30.000Z</time>
      </trkpt>
      <trkpt lat="46.19384" lon="-1.36813">
        <ele>9.77967</ele>
        <time>2023-06-01T14:35:31.000Z</time>
      </trkpt>
      <trkpt lat="46.19383" lon="-1.3682">
        <ele>9.78697</ele>
        <time>2023-06-01T14:35:32.000Z</time>
      </trkpt>
      <trkpt lat="46.19382" lon="-1.36827">
        <ele>9.79192</ele>
        <time>2023-06-01T14:35:33.000Z</time>
      </trkpt>
      <trkpt lat="46.19381" lon="-1.36835">
        <ele>9.79936</ele>
        <time>2023-06-01T14:35:34.000Z</time>
      </trkpt>
      <trkpt lat="46.19381" lon="-1.36841">
        <ele>9.79467</ele>
        <time>2023-06-01T14:35:35.000Z</time>
      </trkpt>
      <trkpt lat="46.1938" lon="-1.36849">
        <ele>9.77306</ele>
        <time>2023-06-01T14:35:36.000Z</time>
      </trkpt>
      <trkpt lat="46.1938" lon="-1.36856">
        <ele>9.75324</ele>
        <time>2023-06-01T14:35:37.000Z</time>
      </trkpt>
      <trkpt lat="46.19379" lon="-1.36863">
        <ele>9.83016</ele>
        <time>2023-06-01T14:35:38.000Z</time>
      </trkpt>
      <trkpt lat="46.19379" lon="-1.3687">
        <ele>9.89402</ele>
        <time>2023-06-01T14:35:39.000Z</time>
      </trkpt>
      <trkpt lat="46.19378" lon="-1.36877">
        <ele>9.97087</ele>
        <time>2023-06-01T14:35:40.000Z</time>
      </trkpt>
      <trkpt lat="46.19377" lon="-1.36883">
        <ele>9.92769</ele>
        <time>2023-06-01T14:35:41.000Z</time>
      </trkpt>
      <trkpt lat="46.19377" lon="-1.36889">
        <ele>9.89807</ele>
        <time>2023-06-01T14:35:42.000Z</time>
      </trkpt>
      <trkpt lat="46.19376" lon="-1.36895">
        <ele>9.87306</ele>
        <time>2023-06-01T14:35:43.000Z</time>
      </trkpt>
      <trkpt lat="46.19377" lon="-1.36902">
        <ele>9.86457</ele>
        <time>2023-06-01T14:35:44.000Z</time>
      </trkpt>
      <trkpt lat="46.19376" lon="-1.36908">
        <ele>9.86116</ele>
        <time>2023-06-01T14:35:45.000Z</time>
      </trkpt>
      <trkpt lat="46.19377" lon="-1.36913">
        <ele>9.93511</ele>
        <time>2023-06-01T14:35:46.000Z</time>
      </trkpt>
      <trkpt lat="46.19377" lon="-1.36919">
        <ele>9.98654</ele>
        <time>2023-06-01T14:35:47.000Z</time>
      </trkpt>
      <trkpt lat="46.19377" lon="-1.36925">
        <ele>10.02842</ele>
        <time>2023-06-01T14:35:48.000Z</time>
      </trkpt>
      <trkpt lat="46.19377" lon="-1.36931">
        <ele>10.05182</ele>
        <time>2023-06-01T14:35:49.000Z</time>
      </trkpt>
      <trkpt lat="46.19378" lon="-1.36936">
        <ele>9.93172</ele>
        <time>2023-06-01T14:35:50.000Z</time>
      </trkpt>
      <trkpt lat="46.1938" lon="-1.36941">
        <ele>9.82376</ele>
        <time>2023-06-01T14:35:51.000Z</time>
      </trkpt>
      <trkpt lat="46.19381" lon="-1.36947">
        <ele>9.68799</ele>
        <time>2023-06-01T14:35:52.000Z</time>
      </trkpt>
      <trkpt lat="46.19381" lon="-1.36952">
        <ele>9.54419</ele>
        <time>2023-06-01T14:35:53.000Z</time>
      </trkpt>
      <trkpt lat="46.1938" lon="-1.36958">
        <ele>9.40988</ele>
        <time>2023-06-01T14:35:54.000Z</time>
      </trkpt>
      <trkpt lat="46.19379" lon="-1.36964">
        <ele>9.41862</ele>
        <time>2023-06-01T14:35:55.000Z</time>
      </trkpt>
      <trkpt lat="46.19377" lon="-1.3697">
        <ele>9.4126</ele>
        <time>2023-06-01T14:35:56.000Z</time>
      </trkpt>
      <trkpt lat="46.19374" lon="-1.36974">
        <ele>9.38785</ele>
        <time>2023-06-01T14:35:57.000Z</time>
      </trkpt>
      <trkpt lat="46.19371" lon="-1.36979">
        <ele>9.35431</ele>
        <time>2023-06-01T14:35:58.000Z</time>
      </trkpt>
      <trkpt lat="46.1937" lon="-1.36985">
        <ele>9.31752</ele>
        <time>2023-06-01T14:35:59.000Z</time>
      </trkpt>
      <trkpt lat="46.19368" lon="-1.36991">
        <ele>9.28646</ele>
        <time>2023-06-01T14:36:00.000Z</time>
      </trkpt>
      <trkpt lat="46.19366" lon="-1.36997">
        <ele>9.26845</ele>
        <time>2023-06-01T14:36:01.000Z</time>
      </trkpt>
      <trkpt lat="46.19364" lon="-1.37002">
        <ele>9.25772</ele>
        <time>2023-06-01T14:36:02.000Z</time>
      </trkpt>
      <trkpt lat="46.19364" lon="-1.37008">
        <ele>9.23572</ele>
        <time>2023-06-01T14:36:03.000Z</time>
      </trkpt>
      <trkpt lat="46.19363" lon="-1.37014">
        <ele>9.20579</ele>
        <time>2023-06-01T14:36:04.000Z</time>
      </trkpt>
      <trkpt lat="46.19363" lon="-1.3702">
        <ele>9.18357</ele>
        <time>2023-06-01T14:36:05.000Z</time>
      </trkpt>
      <trkpt lat="46.19362" lon="-1.37027">
        <ele>9.19554</ele>
        <time>2023-06-01T14:36:06.000Z</time>
      </trkpt>
      <trkpt lat="46.19362" lon="-1.37033">
        <ele>9.20845</ele>
        <time>2023-06-01T14:36:07.000Z</time>
      </trkpt>
      <trkpt lat="46.1936" lon="-1.3704">
        <ele>9.21959</ele>
        <time>2023-06-01T14:36:08.000Z</time>
      </trkpt>
      <trkpt lat="46.19358" lon="-1.37045">
        <ele>9.25669</ele>
        <time>2023-06-01T14:36:09.000Z</time>
      </trkpt>
      <trkpt lat="46.19356" lon="-1.37051">
        <ele>9.32955</ele>
        <time>2023-06-01T14:36:10.000Z</time>
      </trkpt>
      <trkpt lat="46.19353" lon="-1.37057">
        <ele>9.37817</ele>
        <time>2023-06-01T14:36:11.000Z</time>
      </trkpt>
      <trkpt lat="46.1935" lon="-1.37062">
        <ele>9.39063</ele>
        <time>2023-06-01T14:36:12.000Z</time>
      </trkpt>
      <trkpt lat="46.19347" lon="-1.37068">
        <ele>9.38679</ele>
        <time>2023-06-01T14:36:13.000Z</time>
      </trkpt>
      <trkpt lat="46.19346" lon="-1.37073">
        <ele>9.35392</ele>
        <time>2023-06-01T14:36:14.000Z</time>
      </trkpt>
      <trkpt lat="46.19343" lon="-1.37079">
        <ele>9.20185</ele>
        <time>2023-06-01T14:36:15.000Z</time>
      </trkpt>
      <trkpt lat="46.19341" lon="-1.37084">
        <ele>9.08203</ele>
        <time>2023-06-01T14:36:16.000Z</time>
      </trkpt>
      <trkpt lat="46.19339" lon="-1.3709">
        <ele>9.08615</ele>
        <time>2023-06-01T14:36:17.000Z</time>
      </trkpt>
      <trkpt lat="46.19337" lon="-1.37096">
        <ele>9.08827</ele>
        <time>2023-06-01T14:36:18.000Z</time>
      </trkpt>
      <trkpt lat="46.19336" lon="-1.37102">
        <ele>9.09094</ele>
        <time>2023-06-01T14:36:19.000Z</time>
      </trkpt>
      <trkpt lat="46.19334" lon="-1.37108">
        <ele>9.08307</ele>
        <time>2023-06-01T14:36:20.000Z</time>
      </trkpt>
      <trkpt lat="46.19332" lon="-1.37115">
        <ele>9.04862</ele>
        <time>2023-06-01T14:36:21.000Z</time>
      </trkpt>
      <trkpt lat="46.19332" lon="-1.37121">
        <ele>8.96575</ele>
        <time>2023-06-01T14:36:22.000Z</time>
      </trkpt>
      <trkpt lat="46.19331" lon="-1.37128">
        <ele>8.92176</ele>
        <time>2023-06-01T14:36:23.000Z</time>
      </trkpt>
      <trkpt lat="46.19329" lon="-1.37135">
        <ele>8.89221</ele>
        <time>2023-06-01T14:36:24.000Z</time>
      </trkpt>
      <trkpt lat="46.19328" lon="-1.37141">
        <ele>8.87606</ele>
        <time>2023-06-01T14:36:25.000Z</time>
      </trkpt>
      <trkpt lat="46.19326" lon="-1.37147">
        <ele>8.78648</ele>
        <time>2023-06-01T14:36:26.000Z</time>
      </trkpt>
      <trkpt lat="46.19325" lon="-1.37154">
        <ele>8.7193</ele>
        <time>2023-06-01T14:36:27.000Z</time>
      </trkpt>
      <trkpt lat="46.19324" lon="-1.3716">
        <ele>8.66598</ele>
        <time>2023-06-01T14:36:28.000Z</time>
      </trkpt>
      <trkpt lat="46.19322" lon="-1.37167">
        <ele>8.61316</ele>
        <time>2023-06-01T14:36:29.000Z</time>
      </trkpt>
      <trkpt lat="46.19321" lon="-1.37174">
        <ele>8.56257</ele>
        <time>2023-06-01T14:36:30.000Z</time>
      </trkpt>
      <trkpt lat="46.1932" lon="-1.37181">
        <ele>8.55457</ele>
        <time>2023-06-01T14:36:31.000Z</time>
      </trkpt>
      <trkpt lat="46.19318" lon="-1.37187">
        <ele>8.55745</ele>
        <time>2023-06-01T14:36:32.000Z</time>
      </trkpt>
      <trkpt lat="46.19317" lon="-1.37193">
        <ele>8.58504</ele>
        <time>2023-06-01T14:36:33.000Z</time>
      </trkpt>
      <trkpt lat="46.19316" lon="-1.372">
        <ele>8.71685</ele>
        <time>2023-06-01T14:36:34.000Z</time>
      </trkpt>
      <trkpt lat="46.19315" lon="-1.37208">
        <ele>8.7711</ele>
        <time>2023-06-01T14:36:35.000Z</time>
      </trkpt>
      <trkpt lat="46.19314" lon="-1.37214">
        <ele>8.8124</ele>
        <time>2023-06-01T14:36:36.000Z</time>
      </trkpt>
      <trkpt lat="46.19313" lon="-1.3722">
        <ele>8.77343</ele>
        <time>2023-06-01T14:36:37.000Z</time>
      </trkpt>
      <trkpt lat="46.19312" lon="-1.37228">
        <ele>8.72119</ele>
        <time>2023-06-01T14:36:38.000Z</time>
      </trkpt>
      <trkpt lat="46.19311" lon="-1.37235">
        <ele>8.61986</ele>
        <time>2023-06-01T14:36:39.000Z</time>
      </trkpt>
      <trkpt lat="46.1931" lon="-1.37241">
        <ele>8.51147</ele>
        <time>2023-06-01T14:36:40.000Z</time>
      </trkpt>
      <trkpt lat="46.1931" lon="-1.37248">
        <ele>8.49604</ele>
        <time>2023-06-01T14:36:41.000Z</time>
      </trkpt>
      <trkpt lat="46.19309" lon="-1.37254">
        <ele>8.51479</ele>
        <time>2023-06-01T14:36:42.000Z</time>
      </trkpt>
      <trkpt lat="46.19307" lon="-1.37261">
        <ele>8.52119</ele>
        <time>2023-06-01T14:36:43.000Z</time>
      </trkpt>
      <trkpt lat="46.19306" lon="-1.37268">
        <ele>8.52465</ele>
        <time>2023-06-01T14:36:44.000Z</time>
      </trkpt>
      <trkpt lat="46.19305" lon="-1.37275">
        <ele>8.53668</ele>
        <time>2023-06-01T14:36:45.000Z</time>
      </trkpt>
      <trkpt lat="46.19303" lon="-1.37282">
        <ele>8.60964</ele>
        <time>2023-06-01T14:36:46.000Z</time>
      </trkpt>
      <trkpt lat="46.19303" lon="-1.37288">
        <ele>8.65878</ele>
        <time>2023-06-01T14:36:47.000Z</time>
      </trkpt>
      <trkpt lat="46.19302" lon="-1.37295">
        <ele>8.81641</ele>
        <time>2023-06-01T14:36:48.000Z</time>
      </trkpt>
      <trkpt lat="46.193" lon="-1.37302">
        <ele>8.9606</ele>
        <time>2023-06-01T14:36:49.000Z</time>
      </trkpt>
      <trkpt lat="46.19299" lon="-1.37309">
        <ele>9.12456</ele>
        <time>2023-06-01T14:36:50.000Z</time>
      </trkpt>
      <trkpt lat="46.19298" lon="-1.37316">
        <ele>9.34132</ele>
        <time>2023-06-01T14:36:51.000Z</time>
      </trkpt>
      <trkpt lat="46.19298" lon="-1.37324">
        <ele>9.4776</ele>
        <time>2023-06-01T14:36:52.000Z</time>
      </trkpt>
      <trkpt lat="46.19296" lon="-1.37331">
        <ele>9.60416</ele>
        <time>2023-06-01T14:36:53.000Z</time>
      </trkpt>
      <trkpt lat="46.19295" lon="-1.37337">
        <ele>9.64945</ele>
        <time>2023-06-01T14:36:54.000Z</time>
      </trkpt>
      <trkpt lat="46.19293" lon="-1.37344">
        <ele>9.78072</ele>
        <time>2023-06-01T14:36:55.000Z</time>
      </trkpt>
      <trkpt lat="46.19292" lon="-1.3735">
        <ele>9.79128</ele>
        <time>2023-06-01T14:36:56.000Z</time>
      </trkpt>
      <trkpt lat="46.1929" lon="-1.37356">
        <ele>9.80328</ele>
        <time>2023-06-01T14:36:57.000Z</time>
      </trkpt>
      <trkpt lat="46.19288" lon="-1.37362">
        <ele>9.83043</ele>
        <time>2023-06-01T14:36:58.000Z</time>
      </trkpt>
      <trkpt lat="46.19286" lon="-1.37367">
        <ele>9.9041</ele>
        <time>2023-06-01T14:36:59.000Z</time>
      </trkpt>
      <trkpt lat="46.19285" lon="-1.37373">
        <ele>9.98656</ele>
        <time>2023-06-01T14:37:00.000Z</time>
      </trkpt>
      <trkpt lat="46.19285" lon="-1.37378">
        <ele>9.92301</ele>
        <time>2023-06-01T14:37:01.000Z</time>
      </trkpt>
      <trkpt lat="46.19286" lon="-1.37381">
        <ele>9.85475</ele>
        <time>2023-06-01T14:37:02.000Z</time>
      </trkpt>
      <trkpt lat="46.19288" lon="-1.37384">
        <ele>9.95686</ele>
        <time>2023-06-01T14:37:03.000Z</time>
      </trkpt>
      <trkpt lat="46.19289" lon="-1.37387">
        <ele>10.07587</ele>
        <time>2023-06-01T14:37:04.000Z</time>
      </trkpt>
      <trkpt lat="46.1929" lon="-1.37389">
        <ele>10.18254</ele>
        <time>2023-06-01T14:37:05.000Z</time>
      </trkpt>
      <trkpt lat="46.19293" lon="-1.37393">
        <ele>10.09456</ele>
        <time>2023-06-01T14:37:07.000Z</time>
      </trkpt>
      <trkpt lat="46.19293" lon="-1.37396">
        <ele>10.05586</ele>
        <time>2023-06-01T14:37:08.000Z</time>
      </trkpt>
      <trkpt lat="46.19293" lon="-1.37398">
        <ele>9.91787</ele>
        <time>2023-06-01T14:37:09.000Z</time>
      </trkpt>
      <trkpt lat="46.19291" lon="-1.37402">
        <ele>9.76333</ele>
        <time>2023-06-01T14:37:15.000Z</time>
      </trkpt>
      <trkpt lat="46.1929" lon="-1.37406">
        <ele>9.58624</ele>
        <time>2023-06-01T14:37:16.000Z</time>
      </trkpt>
      <trkpt lat="46.19289" lon="-1.3741">
        <ele>9.3369</ele>
        <time>2023-06-01T14:37:17.000Z</time>
      </trkpt>
      <trkpt lat="46.19289" lon="-1.37414">
        <ele>9.13124</ele>
        <time>2023-06-01T14:37:18.000Z</time>
      </trkpt>
      <trkpt lat="46.19289" lon="-1.37419">
        <ele>8.92391</ele>
        <time>2023-06-01T14:37:19.000Z</time>
      </trkpt>
      <trkpt lat="46.19288" lon="-1.37424">
        <ele>8.7733</ele>
        <time>2023-06-01T14:37:20.000Z</time>
      </trkpt>
      <trkpt lat="46.19288" lon="-1.37429">
        <ele>8.58622</ele>
        <time>2023-06-01T14:37:21.000Z</time>
      </trkpt>
      <trkpt lat="46.19288" lon="-1.37433">
        <ele>8.52509</ele>
        <time>2023-06-01T14:37:22.000Z</time>
      </trkpt>
      <trkpt lat="46.19287" lon="-1.37438">
        <ele>8.43576</ele>
        <time>2023-06-01T14:37:23.000Z</time>
      </trkpt>
      <trkpt lat="46.19287" lon="-1.37443">
        <ele>8.35039</ele>
        <time>2023-06-01T14:37:24.000Z</time>
      </trkpt>
      <trkpt lat="46.19286" lon="-1.37448">
        <ele>8.2215</ele>
        <time>2023-06-01T14:37:25.000Z</time>
      </trkpt>
      <trkpt lat="46.19285" lon="-1.37454">
        <ele>8.08959</ele>
        <time>2023-06-01T14:37:26.000Z</time>
      </trkpt>
      <trkpt lat="46.19285" lon="-1.37459">
        <ele>8.01957</ele>
        <time>2023-06-01T14:37:27.000Z</time>
      </trkpt>
      <trkpt lat="46.19284" lon="-1.37465">
        <ele>7.94642</ele>
        <time>2023-06-01T14:37:28.000Z</time>
      </trkpt>
      <trkpt lat="46.19282" lon="-1.3747">
        <ele>7.77463</ele>
        <time>2023-06-01T14:37:29.000Z</time>
      </trkpt>
      <trkpt lat="46.19281" lon="-1.37475">
        <ele>7.55981</ele>
        <time>2023-06-01T14:37:30.000Z</time>
      </trkpt>
      <trkpt lat="46.1928" lon="-1.37481">
        <ele>7.35847</ele>
        <time>2023-06-01T14:37:31.000Z</time>
      </trkpt>
      <trkpt lat="46.19278" lon="-1.37487">
        <ele>7.33292</ele>
        <time>2023-06-01T14:37:32.000Z</time>
      </trkpt>
      <trkpt lat="46.19277" lon="-1.37493">
        <ele>7.27613</ele>
        <time>2023-06-01T14:37:33.000Z</time>
      </trkpt>
      <trkpt lat="46.19276" lon="-1.37498">
        <ele>7.19849</ele>
        <time>2023-06-01T14:37:34.000Z</time>
      </trkpt>
      <trkpt lat="46.19274" lon="-1.37505">
        <ele>7.13812</ele>
        <time>2023-06-01T14:37:35.000Z</time>
      </trkpt>
      <trkpt lat="46.19273" lon="-1.37511">
        <ele>7.10438</ele>
        <time>2023-06-01T14:37:36.000Z</time>
      </trkpt>
      <trkpt lat="46.19271" lon="-1.37517">
        <ele>7.07394</ele>
        <time>2023-06-01T14:37:37.000Z</time>
      </trkpt>
      <trkpt lat="46.1927" lon="-1.37524">
        <ele>7.09254</ele>
        <time>2023-06-01T14:37:38.000Z</time>
      </trkpt>
      <trkpt lat="46.19269" lon="-1.37531">
        <ele>7.13816</ele>
        <time>2023-06-01T14:37:39.000Z</time>
      </trkpt>
      <trkpt lat="46.19268" lon="-1.37537">
        <ele>7.12532</ele>
        <time>2023-06-01T14:37:40.000Z</time>
      </trkpt>
      <trkpt lat="46.19266" lon="-1.37543">
        <ele>7.14025</ele>
        <time>2023-06-01T14:37:41.000Z</time>
      </trkpt>
      <trkpt lat="46.19264" lon="-1.37549">
        <ele>7.07511</ele>
        <time>2023-06-01T14:37:42.000Z</time>
      </trkpt>
      <trkpt lat="46.19263" lon="-1.37556">
        <ele>7.00534</ele>
        <time>2023-06-01T14:37:43.000Z</time>
      </trkpt>
      <trkpt lat="46.19262" lon="-1.37563">
        <ele>6.98151</ele>
        <time>2023-06-01T14:37:44.000Z</time>
      </trkpt>
      <trkpt lat="46.1926" lon="-1.37569">
        <ele>6.97364</ele>
        <time>2023-06-01T14:37:45.000Z</time>
      </trkpt>
      <trkpt lat="46.19258" lon="-1.37576">
        <ele>6.93158</ele>
        <time>2023-06-01T14:37:46.000Z</time>
      </trkpt>
      <trkpt lat="46.19257" lon="-1.37582">
        <ele>7.16979</ele>
        <time>2023-06-01T14:37:47.000Z</time>
      </trkpt>
      <trkpt lat="46.19255" lon="-1.37589">
        <ele>7.19244</ele>
        <time>2023-06-01T14:37:48.000Z</time>
      </trkpt>
      <trkpt lat="46.19254" lon="-1.37595">
        <ele>7.15566</ele>
        <time>2023-06-01T14:37:49.000Z</time>
      </trkpt>
      <trkpt lat="46.19253" lon="-1.37603">
        <ele>7.16934</ele>
        <time>2023-06-01T14:37:50.000Z</time>
      </trkpt>
      <trkpt lat="46.19252" lon="-1.3761">
        <ele>7.18387</ele>
        <time>2023-06-01T14:37:51.000Z</time>
      </trkpt>
      <trkpt lat="46.19251" lon="-1.37617">
        <ele>7.13927</ele>
        <time>2023-06-01T14:37:52.000Z</time>
      </trkpt>
      <trkpt lat="46.19251" lon="-1.37625">
        <ele>7.06955</ele>
        <time>2023-06-01T14:37:53.000Z</time>
      </trkpt>
      <trkpt lat="46.1925" lon="-1.37632">
        <ele>7.02015</ele>
        <time>2023-06-01T14:37:54.000Z</time>
      </trkpt>
      <trkpt lat="46.19249" lon="-1.37639">
        <ele>6.96907</ele>
        <time>2023-06-01T14:37:55.000Z</time>
      </trkpt>
      <trkpt lat="46.19248" lon="-1.37646">
        <ele>6.91803</ele>
        <time>2023-06-01T14:37:56.000Z</time>
      </trkpt>
      <trkpt lat="46.19247" lon="-1.37653">
        <ele>6.84265</ele>
        <time>2023-06-01T14:37:57.000Z</time>
      </trkpt>
      <trkpt lat="46.19247" lon="-1.3766">
        <ele>6.7665</ele>
        <time>2023-06-01T14:37:58.000Z</time>
      </trkpt>
      <trkpt lat="46.19247" lon="-1.37668">
        <ele>6.64871</ele>
        <time>2023-06-01T14:37:59.000Z</time>
      </trkpt>
      <trkpt lat="46.19245" lon="-1.37674">
        <ele>6.59622</ele>
        <time>2023-06-01T14:38:00.000Z</time>
      </trkpt>
      <trkpt lat="46.19244" lon="-1.3768">
        <ele>6.52679</ele>
        <time>2023-06-01T14:38:01.000Z</time>
      </trkpt>
      <trkpt lat="46.19244" lon="-1.37687">
        <ele>6.66327</ele>
        <time>2023-06-01T14:38:02.000Z</time>
      </trkpt>
      <trkpt lat="46.19243" lon="-1.37695">
        <ele>6.78567</ele>
        <time>2023-06-01T14:38:03.000Z</time>
      </trkpt>
      <trkpt lat="46.19241" lon="-1.37702">
        <ele>6.84371</ele>
        <time>2023-06-01T14:38:04.000Z</time>
      </trkpt>
      <trkpt lat="46.1924" lon="-1.37709">
        <ele>6.93792</ele>
        <time>2023-06-01T14:38:05.000Z</time>
      </trkpt>
      <trkpt lat="46.19239" lon="-1.37716">
        <ele>7.06241</ele>
        <time>2023-06-01T14:38:06.000Z</time>
      </trkpt>
      <trkpt lat="46.19238" lon="-1.37723">
        <ele>6.74974</ele>
        <time>2023-06-01T14:38:07.000Z</time>
      </trkpt>
      <trkpt lat="46.19238" lon="-1.37731">
        <ele>6.82059</ele>
        <time>2023-06-01T14:38:08.000Z</time>
      </trkpt>
      <trkpt lat="46.19236" lon="-1.37738">
        <ele>6.87665</ele>
        <time>2023-06-01T14:38:09.000Z</time>
      </trkpt>
      <trkpt lat="46.19234" lon="-1.37746">
        <ele>6.91387</ele>
        <time>2023-06-01T14:38:10.000Z</time>
      </trkpt>
      <trkpt lat="46.19233" lon="-1.37752">
        <ele>6.95543</ele>
        <time>2023-06-01T14:38:11.000Z</time>
      </trkpt>
      <trkpt lat="46.19232" lon="-1.37758">
        <ele>7.09028</ele>
        <time>2023-06-01T14:38:12.000Z</time>
      </trkpt>
      <trkpt lat="46.19231" lon="-1.37766">
        <ele>7.24827</ele>
        <time>2023-06-01T14:38:13.000Z</time>
      </trkpt>
      <trkpt lat="46.1923" lon="-1.37772">
        <ele>7.25376</ele>
        <time>2023-06-01T14:38:14.000Z</time>
      </trkpt>
      <trkpt lat="46.19229" lon="-1.3778">
        <ele>7.25585</ele>
        <time>2023-06-01T14:38:15.000Z</time>
      </trkpt>
      <trkpt lat="46.19228" lon="-1.37787">
        <ele>7.39402</ele>
        <time>2023-06-01T14:38:16.000Z</time>
      </trkpt>
      <trkpt lat="46.19227" lon="-1.37795">
        <ele>7.54211</ele>
        <time>2023-06-01T14:38:17.000Z</time>
      </trkpt>
      <trkpt lat="46.19225" lon="-1.37802">
        <ele>7.53517</ele>
        <time>2023-06-01T14:38:18.000Z</time>
      </trkpt>
      <trkpt lat="46.19223" lon="-1.37808">
        <ele>7.7296</ele>
        <time>2023-06-01T14:38:19.000Z</time>
      </trkpt>
      <trkpt lat="46.19222" lon="-1.37815">
        <ele>7.85949</ele>
        <time>2023-06-01T14:38:20.000Z</time>
      </trkpt>
      <trkpt lat="46.1922" lon="-1.37821">
        <ele>7.99013</ele>
        <time>2023-06-01T14:38:21.000Z</time>
      </trkpt>
      <trkpt lat="46.1922" lon="-1.37828">
        <ele>7.85966</ele>
        <time>2023-06-01T14:38:22.000Z</time>
      </trkpt>
      <trkpt lat="46.19219" lon="-1.37833">
        <ele>7.76479</ele>
        <time>2023-06-01T14:38:23.000Z</time>
      </trkpt>
      <trkpt lat="46.19217" lon="-1.3784">
        <ele>7.68246</ele>
        <time>2023-06-01T14:38:24.000Z</time>
      </trkpt>
      <trkpt lat="46.19215" lon="-1.37845">
        <ele>7.61327</ele>
        <time>2023-06-01T14:38:25.000Z</time>
      </trkpt>
      <trkpt lat="46.19215" lon="-1.37852">
        <ele>7.55305</ele>
        <time>2023-06-01T14:38:26.000Z</time>
      </trkpt>
      <trkpt lat="46.19214" lon="-1.37859">
        <ele>7.61724</ele>
        <time>2023-06-01T14:38:27.000Z</time>
      </trkpt>
      <trkpt lat="46.19213" lon="-1.37865">
        <ele>7.50881</ele>
        <time>2023-06-01T14:38:28.000Z</time>
      </trkpt>
      <trkpt lat="46.19212" lon="-1.37871">
        <ele>7.46014</ele>
        <time>2023-06-01T14:38:29.000Z</time>
      </trkpt>
      <trkpt lat="46.19211" lon="-1.37878">
        <ele>7.39431</ele>
        <time>2023-06-01T14:38:30.000Z</time>
      </trkpt>
      <trkpt lat="46.19209" lon="-1.37884">
        <ele>7.31676</ele>
        <time>2023-06-01T14:38:31.000Z</time>
      </trkpt>
      <trkpt lat="46.19208" lon="-1.37891">
        <ele>7.22598</ele>
        <time>2023-06-01T14:38:32.000Z</time>
      </trkpt>
      <trkpt lat="46.19207" lon="-1.37898">
        <ele>7.14152</ele>
        <time>2023-06-01T14:38:33.000Z</time>
      </trkpt>
      <trkpt lat="46.19206" lon="-1.37905">
        <ele>7.20403</ele>
        <time>2023-06-01T14:38:34.000Z</time>
      </trkpt>
      <trkpt lat="46.19205" lon="-1.37911">
        <ele>7.27404</ele>
        <time>2023-06-01T14:38:35.000Z</time>
      </trkpt>
      <trkpt lat="46.19204" lon="-1.37918">
        <ele>7.14727</ele>
        <time>2023-06-01T14:38:36.000Z</time>
      </trkpt>
      <trkpt lat="46.19204" lon="-1.37923">
        <ele>7.02123</ele>
        <time>2023-06-01T14:38:37.000Z</time>
      </trkpt>
      <trkpt lat="46.19203" lon="-1.37929">
        <ele>7.07446</ele>
        <time>2023-06-01T14:38:38.000Z</time>
      </trkpt>
      <trkpt lat="46.19202" lon="-1.37935">
        <ele>7.01019</ele>
        <time>2023-06-01T14:38:39.000Z</time>
      </trkpt>
      <trkpt lat="46.19201" lon="-1.3794">
        <ele>6.916</ele>
        <time>2023-06-01T14:38:40.000Z</time>
      </trkpt>
      <trkpt lat="46.19201" lon="-1.37946">
        <ele>6.89121</ele>
        <time>2023-06-01T14:38:41.000Z</time>
      </trkpt>
      <trkpt lat="46.192" lon="-1.37952">
        <ele>6.97691</ele>
        <time>2023-06-01T14:38:42.000Z</time>
      </trkpt>
      <trkpt lat="46.19199" lon="-1.37959">
        <ele>7.06111</ele>
        <time>2023-06-01T14:38:43.000Z</time>
      </trkpt>
      <trkpt lat="46.19198" lon="-1.37965">
        <ele>7.1369</ele>
        <time>2023-06-01T14:38:44.000Z</time>
      </trkpt>
      <trkpt lat="46.19197" lon="-1.37971">
        <ele>7.11567</ele>
        <time>2023-06-01T14:38:45.000Z</time>
      </trkpt>
      <trkpt lat="46.19196" lon="-1.37976">
        <ele>7.0374</ele>
        <time>2023-06-01T14:38:46.000Z</time>
      </trkpt>
      <trkpt lat="46.19195" lon="-1.37982">
        <ele>7.00042</ele>
        <time>2023-06-01T14:38:47.000Z</time>
      </trkpt>
      <trkpt lat="46.19195" lon="-1.37988">
        <ele>6.95958</ele>
        <time>2023-06-01T14:38:48.000Z</time>
      </trkpt>
      <trkpt lat="46.19194" lon="-1.37994">
        <ele>6.77692</ele>
        <time>2023-06-01T14:38:49.000Z</time>
      </trkpt>
      <trkpt lat="46.19193" lon="-1.37999">
        <ele>6.7293</ele>
        <time>2023-06-01T14:38:50.000Z</time>
      </trkpt>
      <trkpt lat="46.19192" lon="-1.38003">
        <ele>6.72487</ele>
        <time>2023-06-01T14:38:51.000Z</time>
      </trkpt>
      <trkpt lat="46.19191" lon="-1.38009">
        <ele>6.6315</ele>
        <time>2023-06-01T14:38:52.000Z</time>
      </trkpt>
      <trkpt lat="46.1919" lon="-1.38014">
        <ele>6.55004</ele>
        <time>2023-06-01T14:38:53.000Z</time>
      </trkpt>
      <trkpt lat="46.19188" lon="-1.3802">
        <ele>6.48067</ele>
        <time>2023-06-01T14:38:54.000Z</time>
      </trkpt>
      <trkpt lat="46.19186" lon="-1.38025">
        <ele>6.41103</ele>
        <time>2023-06-01T14:38:55.000Z</time>
      </trkpt>
      <trkpt lat="46.19183" lon="-1.38029">
        <ele>6.3985</ele>
        <time>2023-06-01T14:38:56.000Z</time>
      </trkpt>
      <trkpt lat="46.1918" lon="-1.38033">
        <ele>6.3436</ele>
        <time>2023-06-01T14:38:57.000Z</time>
      </trkpt>
      <trkpt lat="46.19175" lon="-1.38034">
        <ele>6.35485</ele>
        <time>2023-06-01T14:38:58.000Z</time>
      </trkpt>
      <trkpt lat="46.1917" lon="-1.38035">
        <ele>6.25718</ele>
        <time>2023-06-01T14:38:59.000Z</time>
      </trkpt>
      <trkpt lat="46.19166" lon="-1.38035">
        <ele>6.21011</ele>
        <time>2023-06-01T14:39:00.000Z</time>
      </trkpt>
      <trkpt lat="46.19161" lon="-1.38034">
        <ele>6.09693</ele>
        <time>2023-06-01T14:39:01.000Z</time>
      </trkpt>
      <trkpt lat="46.19157" lon="-1.38034">
        <ele>5.99072</ele>
        <time>2023-06-01T14:39:02.000Z</time>
      </trkpt>
      <trkpt lat="46.19152" lon="-1.38033">
        <ele>5.84601</ele>
        <time>2023-06-01T14:39:03.000Z</time>
      </trkpt>
      <trkpt lat="46.19148" lon="-1.38032">
        <ele>5.75665</ele>
        <time>2023-06-01T14:39:04.000Z</time>
      </trkpt>
      <trkpt lat="46.19143" lon="-1.38032">
        <ele>5.71715</ele>
        <time>2023-06-01T14:39:05.000Z</time>
      </trkpt>
      <trkpt lat="46.19139" lon="-1.38031">
        <ele>5.72378</ele>
        <time>2023-06-01T14:39:06.000Z</time>
      </trkpt>
      <trkpt lat="46.19135" lon="-1.3803">
        <ele>5.75049</ele>
        <time>2023-06-01T14:39:07.000Z</time>
      </trkpt>
      <trkpt lat="46.19131" lon="-1.3803">
        <ele>5.80522</ele>
        <time>2023-06-01T14:39:08.000Z</time>
      </trkpt>
      <trkpt lat="46.19127" lon="-1.38029">
        <ele>5.95961</ele>
        <time>2023-06-01T14:39:09.000Z</time>
      </trkpt>
      <trkpt lat="46.19123" lon="-1.38029">
        <ele>5.98466</ele>
        <time>2023-06-01T14:39:10.000Z</time>
      </trkpt>
      <trkpt lat="46.19119" lon="-1.38029">
        <ele>5.97842</ele>
        <time>2023-06-01T14:39:11.000Z</time>
      </trkpt>
      <trkpt lat="46.19114" lon="-1.3803">
        <ele>6.06476</ele>
        <time>2023-06-01T14:39:12.000Z</time>
      </trkpt>
      <trkpt lat="46.19109" lon="-1.38032">
        <ele>6.14645</ele>
        <time>2023-06-01T14:39:13.000Z</time>
      </trkpt>
      <trkpt lat="46.19105" lon="-1.38034">
        <ele>6.19678</ele>
        <time>2023-06-01T14:39:14.000Z</time>
      </trkpt>
      <trkpt lat="46.19101" lon="-1.3804">
        <ele>6.25126</ele>
        <time>2023-06-01T14:39:15.000Z</time>
      </trkpt>
      <trkpt lat="46.19098" lon="-1.38045">
        <ele>6.30362</ele>
        <time>2023-06-01T14:39:16.000Z</time>
      </trkpt>
      <trkpt lat="46.19095" lon="-1.38049">
        <ele>6.36674</ele>
        <time>2023-06-01T14:39:17.000Z</time>
      </trkpt>
      <trkpt lat="46.19092" lon="-1.38055">
        <ele>6.3494</ele>
        <time>2023-06-01T14:39:18.000Z</time>
      </trkpt>
      <trkpt lat="46.19089" lon="-1.38061">
        <ele>6.35132</ele>
        <time>2023-06-01T14:39:19.000Z</time>
      </trkpt>
      <trkpt lat="46.19087" lon="-1.38066">
        <ele>6.31882</ele>
        <time>2023-06-01T14:39:20.000Z</time>
      </trkpt>
      <trkpt lat="46.19084" lon="-1.38072">
        <ele>6.30558</ele>
        <time>2023-06-01T14:39:21.000Z</time>
      </trkpt>
      <trkpt lat="46.19083" lon="-1.38077">
        <ele>6.3748</ele>
        <time>2023-06-01T14:39:22.000Z</time>
      </trkpt>
      <trkpt lat="46.19081" lon="-1.38082">
        <ele>6.41645</ele>
        <time>2023-06-01T14:39:23.000Z</time>
      </trkpt>
      <trkpt lat="46.19078" lon="-1.38087">
        <ele>6.41372</ele>
        <time>2023-06-01T14:39:24.000Z</time>
      </trkpt>
      <trkpt lat="46.19076" lon="-1.38093">
        <ele>6.43537</ele>
        <time>2023-06-01T14:39:25.000Z</time>
      </trkpt>
      <trkpt lat="46.19073" lon="-1.38099">
        <ele>6.47986</ele>
        <time>2023-06-01T14:39:26.000Z</time>
      </trkpt>
      <trkpt lat="46.19071" lon="-1.38106">
        <ele>6.52197</ele>
        <time>2023-06-01T14:39:27.000Z</time>
      </trkpt>
      <trkpt lat="46.19069" lon="-1.38112">
        <ele>6.57016</ele>
        <time>2023-06-01T14:39:28.000Z</time>
      </trkpt>
      <trkpt lat="46.19068" lon="-1.38118">
        <ele>6.61122</ele>
        <time>2023-06-01T14:39:29.000Z</time>
      </trkpt>
      <trkpt lat="46.19066" lon="-1.38123">
        <ele>6.64402</ele>
        <time>2023-06-01T14:39:30.000Z</time>
      </trkpt>
      <trkpt lat="46.19064" lon="-1.3813">
        <ele>6.6823</ele>
        <time>2023-06-01T14:39:31.000Z</time>
      </trkpt>
      <trkpt lat="46.19062" lon="-1.38136">
        <ele>6.68281</ele>
        <time>2023-06-01T14:39:32.000Z</time>
      </trkpt>
      <trkpt lat="46.1906" lon="-1.38143">
        <ele>6.66998</ele>
        <time>2023-06-01T14:39:33.000Z</time>
      </trkpt>
      <trkpt lat="46.19058" lon="-1.3815">
        <ele>6.66125</ele>
        <time>2023-06-01T14:39:34.000Z</time>
      </trkpt>
      <trkpt lat="46.19056" lon="-1.38157">
        <ele>6.6529</ele>
        <time>2023-06-01T14:39:35.000Z</time>
      </trkpt>
      <trkpt lat="46.19055" lon="-1.38164">
        <ele>6.64793</ele>
        <time>2023-06-01T14:39:36.000Z</time>
      </trkpt>
      <trkpt lat="46.19053" lon="-1.38171">
        <ele>6.66525</ele>
        <time>2023-06-01T14:39:37.000Z</time>
      </trkpt>
      <trkpt lat="46.1905" lon="-1.38177">
        <ele>6.69261</ele>
        <time>2023-06-01T14:39:38.000Z</time>
      </trkpt>
      <trkpt lat="46.19048" lon="-1.38184">
        <ele>6.76808</ele>
        <time>2023-06-01T14:39:39.000Z</time>
      </trkpt>
      <trkpt lat="46.19046" lon="-1.3819">
        <ele>6.84981</ele>
        <time>2023-06-01T14:39:40.000Z</time>
      </trkpt>
      <trkpt lat="46.19043" lon="-1.38197">
        <ele>6.92349</ele>
        <time>2023-06-01T14:39:41.000Z</time>
      </trkpt>
      <trkpt lat="46.19039" lon="-1.38202">
        <ele>6.9633</ele>
        <time>2023-06-01T14:39:42.000Z</time>
      </trkpt>
      <trkpt lat="46.19035" lon="-1.38207">
        <ele>7.03933</ele>
        <time>2023-06-01T14:39:43.000Z</time>
      </trkpt>
      <trkpt lat="46.19031" lon="-1.38212">
        <ele>7.06376</ele>
        <time>2023-06-01T14:39:44.000Z</time>
      </trkpt>
      <trkpt lat="46.19027" lon="-1.38215">
        <ele>7.06309</ele>
        <time>2023-06-01T14:39:45.000Z</time>
      </trkpt>
      <trkpt lat="46.19021" lon="-1.38216">
        <ele>7.05171</ele>
        <time>2023-06-01T14:39:46.000Z</time>
      </trkpt>
      <trkpt lat="46.19016" lon="-1.38217">
        <ele>6.93741</ele>
        <time>2023-06-01T14:39:47.000Z</time>
      </trkpt>
      <trkpt lat="46.19011" lon="-1.38217">
        <ele>6.90175</ele>
        <time>2023-06-01T14:39:48.000Z</time>
      </trkpt>
      <trkpt lat="46.19005" lon="-1.38218">
        <ele>6.81236</ele>
        <time>2023-06-01T14:39:49.000Z</time>
      </trkpt>
      <trkpt lat="46.19" lon="-1.38219">
        <ele>6.7037</ele>
        <time>2023-06-01T14:39:50.000Z</time>
      </trkpt>
      <trkpt lat="46.18995" lon="-1.38221">
        <ele>6.56649</ele>
        <time>2023-06-01T14:39:51.000Z</time>
      </trkpt>
      <trkpt lat="46.18989" lon="-1.38222">
        <ele>6.45825</ele>
        <time>2023-06-01T14:39:52.000Z</time>
      </trkpt>
      <trkpt lat="46.18984" lon="-1.38225">
        <ele>6.34961</ele>
        <time>2023-06-01T14:39:53.000Z</time>
      </trkpt>
      <trkpt lat="46.18979" lon="-1.38227">
        <ele>6.20331</ele>
        <time>2023-06-01T14:39:54.000Z</time>
      </trkpt>
      <trkpt lat="46.18974" lon="-1.3823">
        <ele>6.05889</ele>
        <time>2023-06-01T14:39:55.000Z</time>
      </trkpt>
      <trkpt lat="46.1897" lon="-1.38232">
        <ele>5.91783</ele>
        <time>2023-06-01T14:39:56.000Z</time>
      </trkpt>
      <trkpt lat="46.18965" lon="-1.38235">
        <ele>5.82768</ele>
        <time>2023-06-01T14:39:57.000Z</time>
      </trkpt>
      <trkpt lat="46.18961" lon="-1.38237">
        <ele>5.782</ele>
        <time>2023-06-01T14:39:58.000Z</time>
      </trkpt>
      <trkpt lat="46.18956" lon="-1.38241">
        <ele>5.69339</ele>
        <time>2023-06-01T14:39:59.000Z</time>
      </trkpt>
      <trkpt lat="46.18952" lon="-1.38244">
        <ele>5.60482</ele>
        <time>2023-06-01T14:40:00.000Z</time>
      </trkpt>
      <trkpt lat="46.18948" lon="-1.38248">
        <ele>5.53883</ele>
        <time>2023-06-01T14:40:01.000Z</time>
      </trkpt>
      <trkpt lat="46.18943" lon="-1.38251">
        <ele>5.45345</ele>
        <time>2023-06-01T14:40:02.000Z</time>
      </trkpt>
      <trkpt lat="46.18938" lon="-1.38253">
        <ele>5.36779</ele>
        <time>2023-06-01T14:40:03.000Z</time>
      </trkpt>
      <trkpt lat="46.18933" lon="-1.38254">
        <ele>5.30239</ele>
        <time>2023-06-01T14:40:04.000Z</time>
      </trkpt>
      <trkpt lat="46.18927" lon="-1.38255">
        <ele>5.25538</ele>
        <time>2023-06-01T14:40:05.000Z</time>
      </trkpt>
      <trkpt lat="46.18922" lon="-1.38255">
        <ele>5.23178</ele>
        <time>2023-06-01T14:40:06.000Z</time>
      </trkpt>
      <trkpt lat="46.18917" lon="-1.38254">
        <ele>5.30917</ele>
        <time>2023-06-01T14:40:07.000Z</time>
      </trkpt>
      <trkpt lat="46.18912" lon="-1.38255">
        <ele>5.301</ele>
        <time>2023-06-01T14:40:08.000Z</time>
      </trkpt>
      <trkpt lat="46.18906" lon="-1.38255">
        <ele>5.33052</ele>
        <time>2023-06-01T14:40:09.000Z</time>
      </trkpt>
      <trkpt lat="46.18902" lon="-1.38254">
        <ele>5.38258</ele>
        <time>2023-06-01T14:40:10.000Z</time>
      </trkpt>
      <trkpt lat="46.18897" lon="-1.38254">
        <ele>5.44883</ele>
        <time>2023-06-01T14:40:11.000Z</time>
      </trkpt>
      <trkpt lat="46.18892" lon="-1.38255">
        <ele>5.51104</ele>
        <time>2023-06-01T14:40:12.000Z</time>
      </trkpt>
      <trkpt lat="46.18887" lon="-1.38256">
        <ele>5.58061</ele>
        <time>2023-06-01T14:40:13.000Z</time>
      </trkpt>
      <trkpt lat="46.18882" lon="-1.38256">
        <ele>5.68363</ele>
        <time>2023-06-01T14:40:14.000Z</time>
      </trkpt>
      <trkpt lat="46.18877" lon="-1.38255">
        <ele>5.75849</ele>
        <time>2023-06-01T14:40:15.000Z</time>
      </trkpt>
      <trkpt lat="46.18873" lon="-1.38255">
        <ele>5.84114</ele>
        <time>2023-06-01T14:40:16.000Z</time>
      </trkpt>
      <trkpt lat="46.18869" lon="-1.38256">
        <ele>5.86919</ele>
        <time>2023-06-01T14:40:17.000Z</time>
      </trkpt>
      <trkpt lat="46.18865" lon="-1.38259">
        <ele>5.84947</ele>
        <time>2023-06-01T14:40:18.000Z</time>
      </trkpt>
      <trkpt lat="46.18863" lon="-1.38264">
        <ele>5.86303</ele>
        <time>2023-06-01T14:40:19.000Z</time>
      </trkpt>
      <trkpt lat="46.18863" lon="-1.3827">
        <ele>5.92392</ele>
        <time>2023-06-01T14:40:20.000Z</time>
      </trkpt>
      <trkpt lat="46.18863" lon="-1.38276">
        <ele>5.93535</ele>
        <time>2023-06-01T14:40:21.000Z</time>
      </trkpt>
      <trkpt lat="46.18864" lon="-1.38281">
        <ele>5.92518</ele>
        <time>2023-06-01T14:40:22.000Z</time>
      </trkpt>
      <trkpt lat="46.18864" lon="-1.38287">
        <ele>5.9272</ele>
        <time>2023-06-01T14:40:23.000Z</time>
      </trkpt>
      <trkpt lat="46.18863" lon="-1.38292">
        <ele>5.96378</ele>
        <time>2023-06-01T14:40:24.000Z</time>
      </trkpt>
      <trkpt lat="46.18862" lon="-1.38298">
        <ele>6.01828</ele>
        <time>2023-06-01T14:40:25.000Z</time>
      </trkpt>
      <trkpt lat="46.18861" lon="-1.38303">
        <ele>6.02927</ele>
        <time>2023-06-01T14:40:26.000Z</time>
      </trkpt>
      <trkpt lat="46.1886" lon="-1.38307">
        <ele>5.98319</ele>
        <time>2023-06-01T14:40:27.000Z</time>
      </trkpt>
      <trkpt lat="46.18858" lon="-1.38311">
        <ele>5.91958</ele>
        <time>2023-06-01T14:40:28.000Z</time>
      </trkpt>
      <trkpt lat="46.18856" lon="-1.38314">
        <ele>5.85173</ele>
        <time>2023-06-01T14:40:29.000Z</time>
      </trkpt>
      <trkpt lat="46.18855" lon="-1.38318">
        <ele>5.80251</ele>
        <time>2023-06-01T14:40:30.000Z</time>
      </trkpt>
      <trkpt lat="46.18853" lon="-1.38321">
        <ele>5.74362</ele>
        <time>2023-06-01T14:40:31.000Z</time>
      </trkpt>
      <trkpt lat="46.18851" lon="-1.38324">
        <ele>5.69535</ele>
        <time>2023-06-01T14:40:32.000Z</time>
      </trkpt>
      <trkpt lat="46.18849" lon="-1.38327">
        <ele>5.66331</ele>
        <time>2023-06-01T14:40:33.000Z</time>
      </trkpt>
      <trkpt lat="46.18848" lon="-1.3833">
        <ele>5.62462</ele>
        <time>2023-06-01T14:40:34.000Z</time>
      </trkpt>
      <trkpt lat="46.18847" lon="-1.38332">
        <ele>5.58794</ele>
        <time>2023-06-01T14:40:35.000Z</time>
      </trkpt>
      <trkpt lat="46.18846" lon="-1.38335">
        <ele>5.54344</ele>
        <time>2023-06-01T14:40:36.000Z</time>
      </trkpt>
      <trkpt lat="46.18845" lon="-1.38338">
        <ele>5.52718</ele>
        <time>2023-06-01T14:40:37.000Z</time>
      </trkpt>
      <trkpt lat="46.18845" lon="-1.38341">
        <ele>5.5116</ele>
        <time>2023-06-01T14:40:38.000Z</time>
      </trkpt>
      <trkpt lat="46.18845" lon="-1.38345">
        <ele>5.49361</ele>
        <time>2023-06-01T14:40:39.000Z</time>
      </trkpt>
      <trkpt lat="46.18847" lon="-1.38349">
        <ele>5.40673</ele>
        <time>2023-06-01T14:40:40.000Z</time>
      </trkpt>
      <trkpt lat="46.18849" lon="-1.38353">
        <ele>5.36623</ele>
        <time>2023-06-01T14:40:41.000Z</time>
      </trkpt>
      <trkpt lat="46.18851" lon="-1.38357">
        <ele>5.33435</ele>
        <time>2023-06-01T14:40:42.000Z</time>
      </trkpt>
      <trkpt lat="46.18854" lon="-1.38361">
        <ele>5.2808</ele>
        <time>2023-06-01T14:40:43.000Z</time>
      </trkpt>
      <trkpt lat="46.18857" lon="-1.38365">
        <ele>5.2077</ele>
        <time>2023-06-01T14:40:44.000Z</time>
      </trkpt>
      <trkpt lat="46.1886" lon="-1.3837">
        <ele>5.12327</ele>
        <time>2023-06-01T14:40:45.000Z</time>
      </trkpt>
      <trkpt lat="46.18862" lon="-1.38375">
        <ele>5.07336</ele>
        <time>2023-06-01T14:40:46.000Z</time>
      </trkpt>
      <trkpt lat="46.18865" lon="-1.3838">
        <ele>5.05717</ele>
        <time>2023-06-01T14:40:47.000Z</time>
      </trkpt>
      <trkpt lat="46.18867" lon="-1.38386">
        <ele>5.06379</ele>
        <time>2023-06-01T14:40:48.000Z</time>
      </trkpt>
      <trkpt lat="46.1887" lon="-1.38392">
        <ele>5.06515</ele>
        <time>2023-06-01T14:40:49.000Z</time>
      </trkpt>
      <trkpt lat="46.18872" lon="-1.38399">
        <ele>5.0285</ele>
        <time>2023-06-01T14:40:50.000Z</time>
      </trkpt>
      <trkpt lat="46.18874" lon="-1.38405">
        <ele>5.03665</ele>
        <time>2023-06-01T14:40:51.000Z</time>
      </trkpt>
      <trkpt lat="46.18877" lon="-1.38411">
        <ele>5.03668</ele>
        <time>2023-06-01T14:40:52.000Z</time>
      </trkpt>
      <trkpt lat="46.18879" lon="-1.38417">
        <ele>5.00386</ele>
        <time>2023-06-01T14:40:53.000Z</time>
      </trkpt>
      <trkpt lat="46.18881" lon="-1.38423">
        <ele>4.96594</ele>
        <time>2023-06-01T14:40:54.000Z</time>
      </trkpt>
      <trkpt lat="46.18884" lon="-1.38429">
        <ele>4.97588</ele>
        <time>2023-06-01T14:40:55.000Z</time>
      </trkpt>
      <trkpt lat="46.18887" lon="-1.38434">
        <ele>4.91091</ele>
        <time>2023-06-01T14:40:56.000Z</time>
      </trkpt>
      <trkpt lat="46.18889" lon="-1.3844">
        <ele>4.86079</ele>
        <time>2023-06-01T14:40:57.000Z</time>
      </trkpt>
      <trkpt lat="46.18892" lon="-1.38446">
        <ele>4.79584</ele>
        <time>2023-06-01T14:40:58.000Z</time>
      </trkpt>
      <trkpt lat="46.18895" lon="-1.38453">
        <ele>4.72373</ele>
        <time>2023-06-01T14:40:59.000Z</time>
      </trkpt>
      <trkpt lat="46.18898" lon="-1.3846">
        <ele>4.69178</ele>
        <time>2023-06-01T14:41:00.000Z</time>
      </trkpt>
      <trkpt lat="46.18901" lon="-1.38465">
        <ele>4.62857</ele>
        <time>2023-06-01T14:41:01.000Z</time>
      </trkpt>
      <trkpt lat="46.18903" lon="-1.38471">
        <ele>4.57935</ele>
        <time>2023-06-01T14:41:02.000Z</time>
      </trkpt>
      <trkpt lat="46.18905" lon="-1.38477">
        <ele>4.54303</ele>
        <time>2023-06-01T14:41:03.000Z</time>
      </trkpt>
      <trkpt lat="46.18909" lon="-1.38484">
        <ele>4.51483</ele>
        <time>2023-06-01T14:41:04.000Z</time>
      </trkpt>
      <trkpt lat="46.18911" lon="-1.3849">
        <ele>4.49761</ele>
        <time>2023-06-01T14:41:05.000Z</time>
      </trkpt>
      <trkpt lat="46.18913" lon="-1.38496">
        <ele>4.48128</ele>
        <time>2023-06-01T14:41:06.000Z</time>
      </trkpt>
      <trkpt lat="46.18915" lon="-1.38502">
        <ele>4.47137</ele>
        <time>2023-06-01T14:41:07.000Z</time>
      </trkpt>
      <trkpt lat="46.18917" lon="-1.38507">
        <ele>4.47942</ele>
        <time>2023-06-01T14:41:08.000Z</time>
      </trkpt>
      <trkpt lat="46.18919" lon="-1.38513">
        <ele>4.49663</ele>
        <time>2023-06-01T14:41:09.000Z</time>
      </trkpt>
      <trkpt lat="46.18921" lon="-1.38518">
        <ele>4.54724</ele>
        <time>2023-06-01T14:41:10.000Z</time>
      </trkpt>
      <trkpt lat="46.18923" lon="-1.38523">
        <ele>4.54872</ele>
        <time>2023-06-01T14:41:11.000Z</time>
      </trkpt>
      <trkpt lat="46.18924" lon="-1.38529">
        <ele>4.52478</ele>
        <time>2023-06-01T14:41:12.000Z</time>
      </trkpt>
      <trkpt lat="46.18926" lon="-1.38534">
        <ele>4.52404</ele>
        <time>2023-06-01T14:41:13.000Z</time>
      </trkpt>
      <trkpt lat="46.18928" lon="-1.38539">
        <ele>4.55683</ele>
        <time>2023-06-01T14:41:14.000Z</time>
      </trkpt>
      <trkpt lat="46.18928" lon="-1.38543">
        <ele>4.56246</ele>
        <time>2023-06-01T14:41:15.000Z</time>
      </trkpt>
      <trkpt lat="46.18928" lon="-1.38548">
        <ele>4.63576</ele>
        <time>2023-06-01T14:41:16.000Z</time>
      </trkpt>
      <trkpt lat="46.18927" lon="-1.38552">
        <ele>4.71887</ele>
        <time>2023-06-01T14:41:17.000Z</time>
      </trkpt>
      <trkpt lat="46.18927" lon="-1.38556">
        <ele>4.82054</ele>
        <time>2023-06-01T14:41:18.000Z</time>
      </trkpt>
      <trkpt lat="46.18927" lon="-1.3856">
        <ele>4.89666</ele>
        <time>2023-06-01T14:41:19.000Z</time>
      </trkpt>
      <trkpt lat="46.18927" lon="-1.38564">
        <ele>4.92915</ele>
        <time>2023-06-01T14:41:20.000Z</time>
      </trkpt>
      <trkpt lat="46.18927" lon="-1.38567">
        <ele>4.96937</ele>
        <time>2023-06-01T14:41:21.000Z</time>
      </trkpt>
      <trkpt lat="46.18927" lon="-1.38571">
        <ele>4.98756</ele>
        <time>2023-06-01T14:41:22.000Z</time>
      </trkpt>
      <trkpt lat="46.18927" lon="-1.38574">
        <ele>5.00784</ele>
        <time>2023-06-01T14:41:23.000Z</time>
      </trkpt>
      <trkpt lat="46.18927" lon="-1.38578">
        <ele>5.04162</ele>
        <time>2023-06-01T14:41:24.000Z</time>
      </trkpt>
      <trkpt lat="46.18927" lon="-1.38582">
        <ele>5.05308</ele>
        <time>2023-06-01T14:41:25.000Z</time>
      </trkpt>
      <trkpt lat="46.18927" lon="-1.38586">
        <ele>5.06215</ele>
        <time>2023-06-01T14:41:26.000Z</time>
      </trkpt>
      <trkpt lat="46.18927" lon="-1.38591">
        <ele>5.11407</ele>
        <time>2023-06-01T14:41:27.000Z</time>
      </trkpt>
      <trkpt lat="46.18927" lon="-1.38595">
        <ele>5.15195</ele>
        <time>2023-06-01T14:41:28.000Z</time>
      </trkpt>
      <trkpt lat="46.18927" lon="-1.38601">
        <ele>5.18082</ele>
        <time>2023-06-01T14:41:29.000Z</time>
      </trkpt>
      <trkpt lat="46.18928" lon="-1.38606">
        <ele>5.18919</ele>
        <time>2023-06-01T14:41:30.000Z</time>
      </trkpt>
      <trkpt lat="46.18928" lon="-1.38611">
        <ele>5.20664</ele>
        <time>2023-06-01T14:41:31.000Z</time>
      </trkpt>
      <trkpt lat="46.18928" lon="-1.38615">
        <ele>5.25174</ele>
        <time>2023-06-01T14:41:32.000Z</time>
      </trkpt>
      <trkpt lat="46.18929" lon="-1.3862">
        <ele>5.28483</ele>
        <time>2023-06-01T14:41:33.000Z</time>
      </trkpt>
      <trkpt lat="46.1893" lon="-1.38624">
        <ele>5.3141</ele>
        <time>2023-06-01T14:41:34.000Z</time>
      </trkpt>
      <trkpt lat="46.1893" lon="-1.38628">
        <ele>5.34495</ele>
        <time>2023-06-01T14:41:35.000Z</time>
      </trkpt>
      <trkpt lat="46.1893" lon="-1.38632">
        <ele>5.39038</ele>
        <time>2023-06-01T14:41:36.000Z</time>
      </trkpt>
      <trkpt lat="46.18929" lon="-1.38636">
        <ele>5.40756</ele>
        <time>2023-06-01T14:41:37.000Z</time>
      </trkpt>
      <trkpt lat="46.18927" lon="-1.38639">
        <ele>5.41745</ele>
        <time>2023-06-01T14:41:38.000Z</time>
      </trkpt>
      <trkpt lat="46.18925" lon="-1.3864">
        <ele>5.46126</ele>
        <time>2023-06-01T14:41:39.000Z</time>
      </trkpt>
      <trkpt lat="46.18923" lon="-1.38641">
        <ele>5.54293</ele>
        <time>2023-06-01T14:41:40.000Z</time>
      </trkpt>
      <trkpt lat="46.1892" lon="-1.38641">
        <ele>5.6357</ele>
        <time>2023-06-01T14:41:42.000Z</time>
      </trkpt>
      <trkpt lat="46.18918" lon="-1.38639">
        <ele>5.72064</ele>
        <time>2023-06-01T14:41:44.000Z</time>
      </trkpt>
      <trkpt lat="46.18917" lon="-1.38636">
        <ele>5.81046</ele>
        <time>2023-06-01T14:41:45.000Z</time>
      </trkpt>
      <trkpt lat="46.18918" lon="-1.38634">
        <ele>5.87532</ele>
        <time>2023-06-01T14:41:46.000Z</time>
      </trkpt>
      <trkpt lat="46.18919" lon="-1.38633">
        <ele>5.96747</ele>
        <time>2023-06-01T14:41:47.000Z</time>
      </trkpt>
      <trkpt lat="46.18921" lon="-1.38635">
        <ele>6.0515</ele>
        <time>2023-06-01T14:41:48.000Z</time>
      </trkpt>
      <trkpt lat="46.18922" lon="-1.3864">
        <ele>6.07926</ele>
        <time>2023-06-01T14:41:49.000Z</time>
      </trkpt>
      <trkpt lat="46.18921" lon="-1.38646">
        <ele>6.09727</ele>
        <time>2023-06-01T14:41:50.000Z</time>
      </trkpt>
      <trkpt lat="46.18921" lon="-1.38652">
        <ele>6.14331</ele>
        <time>2023-06-01T14:41:51.000Z</time>
      </trkpt>
      <trkpt lat="46.18921" lon="-1.38658">
        <ele>6.19798</ele>
        <time>2023-06-01T14:41:52.000Z</time>
      </trkpt>
      <trkpt lat="46.18921" lon="-1.38664">
        <ele>6.23033</ele>
        <time>2023-06-01T14:41:53.000Z</time>
      </trkpt>
      <trkpt lat="46.18921" lon="-1.3867">
        <ele>6.32622</ele>
        <time>2023-06-01T14:41:54.000Z</time>
      </trkpt>
      <trkpt lat="46.18921" lon="-1.38675">
        <ele>6.414</ele>
        <time>2023-06-01T14:41:55.000Z</time>
      </trkpt>
      <trkpt lat="46.18921" lon="-1.38681">
        <ele>6.48684</ele>
        <time>2023-06-01T14:41:56.000Z</time>
      </trkpt>
      <trkpt lat="46.18921" lon="-1.38687">
        <ele>6.55281</ele>
        <time>2023-06-01T14:41:57.000Z</time>
      </trkpt>
      <trkpt lat="46.18922" lon="-1.38692">
        <ele>6.60789</ele>
        <time>2023-06-01T14:41:58.000Z</time>
      </trkpt>
      <trkpt lat="46.18922" lon="-1.38698">
        <ele>6.66425</ele>
        <time>2023-06-01T14:41:59.000Z</time>
      </trkpt>
      <trkpt lat="46.18922" lon="-1.38703">
        <ele>6.69611</ele>
        <time>2023-06-01T14:42:00.000Z</time>
      </trkpt>
      <trkpt lat="46.18923" lon="-1.38709">
        <ele>6.74025</ele>
        <time>2023-06-01T14:42:01.000Z</time>
      </trkpt>
      <trkpt lat="46.18923" lon="-1.38714">
        <ele>6.77578</ele>
        <time>2023-06-01T14:42:02.000Z</time>
      </trkpt>
      <trkpt lat="46.18923" lon="-1.3872">
        <ele>6.79471</ele>
        <time>2023-06-01T14:42:03.000Z</time>
      </trkpt>
      <trkpt lat="46.18924" lon="-1.38725">
        <ele>6.83368</ele>
        <time>2023-06-01T14:42:04.000Z</time>
      </trkpt>
      <trkpt lat="46.18924" lon="-1.38731">
        <ele>6.88613</ele>
        <time>2023-06-01T14:42:05.000Z</time>
      </trkpt>
      <trkpt lat="46.18925" lon="-1.38736">
        <ele>6.9576</ele>
        <time>2023-06-01T14:42:06.000Z</time>
      </trkpt>
      <trkpt lat="46.18925" lon="-1.38742">
        <ele>7.00437</ele>
        <time>2023-06-01T14:42:07.000Z</time>
      </trkpt>
      <trkpt lat="46.18925" lon="-1.38747">
        <ele>7.04768</ele>
        <time>2023-06-01T14:42:08.000Z</time>
      </trkpt>
      <trkpt lat="46.18925" lon="-1.38753">
        <ele>7.09925</ele>
        <time>2023-06-01T14:42:09.000Z</time>
      </trkpt>
      <trkpt lat="46.18925" lon="-1.38758">
        <ele>7.14578</ele>
        <time>2023-06-01T14:42:10.000Z</time>
      </trkpt>
      <trkpt lat="46.18926" lon="-1.38763">
        <ele>7.15801</ele>
        <time>2023-06-01T14:42:11.000Z</time>
      </trkpt>
      <trkpt lat="46.18926" lon="-1.38767">
        <ele>7.17741</ele>
        <time>2023-06-01T14:42:12.000Z</time>
      </trkpt>
      <trkpt lat="46.18926" lon="-1.38771">
        <ele>7.22159</ele>
        <time>2023-06-01T14:42:13.000Z</time>
      </trkpt>
      <trkpt lat="46.18927" lon="-1.38775">
        <ele>7.20201</ele>
        <time>2023-06-01T14:42:14.000Z</time>
      </trkpt>
      <trkpt lat="46.18927" lon="-1.3878">
        <ele>7.20161</ele>
        <time>2023-06-01T14:42:15.000Z</time>
      </trkpt>
      <trkpt lat="46.18928" lon="-1.38785">
        <ele>7.21631</ele>
        <time>2023-06-01T14:42:16.000Z</time>
      </trkpt>
      <trkpt lat="46.18928" lon="-1.38789">
        <ele>7.25039</ele>
        <time>2023-06-01T14:42:17.000Z</time>
      </trkpt>
      <trkpt lat="46.18928" lon="-1.38795">
        <ele>7.28795</ele>
        <time>2023-06-01T14:42:18.000Z</time>
      </trkpt>
      <trkpt lat="46.18928" lon="-1.388">
        <ele>7.33047</ele>
        <time>2023-06-01T14:42:19.000Z</time>
      </trkpt>
      <trkpt lat="46.18929" lon="-1.38805">
        <ele>7.39563</ele>
        <time>2023-06-01T14:42:20.000Z</time>
      </trkpt>
      <trkpt lat="46.18929" lon="-1.3881">
        <ele>7.44655</ele>
        <time>2023-06-01T14:42:21.000Z</time>
      </trkpt>
      <trkpt lat="46.18929" lon="-1.38815">
        <ele>7.49781</ele>
        <time>2023-06-01T14:42:22.000Z</time>
      </trkpt>
      <trkpt lat="46.1893" lon="-1.38819">
        <ele>7.54726</ele>
        <time>2023-06-01T14:42:23.000Z</time>
      </trkpt>
      <trkpt lat="46.18931" lon="-1.38824">
        <ele>7.57871</ele>
        <time>2023-06-01T14:42:24.000Z</time>
      </trkpt>
      <trkpt lat="46.18932" lon="-1.3883">
        <ele>7.56627</ele>
        <time>2023-06-01T14:42:25.000Z</time>
      </trkpt>
      <trkpt lat="46.18933" lon="-1.38835">
        <ele>7.53658</ele>
        <time>2023-06-01T14:42:26.000Z</time>
      </trkpt>
      <trkpt lat="46.18935" lon="-1.3884">
        <ele>7.51025</ele>
        <time>2023-06-01T14:42:27.000Z</time>
      </trkpt>
      <trkpt lat="46.18936" lon="-1.38845">
        <ele>7.508</ele>
        <time>2023-06-01T14:42:28.000Z</time>
      </trkpt>
      <trkpt lat="46.18937" lon="-1.38849">
        <ele>7.51062</ele>
        <time>2023-06-01T14:42:29.000Z</time>
      </trkpt>
      <trkpt lat="46.18938" lon="-1.38854">
        <ele>7.51598</ele>
        <time>2023-06-01T14:42:30.000Z</time>
      </trkpt>
      <trkpt lat="46.18939" lon="-1.38858">
        <ele>7.5484</ele>
        <time>2023-06-01T14:42:31.000Z</time>
      </trkpt>
      <trkpt lat="46.1894" lon="-1.38863">
        <ele>7.57228</ele>
        <time>2023-06-01T14:42:32.000Z</time>
      </trkpt>
      <trkpt lat="46.18941" lon="-1.38868">
        <ele>7.60383</ele>
        <time>2023-06-01T14:42:33.000Z</time>
      </trkpt>
      <trkpt lat="46.18942" lon="-1.38873">
        <ele>7.63434</ele>
        <time>2023-06-01T14:42:34.000Z</time>
      </trkpt>
      <trkpt lat="46.18943" lon="-1.38877">
        <ele>7.57378</ele>
        <time>2023-06-01T14:42:35.000Z</time>
      </trkpt>
      <trkpt lat="46.18944" lon="-1.38881">
        <ele>7.48793</ele>
        <time>2023-06-01T14:42:36.000Z</time>
      </trkpt>
      <trkpt lat="46.18944" lon="-1.38884">
        <ele>7.37079</ele>
        <time>2023-06-01T14:42:37.000Z</time>
      </trkpt>
      <trkpt lat="46.18945" lon="-1.38888">
        <ele>7.29082</ele>
        <time>2023-06-01T14:42:39.000Z</time>
      </trkpt>
      <trkpt lat="46.18947" lon="-1.38892">
        <ele>7.31629</ele>
        <time>2023-06-01T14:42:41.000Z</time>
      </trkpt>
      <trkpt lat="46.18947" lon="-1.38895">
        <ele>7.32461</ele>
        <time>2023-06-01T14:42:42.000Z</time>
      </trkpt>
      <trkpt lat="46.18946" lon="-1.38898">
        <ele>7.25802</ele>
        <time>2023-06-01T14:42:44.000Z</time>
      </trkpt>
      <trkpt lat="46.18944" lon="-1.38901">
        <ele>7.1855</ele>
        <time>2023-06-01T14:42:46.000Z</time>
      </trkpt>
      <trkpt lat="46.18943" lon="-1.38899">
        <ele>7.13222</ele>
        <time>2023-06-01T14:42:56.000Z</time>
      </trkpt>
      <trkpt lat="46.18939" lon="-1.389">
        <ele>7.06307</ele>
        <time>2023-06-01T14:43:07.000Z</time>
      </trkpt>
      <trkpt lat="46.18937" lon="-1.38902">
        <ele>7.04597</ele>
        <time>2023-06-01T14:43:08.000Z</time>
      </trkpt>
      <trkpt lat="46.18935" lon="-1.38903">
        <ele>7.04565</ele>
        <time>2023-06-01T14:43:09.000Z</time>
      </trkpt>
      <trkpt lat="46.18932" lon="-1.38905">
        <ele>7.0696</ele>
        <time>2023-06-01T14:43:10.000Z</time>
      </trkpt>
      <trkpt lat="46.18929" lon="-1.38908">
        <ele>7.07942</ele>
        <time>2023-06-01T14:43:11.000Z</time>
      </trkpt>
      <trkpt lat="46.18926" lon="-1.3891">
        <ele>7.07184</ele>
        <time>2023-06-01T14:43:12.000Z</time>
      </trkpt>
      <trkpt lat="46.18923" lon="-1.38912">
        <ele>7.07733</ele>
        <time>2023-06-01T14:43:13.000Z</time>
      </trkpt>
      <trkpt lat="46.1892" lon="-1.38914">
        <ele>7.07856</ele>
        <time>2023-06-01T14:43:14.000Z</time>
      </trkpt>
      <trkpt lat="46.18917" lon="-1.38916">
        <ele>7.08496</ele>
        <time>2023-06-01T14:43:15.000Z</time>
      </trkpt>
      <trkpt lat="46.18914" lon="-1.38918">
        <ele>7.08051</ele>
        <time>2023-06-01T14:43:16.000Z</time>
      </trkpt>
      <trkpt lat="46.18911" lon="-1.3892">
        <ele>7.04217</ele>
        <time>2023-06-01T14:43:17.000Z</time>
      </trkpt>
      <trkpt lat="46.18908" lon="-1.38923">
        <ele>7.05144</ele>
        <time>2023-06-01T14:43:18.000Z</time>
      </trkpt>
      <trkpt lat="46.18904" lon="-1.38925">
        <ele>7.06343</ele>
        <time>2023-06-01T14:43:19.000Z</time>
      </trkpt>
      <trkpt lat="46.18901" lon="-1.38927">
        <ele>7.14106</ele>
        <time>2023-06-01T14:43:20.000Z</time>
      </trkpt>
      <trkpt lat="46.18898" lon="-1.38929">
        <ele>7.17451</ele>
        <time>2023-06-01T14:43:21.000Z</time>
      </trkpt>
      <trkpt lat="46.18895" lon="-1.38931">
        <ele>7.09258</ele>
        <time>2023-06-01T14:43:22.000Z</time>
      </trkpt>
      <trkpt lat="46.18892" lon="-1.38933">
        <ele>7.03451</ele>
        <time>2023-06-01T14:43:23.000Z</time>
      </trkpt>
      <trkpt lat="46.18889" lon="-1.38935">
        <ele>7.04467</ele>
        <time>2023-06-01T14:43:24.000Z</time>
      </trkpt>
      <trkpt lat="46.18886" lon="-1.38937">
        <ele>7.05069</ele>
        <time>2023-06-01T14:43:25.000Z</time>
      </trkpt>
      <trkpt lat="46.18884" lon="-1.38939">
        <ele>7.04742</ele>
        <time>2023-06-01T14:43:26.000Z</time>
      </trkpt>
      <trkpt lat="46.18882" lon="-1.38939">
        <ele>7.06607</ele>
        <time>2023-06-01T14:43:27.000Z</time>
      </trkpt>
      <trkpt lat="46.18879" lon="-1.38938">
        <ele>7.06928</ele>
        <time>2023-06-01T14:43:29.000Z</time>
      </trkpt>
      <trkpt lat="46.18877" lon="-1.38938">
        <ele>7.03022</ele>
        <time>2023-06-01T14:43:31.000Z</time>
      </trkpt>
      <trkpt lat="46.18875" lon="-1.38939">
        <ele>7.01623</ele>
        <time>2023-06-01T14:43:33.000Z</time>
      </trkpt>
      <trkpt lat="46.18873" lon="-1.3894">
        <ele>7.0342</ele>
        <time>2023-06-01T14:43:35.000Z</time>
      </trkpt>
    </trkseg>
  </trk>
</gpx>